[[{"header":{"parameterUnit":"m.s-1","parameterCategory":1,"la1":30.6,"la2":29.2853,"lo1":-89.7004,"lo2":-87.6739,"dy":0.0162,"dx":0.0183,"nx":112,"ny":82,"refTime":"2025-04-12T06:00:00:Z","depth":0,"parameterNumber":2,"parameterNumberName":"U-component_of_WINDS"},"data":[0.0,0.0,0.0,0.0,0.0,0.0,0.0,0.0,0.0,0.0,0.0,0.0,0.0,0.0,0.0,0.0,0.0,0.0,0.0,0.0,0.0,0.0,0.0,0.0,0.0,0.0,0.0,0.0,0.0,0.0,0.0,0.0,0.0,0.0,0.0,0.0,0.0,0.0,0.0,0.0,0.0,0.0,0.0,0.0,0.0,0.0,0.0,0.0,0.0,0.0,0.0,0.0,0.0,0.0,0.0,0.0,0.0,0.0,0.0,0.0,0.0,0.0,0.0,0.0,0.0,0.0,0.0,0.0,0.0,0.0,0.0,0.0,0.0,0.0,0.0,0.0,0.0,0.0,0.0,0.0,0.0,0.0,0.0,0.0,0.0,0.0,0.0,0.0,0.0,0.0,0.0,-2.9262,-3.21,-3.3532,-3.2839,-3.1825,-2.9989,-2.7152,0.0,0.0,0.0,0.0,0.0,0.0,0.0,0.0,0.0,0.0,0.0,0.0,0.0,0.0,0.0,0.0,0.0,0.0,0.0,0.0,0.0,0.0,0.0,0.0,0.0,0.0,0.0,0.0,0.0,0.0,0.0,0.0,0.0,0.0,0.0,0.0,0.0,0.0,0.0,0.0,0.0,0.0,0.0,0.0,0.0,0.0,0.0,0.0,0.0,0.0,0.0,0.0,0.0,0.0,0.0,0.0,0.0,0.0,0.0,0.0,0.0,0.0,0.0,0.0,0.0,0.0,0.0,0.0,0.0,0.0,0.0,0.0,0.0,0.0,0.0,0.0,0.0,0.0,0.0,0.0,0.0,0.0,0.0,0.0,0.0,0.0,0.0,0.0,0.0,0.0,0.0,0.0,0.0,0.0,0.0,0.0,0.0,0.0,0.0,0.0,0.0,0.0,0.0,0.0,-2.7119,-3.1574,-3.3109,-3.3752,-3.3623,-3.1623,-2.9879,-2.8712,0.0,0.0,0.0,0.0,0.0,0.0,0.0,0.0,0.0,0.0,0.0,0.0,0.0,0.0,0.0,0.0,0.0,0.0,0.0,0.0,0.0,0.0,0.0,0.0,0.0,0.0,0.0,0.0,0.0,0.0,0.0,0.0,0.0,0.0,0.0,0.0,0.0,0.0,0.0,0.0,0.0,0.0,0.0,0.0,0.0,0.0,0.0,0.0,0.0,0.0,0.0,0.0,0.0,0.0,0.0,0.0,0.0,0.0,0.0,0.0,0.0,0.0,0.0,0.0,0.0,0.0,0.0,0.0,0.0,0.0,0.0,0.0,0.0,0.0,0.0,0.0,0.0,0.0,0.0,0.0,0.0,0.0,0.0,0.0,0.0,0.0,0.0,0.0,0.0,0.0,0.0,0.0,0.0,0.0,0.0,0.0,0.0,0.0,0.0,0.0,0.0,0.0,0.0,-2.5768,-2.8209,-3.2179,-3.333,-3.3623,-3.3201,-3.1733,-3.0136,-2.8466,-2.4575,0.0,0.0,0.0,0.0,0.0,0.0,0.0,0.0,0.0,0.0,0.0,0.0,0.0,0.0,0.0,0.0,0.0,0.0,0.0,0.0,0.0,0.0,0.0,0.0,0.0,0.0,0.0,0.0,0.0,0.0,0.0,0.0,0.0,0.0,0.0,0.0,0.0,0.0,0.0,0.0,0.0,0.0,0.0,0.0,0.0,0.0,0.0,0.0,0.0,0.0,0.0,0.0,0.0,0.0,0.0,0.0,0.0,0.0,0.0,0.0,0.0,0.0,0.0,0.0,0.0,0.0,0.0,0.0,0.0,0.0,0.0,0.0,0.0,0.0,0.0,0.0,0.0,0.0,0.0,0.0,0.0,0.0,0.0,0.0,0.0,0.0,0.0,0.0,0.0,0.0,0.0,0.0,0.0,0.0,0.0,0.0,0.0,0.0,0.0,0.0,0.0,0.0,-2.8172,-2.9732,-3.2583,-3.344,-3.3476,-3.2674,-3.1696,-3.0166,-2.7945,-2.3832,0.0,0.0,0.0,0.0,0.0,0.0,0.0,0.0,0.0,0.0,0.0,0.0,0.0,0.0,0.0,0.0,0.0,0.0,0.0,0.0,0.0,0.0,0.0,0.0,0.0,0.0,0.0,0.0,0.0,0.0,0.0,0.0,0.0,0.0,0.0,0.0,0.0,0.0,0.0,0.0,0.0,0.0,0.0,0.0,0.0,0.0,0.0,0.0,0.0,0.0,0.0,0.0,0.0,0.0,0.0,0.0,0.0,0.0,0.0,0.0,0.0,0.0,0.0,0.0,0.0,0.0,0.0,0.0,0.0,0.0,0.0,0.0,0.0,0.0,0.0,0.0,0.0,0.0,0.0,0.0,0.0,0.0,0.0,0.0,0.0,0.0,0.0,0.0,0.0,0.0,0.0,0.0,0.0,0.0,0.0,0.0,0.0,0.0,0.0,0.0,0.0,0.0,-2.9292,-3.1806,-3.3532,-3.377,-3.3476,-3.2674,-3.1182,-2.9567,-2.7908,-2.3263,0.0,0.0,0.0,0.0,0.0,0.0,0.0,0.0,0.0,0.0,0.0,0.0,0.0,0.0,0.0,0.0,0.0,0.0,0.0,0.0,0.0,0.0,0.0,0.0,0.0,0.0,0.0,0.0,0.0,0.0,0.0,0.0,0.0,0.0,0.0,0.0,0.0,0.0,0.0,0.0,0.0,0.0,0.0,0.0,0.0,0.0,0.0,0.0,0.0,0.0,0.0,0.0,0.0,0.0,0.0,0.0,0.0,0.0,0.0,0.0,0.0,0.0,0.0,0.0,0.0,0.0,0.0,0.0,0.0,0.0,0.0,0.0,0.0,0.0,0.0,0.0,0.0,0.0,0.0,0.0,0.0,0.0,0.0,0.0,0.0,0.0,0.0,0.0,0.0,0.0,0.0,0.0,0.0,0.0,0.0,0.0,0.0,0.0,0.0,0.0,0.0,0.0,-2.8539,-3.0907,0.0,-3.3807,-3.3275,-3.1953,-3.0834,-2.909,-2.6476,0.0,0.0,0.0,0.0,0.0,0.0,0.0,0.0,0.0,0.0,0.0,0.0,0.0,0.0,0.0,0.0,0.0,0.0,0.0,0.0,0.0,0.0,0.0,0.0,0.0,0.0,0.0,0.0,0.0,0.0,0.0,0.0,0.0,0.0,0.0,0.0,0.0,0.0,0.0,0.0,0.0,0.0,0.0,0.0,0.0,0.0,0.0,0.0,0.0,0.0,0.0,0.0,0.0,0.0,0.0,0.0,0.0,0.0,0.0,0.0,0.0,0.0,0.0,0.0,0.0,0.0,0.0,0.0,0.0,0.0,0.0,0.0,0.0,0.0,0.0,0.0,0.0,0.0,0.0,0.0,0.0,0.0,0.0,0.0,0.0,0.0,0.0,0.0,0.0,0.0,0.0,0.0,0.0,0.0,0.0,0.0,0.0,0.0,0.0,0.0,0.0,0.0,-2.5912,-2.8402,-3.0803,0.0,-3.3807,-3.3146,-3.1544,-3.043,-2.8558,-2.5595,0.0,0.0,0.0,0.0,0.0,0.0,0.0,0.0,0.0,0.0,0.0,0.0,0.0,0.0,0.0,0.0,0.0,0.0,0.0,0.0,0.0,0.0,0.0,0.0,0.0,0.0,0.0,0.0,0.0,0.0,0.0,0.0,0.0,0.0,0.0,0.0,0.0,0.0,0.0,0.0,0.0,0.0,0.0,0.0,0.0,0.0,0.0,0.0,0.0,0.0,0.0,0.0,0.0,0.0,0.0,0.0,0.0,0.0,0.0,0.0,0.0,0.0,0.0,0.0,0.0,0.0,0.0,0.0,0.0,0.0,0.0,0.0,0.0,0.0,0.0,0.0,0.0,0.0,0.0,0.0,0.0,0.0,0.0,0.0,0.0,0.0,0.0,0.0,0.0,0.0,0.0,0.0,0.0,0.0,0.0,0.0,0.0,0.0,0.0,0.0,0.0,0.0,-2.5826,-2.9235,-3.2021,-3.3623,-3.3807,-3.3146,-3.1544,-2.9922,-2.7959,0.0,0.0,0.0,0.0,0.0,0.0,0.0,0.0,0.0,0.0,0.0,0.0,0.0,0.0,0.0,0.0,0.0,0.0,0.0,0.0,0.0,0.0,0.0,0.0,0.0,0.0,0.0,0.0,0.0,0.0,0.0,0.0,0.0,0.0,0.0,0.0,0.0,0.0,0.0,0.0,0.0,0.0,0.0,0.0,0.0,0.0,0.0,0.0,0.0,0.0,0.0,0.0,0.0,0.0,0.0,0.0,0.0,0.0,0.0,0.0,0.0,0.0,0.0,0.0,0.0,0.0,0.0,0.0,0.0,0.0,0.0,0.0,0.0,0.0,0.0,0.0,0.0,0.0,0.0,0.0,0.0,0.0,0.0,0.0,0.0,0.0,0.0,0.0,0.0,0.0,0.0,0.0,0.0,0.0,0.0,0.0,0.0,0.0,0.0,0.0,0.0,0.0,0.0,-2.5826,-2.9235,-3.2021,-3.3623,-3.355,-3.2839,-3.1518,-2.9617,-2.7374,-2.4712,0.0,0.0,0.0,0.0,0.0,0.0,0.0,0.0,0.0,0.0,0.0,0.0,0.0,0.0,0.0,0.0,0.0,0.0,0.0,0.0,0.0,0.0,0.0,0.0,0.0,0.0,0.0,0.0,0.0,0.0,0.0,0.0,0.0,0.0,0.0,0.0,0.0,0.0,0.0,0.0,0.0,0.0,0.0,0.0,0.0,0.0,0.0,0.0,0.0,0.0,0.0,0.0,0.0,0.0,0.0,0.0,0.0,0.0,0.0,0.0,0.0,0.0,0.0,0.0,0.0,0.0,0.0,0.0,0.0,0.0,0.0,0.0,0.0,0.0,0.0,0.0,0.0,0.0,0.0,0.0,0.0,0.0,0.0,0.0,0.0,0.0,0.0,0.0,0.0,0.0,0.0,0.0,0.0,0.0,0.0,0.0,0.0,0.0,0.0,0.0,0.0,0.0,-2.5814,-2.9235,-3.2021,-3.3623,-3.3578,-3.2898,-3.1518,-2.9672,-2.7457,-2.4841,0.0,0.0,0.0,0.0,0.0,0.0,0.0,0.0,0.0,0.0,0.0,0.0,0.0,0.0,0.0,0.0,0.0,0.0,0.0,0.0,0.0,0.0,0.0,0.0,0.0,0.0,0.0,0.0,0.0,0.0,0.0,0.0,0.0,0.0,0.0,0.0,0.0,0.0,0.0,0.0,0.0,0.0,0.0,0.0,0.0,0.0,0.0,0.0,0.0,0.0,0.0,0.0,0.0,0.0,0.0,0.0,0.0,0.0,0.0,0.0,0.0,0.0,0.0,0.0,0.0,0.0,0.0,0.0,0.0,0.0,0.0,0.0,0.0,0.0,0.0,0.0,0.0,0.0,0.0,0.0,0.0,0.0,0.0,0.0,0.0,0.0,0.0,0.0,0.0,0.0,0.0,0.0,0.0,0.0,0.0,0.0,0.0,0.0,0.0,0.0,0.0,0.0,-2.5837,-2.9199,-3.19,-3.3511,-3.3634,-3.3008,-3.1462,-2.9905,-2.7965,-2.5558,0.0,0.0,0.0,0.0,0.0,0.0,0.0,0.0,0.0,0.0,0.0,0.0,0.0,0.0,0.0,0.0,0.0,0.0,0.0,0.0,0.0,0.0,0.0,0.0,0.0,0.0,0.0,0.0,0.0,0.0,0.0,0.0,0.0,0.0,0.0,0.0,0.0,0.0,0.0,0.0,0.0,0.0,0.0,0.0,0.0,0.0,0.0,0.0,0.0,0.0,0.0,0.0,0.0,0.0,0.0,0.0,0.0,0.0,0.0,0.0,-2.8209,0.0,0.0,0.0,0.0,0.0,0.0,0.0,0.0,0.0,0.0,0.0,0.0,0.0,0.0,0.0,0.0,0.0,0.0,0.0,0.0,0.0,0.0,0.0,0.0,0.0,0.0,0.0,0.0,0.0,0.0,0.0,0.0,0.0,0.0,0.0,0.0,0.0,0.0,0.0,0.0,0.0,-2.619,-2.8891,-3.1061,-3.2599,-3.245,-3.1878,-3.0992,-2.9697,-2.7905,-2.5546,0.0,0.0,0.0,0.0,0.0,0.0,0.0,0.0,0.0,0.0,0.0,0.0,0.0,0.0,0.0,0.0,0.0,0.0,0.0,0.0,0.0,0.0,0.0,0.0,0.0,0.0,0.0,0.0,0.0,0.0,0.0,0.0,0.0,0.0,0.0,0.0,0.0,0.0,0.0,0.0,0.0,0.0,0.0,0.0,0.0,0.0,0.0,0.0,0.0,0.0,0.0,0.0,0.0,0.0,0.0,0.0,0.0,0.0,0.0,0.0,0.0,-2.9292,0.0,0.0,0.0,0.0,0.0,0.0,0.0,0.0,0.0,0.0,0.0,0.0,0.0,0.0,0.0,0.0,0.0,0.0,0.0,0.0,0.0,0.0,0.0,0.0,0.0,0.0,0.0,0.0,0.0,0.0,0.0,0.0,0.0,0.0,0.0,0.0,0.0,0.0,0.0,0.0,-2.6304,-2.8782,-3.0785,-3.2341,-3.2282,-3.1699,-3.06,-2.9729,-2.8224,-2.5834,-2.3188,0.0,0.0,0.0,0.0,0.0,0.0,0.0,0.0,0.0,0.0,0.0,0.0,0.0,0.0,0.0,0.0,0.0,0.0,0.0,0.0,0.0,0.0,0.0,0.0,0.0,0.0,0.0,0.0,0.0,0.0,0.0,0.0,0.0,0.0,0.0,0.0,0.0,0.0,0.0,0.0,0.0,0.0,0.0,0.0,0.0,0.0,0.0,0.0,0.0,0.0,0.0,0.0,0.0,-3.5963,-3.5879,-3.5439,-3.6087,-3.5966,-3.5164,-3.3607,-3.2677,-3.2131,0.0,0.0,0.0,0.0,0.0,0.0,0.0,0.0,0.0,0.0,0.0,0.0,0.0,0.0,0.0,0.0,0.0,0.0,0.0,0.0,0.0,0.0,0.0,0.0,0.0,-2.8729,-2.8381,0.0,0.0,0.0,0.0,0.0,0.0,0.0,0.0,0.0,0.0,0.0,0.0,-2.6388,-2.8659,-3.0577,-3.2107,-3.2265,-3.1684,-3.0198,-2.9763,-2.8631,-2.6351,-2.4398,-2.2639,0.0,0.0,0.0,0.0,0.0,0.0,0.0,0.0,0.0,0.0,0.0,0.0,0.0,0.0,0.0,0.0,0.0,0.0,0.0,0.0,0.0,0.0,0.0,0.0,0.0,0.0,0.0,0.0,0.0,0.0,0.0,0.0,-2.6479,-2.7376,0.0,0.0,0.0,0.0,0.0,0.0,0.0,0.0,0.0,0.0,0.0,0.0,0.0,0.0,-3.5807,-3.7366,-3.8183,-3.8233,-3.9799,-4.0435,-4.0189,-4.0299,-3.9993,-3.941,-3.9157,0.0,-3.5514,-3.3844,0.0,0.0,0.0,0.0,0.0,0.0,0.0,0.0,0.0,0.0,0.0,0.0,0.0,0.0,0.0,0.0,0.0,0.0,0.0,0.0,0.0,0.0,-3.1259,-2.9735,-2.9981,-3.0234,0.0,-2.6734,-2.416,-2.1532,0.0,0.0,0.0,0.0,0.0,0.0,0.0,0.0,-2.6703,-2.8322,-2.9718,-3.1217,-3.137,-3.0889,-2.9694,-2.9535,-2.882,-2.7149,-2.5485,-2.4191,-2.3312,-2.0622,0.0,0.0,0.0,0.0,0.0,0.0,0.0,0.0,0.0,0.0,0.0,0.0,0.0,0.0,0.0,0.0,0.0,0.0,0.0,0.0,0.0,0.0,0.0,0.0,0.0,0.0,0.0,0.0,0.0,-2.6888,-2.876,-2.9108,-2.9953,-3.0008,0.0,0.0,0.0,0.0,0.0,0.0,0.0,0.0,0.0,-3.7147,-3.7205,-3.8425,-4.1001,-4.147,-4.205,-4.2763,-4.3542,-4.3724,-4.336,-4.336,-4.3003,-4.2374,-4.1948,-4.1103,-3.9786,-3.7127,-3.552,-3.4486,0.0,0.0,0.0,0.0,-3.1916,-3.2375,-3.3421,-3.3476,0.0,0.0,0.0,0.0,0.0,0.0,0.0,0.0,0.0,0.0,0.0,0.0,0.0,-3.1972,-3.2412,-3.2768,-3.1969,-3.0693,-2.8651,0.0,-2.399,-2.2916,-2.0311,0.0,0.0,0.0,0.0,0.0,-2.7265,-2.8761,-3.0023,-3.1089,-3.119,-3.0677,-2.933,-2.9386,-2.8682,-2.6715,-2.5714,-2.4921,-2.4352,-2.206,-1.979,0.0,0.0,0.0,0.0,0.0,0.0,0.0,0.0,0.0,0.0,0.0,0.0,0.0,0.0,0.0,0.0,0.0,0.0,0.0,0.0,0.0,0.0,0.0,0.0,0.0,0.0,0.0,0.0,-2.928,-3.0889,-3.1109,-3.2742,-3.3128,0.0,0.0,0.0,0.0,0.0,0.0,-3.5732,-3.6531,-3.8093,-4.056,-4.0363,-4.1587,-4.4486,-4.4077,-4.4385,-4.5434,-4.5605,-4.5395,-4.4818,-4.5001,-4.4632,-4.3844,-4.3286,-4.2916,-4.2458,-3.9599,-3.7975,-3.7147,-3.5636,-3.4688,-3.4234,-3.4835,-3.5183,-3.5605,-3.7254,-3.7547,-3.7019,-3.5771,0.0,-3.2004,-2.967,0.0,0.0,0.0,0.0,-3.1146,-3.2065,-3.3049,-3.3791,-3.3688,-3.4285,-3.4637,-3.3827,-3.3406,-3.2052,0.0,-2.7378,-2.6259,-2.3159,0.0,0.0,0.0,0.0,-2.6855,-2.7977,-2.9279,-3.0378,-3.1123,-3.1021,-3.0395,-2.9111,-2.904,-2.8301,-2.6517,-2.5764,-2.5208,-2.4884,-2.3206,-2.1293,-1.9152,0.0,0.0,0.0,0.0,0.0,0.0,0.0,0.0,0.0,0.0,0.0,0.0,0.0,0.0,0.0,0.0,0.0,0.0,0.0,0.0,0.0,0.0,0.0,0.0,0.0,0.0,0.0,0.0,0.0,-3.3532,-3.5766,0.0,0.0,0.0,0.0,-3.4153,-3.6744,-3.8257,-3.796,-4.0654,-4.2362,-4.2656,-4.3355,-4.3854,-4.4018,-4.4081,-4.4099,-4.4112,-4.4797,-4.4755,-4.4089,-4.4695,-4.4351,-4.3242,-4.3207,-4.2774,-4.202,-4.0642,-4.0059,-3.9914,-3.8864,-3.8432,-3.8395,-3.845,-3.8946,-3.9496,-3.8854,-3.9111,-3.9698,-3.9606,-3.7637,-3.4893,-3.2727,-3.1364,0.0,0.0,-3.1927,-3.3029,-3.3348,-3.4588,-3.5469,-3.4347,-3.4686,-3.5035,-3.4231,-3.3719,-3.2721,0.0,-2.9447,-2.8564,-2.731,0.0,-2.6488,-2.6437,-2.7148,-2.801,-2.884,-2.9617,-3.0378,-3.1123,-3.0581,-2.9837,-2.9077,-2.8316,-2.7709,-2.7272,-2.5848,-2.5045,-2.5077,-2.3837,-2.2123,-1.9992,-1.878,0.0,0.0,0.0,0.0,0.0,0.0,0.0,0.0,0.0,0.0,0.0,0.0,0.0,0.0,0.0,0.0,0.0,0.0,0.0,0.0,0.0,0.0,0.0,0.0,0.0,0.0,0.0,0.0,-3.7514,-3.9423,0.0,0.0,-3.925,-3.983,-3.9027,-4.083,-4.1965,-4.1898,-4.292,-4.401,-4.5076,-4.497,-4.5583,-4.7007,-4.663,-4.6385,-4.6306,-4.6582,-4.6298,-4.5552,-4.5782,-4.5452,-4.4637,-4.4177,-4.3838,-4.3489,-4.24,-4.189,-4.1756,-4.1221,-4.0783,-4.0488,-4.0868,-4.0949,-4.096,-4.1562,-4.1644,-4.1277,-4.023,-3.8834,-3.7325,-3.6043,-3.5378,-3.5026,-3.4776,-3.5045,-3.5425,-3.5368,-3.5787,-3.6015,-3.5249,-3.5279,-3.542,-3.5121,-3.4805,-3.4344,-3.3585,-3.1824,-2.9954,-2.8327,-2.8117,-2.7994,-2.7503,-2.8466,-2.9379,-2.9668,-3.0345,-3.0903,-3.1157,-3.0548,-2.9803,-2.9061,-2.8264,-2.7335,-2.6275,-2.5234,-2.4567,-2.4341,-2.3243,-2.2125,-2.1046,-1.9954,-1.7882,0.0,0.0,0.0,0.0,0.0,0.0,0.0,0.0,0.0,0.0,0.0,0.0,0.0,0.0,0.0,0.0,0.0,0.0,0.0,0.0,0.0,0.0,0.0,0.0,0.0,0.0,-3.8505,-4.0102,-4.2194,-4.283,-4.1121,-4.2504,-4.3229,-4.257,-4.405,-4.4878,-4.4589,-4.4998,-4.5653,-4.6516,-4.6079,-4.6589,-4.8041,-4.7817,-4.7575,-4.7335,-4.7512,-4.71,-4.6166,-4.6137,-4.5757,-4.5188,-4.4672,-4.432,-4.4019,-4.3557,-4.3045,-4.2481,-4.2449,-4.2178,-4.1901,-4.2304,-4.2304,-4.2232,-4.3173,-4.3149,-4.2419,-4.0721,-3.9921,-3.9389,-3.8043,-3.7896,-3.8016,-3.7303,-3.7033,-3.6945,-3.6824,-3.6439,-3.6075,-3.592,-3.5739,-3.56,-3.56,-3.5462,-3.5273,-3.4998,-3.3251,-3.142,-3.0162,-2.9844,-2.955,-2.9042,-2.982,-3.048,-3.048,-3.0903,-3.119,-3.119,-3.0548,-2.9803,-2.9061,-2.8027,-2.6911,-2.5677,-2.4661,-2.4003,-2.3752,-2.281,-2.215,-2.1842,-2.0377,-1.8544,-1.6339,0.0,0.0,0.0,0.0,0.0,0.0,0.0,0.0,0.0,0.0,0.0,0.0,0.0,0.0,0.0,0.0,0.0,0.0,0.0,0.0,0.0,0.0,0.0,-3.505,-3.8603,-4.1187,-4.128,-4.405,-4.5112,-4.2996,-4.4726,-4.5552,-4.4462,-4.6187,-4.6855,-4.5801,-4.6968,-4.7402,-4.6849,-4.6819,-4.6836,-4.6853,-4.7442,-4.7442,-4.6849,-4.7361,-4.6943,-4.5715,-4.5583,-4.5186,-4.4615,-4.4615,-4.4175,-4.3518,-4.4061,-4.3487,-4.2235,-4.2578,-4.271,-4.2692,-4.2711,-4.305,-4.3515,-4.3515,-4.3515,-4.3211,-4.1391,-4.1141,-4.1115,-3.8756,-3.8759,-3.9365,-3.8277,-3.778,-3.7559,-3.7521,-3.6571,-3.5773,-3.6266,-3.5985,-3.56,-3.56,-3.5622,-3.5402,-3.4675,-3.3736,-3.3053,-3.3002,-3.2017,-3.1224,-3.119,-3.119,0.0,-3.119,-3.119,-3.119,-3.119,-3.0548,-2.9803,-2.9079,-2.7588,-2.6386,-2.5642,-2.422,-2.3376,-2.3359,-2.2682,-2.2296,-2.2296,-2.0078,-1.8572,-1.7834,0.0,0.0,0.0,0.0,0.0,0.0,0.0,0.0,0.0,0.0,0.0,0.0,0.0,0.0,0.0,0.0,0.0,0.0,0.0,0.0,0.0,0.0,-3.9006,-3.8736,-4.0588,-4.29,-4.537,-4.6416,-4.6963,-4.7084,-4.7599,-4.741,-4.6203,-4.7036,-4.727,-4.654,-4.6855,-4.7211,-4.7597,-4.7614,-4.7868,-4.8392,-4.854,-4.8269,-4.7614,-4.7756,-4.7062,-4.5703,-4.5648,-4.5258,-4.4615,-4.4615,-4.4705,-4.4879,-4.4475,-4.4356,-4.4341,-4.3742,-4.2905,-4.2162,-4.2977,-4.3375,-4.3515,-4.3515,-4.3515,-4.3408,-4.2886,-4.2831,-4.2721,-4.1468,-4.1307,-4.127,-4.0006,-3.9312,-3.8746,-3.7812,-3.7009,-3.6361,-3.5902,-3.5694,-3.56,-3.56,-3.5898,-3.6002,-3.5401,-3.4974,-3.4204,-3.2744,-3.2224,-3.1819,-3.1275,-3.119,0.0,-3.119,-3.119,-3.119,-3.119,-3.0548,-2.99,-2.9403,-2.7726,-2.628,0.0,-2.4079,-2.3156,-2.2617,-2.2398,-2.2296,-2.2296,-2.0589,-1.9338,0.0,0.0,0.0,0.0,0.0,0.0,0.0,0.0,0.0,0.0,0.0,0.0,0.0,0.0,0.0,0.0,0.0,0.0,0.0,0.0,0.0,0.0,-3.9323,-4.1542,-4.2528,-4.3888,-4.5442,-4.7157,-4.7919,-4.8297,-4.8344,-4.8541,-4.8286,-4.7344,-4.7826,-4.8014,-4.7729,-4.7716,-4.7919,-4.8359,-4.8376,-4.8578,-4.9001,-4.9001,-4.8781,-4.8376,-4.8041,-4.731,-4.616,-4.5838,-4.5297,0.0,-4.4615,-4.4786,-4.5081,-4.4626,-4.4449,0.0,0.0,0.0,0.0,0.0,-4.3357,-4.3196,-4.3427,-4.3515,-4.3462,-4.3232,-4.3322,-4.3318,-4.2377,-4.2268,-4.2196,-4.0897,-4.0097,-3.9448,-3.8669,-3.7643,-3.6723,-3.6478,-3.5982,-3.56,-3.56,-3.5832,-3.5968,-3.565,0.0,0.0,-3.3062,-3.2513,-3.2056,-3.1309,-3.119,-3.119,0.0,-3.119,-3.119,-3.119,-3.0818,-3.0221,-2.935,-2.7981,0.0,0.0,0.0,-2.3071,-2.233,-2.2296,0.0,0.0,0.0,0.0,0.0,0.0,0.0,0.0,-1.7676,-1.7388,0.0,0.0,0.0,0.0,0.0,0.0,0.0,0.0,0.0,0.0,0.0,0.0,0.0,0.0,0.0,0.0,-4.1651,-4.3017,-4.5837,-4.7506,-4.8211,-4.7551,-4.8731,-4.9172,-4.806,-4.8435,-4.8545,-4.806,-4.8511,-4.8872,-4.8981,0.0,0.0,0.0,0.0,-4.9001,-4.9001,-4.9001,-4.9001,-4.9001,-4.8359,-4.7597,-4.6769,-4.6126,-4.5382,-4.4615,-4.4615,-4.4615,-4.4615,-4.4615,-4.4118,-4.3348,-4.2958,-4.3187,-4.3746,-4.3488,-4.316,0.0,0.0,0.0,0.0,-4.2939,-4.3105,-4.3321,-4.2286,-4.2382,-4.2578,-4.1495,-4.069,-4.0065,-3.9825,-3.8408,-3.7075,-3.7323,-3.6485,-3.56,-3.56,-3.5667,-3.5672,-3.5622,-3.5694,-3.5285,-3.3681,-3.2848,-3.2158,-3.1309,-3.119,0.0,-3.119,-3.119,-3.119,-3.119,0.0,0.0,-2.9184,-2.8282,-2.7182,-2.5758,-2.432,-2.3224,-2.2581,-2.2465,-2.2415,-2.2415,-2.233,-2.2296,-2.2296,-2.2296,-2.2296,-2.2212,-1.8877,-1.8386,0.0,0.0,0.0,0.0,0.0,0.0,0.0,0.0,0.0,0.0,0.0,0.0,0.0,0.0,0.0,-4.1162,-4.3961,-4.6083,-4.6326,-4.8133,-4.919,-4.8567,-4.8766,-4.9137,-4.953,-4.9193,-4.8899,-4.8781,-4.8887,-4.8968,-4.9001,-4.9001,0.0,-4.9001,-4.9001,-4.9001,-4.9001,-4.9001,-4.9001,-4.9001,0.0,0.0,-4.6786,-4.665,-4.5855,-4.4615,-4.4615,-4.4615,-4.4615,-4.4615,-4.4051,-4.3156,-4.251,-4.252,-4.2929,-4.288,-4.305,-4.3375,-4.3462,-4.3515,-4.3479,-4.3375,-4.341,-4.3462,-4.3232,-4.3249,0.0,-4.3051,-4.2587,-4.1843,-4.0517,-3.9253,-3.8044,-3.6876,-3.6087,-3.56,-3.56,-3.5941,-3.6118,-3.5672,-3.6312,-3.6155,-3.3811,-3.3288,-3.2747,-3.1393,-3.119,-3.119,-3.119,-3.119,-3.119,-3.119,-3.119,-3.0717,-2.9506,-2.8424,-2.7318,-2.6146,-2.4946,-2.422,-2.4085,-2.3494,-2.319,-2.319,-2.26,-2.2296,-2.2296,-2.2296,-2.2296,-2.2279,-2.1566,-2.1451,0.0,0.0,0.0,0.0,0.0,0.0,0.0,0.0,0.0,0.0,0.0,-3.6138,0.0,0.0,-4.2256,-4.3979,-4.5667,-4.6906,-4.7365,-4.8229,-4.8802,-4.8811,-4.9142,-4.9436,-4.9499,-4.9212,-4.9001,-4.9001,-4.9001,-4.9001,-4.9001,-4.9001,-4.9001,-4.9001,-4.9001,-4.9001,-4.9001,-4.9001,-4.9001,-4.9001,-4.9001,-4.8426,-4.7344,-4.6972,-4.6194,-4.5128,-4.4767,-4.4615,-4.4615,-4.4615,-4.3875,-4.2698,-4.2338,-4.2031,-4.1874,-4.248,-4.2675,-4.2696,-4.2995,-4.3268,-4.3515,-4.3515,-4.3515,-4.3515,-4.3515,-4.3515,-4.3444,-4.3178,-4.2902,-4.2455,-4.1339,-4.0078,-3.8828,-3.7801,-3.6758,-3.592,-3.565,-3.5827,-3.592,-3.5667,-3.6032,-3.5766,-3.3765,-3.3406,-3.2899,-3.141,-3.119,-3.119,-3.119,-3.119,-3.119,-3.119,-3.119,-3.083,-2.9895,-2.8767,-2.7467,-2.5994,-2.5546,-2.5079,-2.4523,-2.4152,-2.3949,-2.3949,-2.3594,-2.3393,-2.3393,-2.3393,-2.3393,-2.3393,-2.3393,-2.319,0.0,0.0,0.0,0.0,0.0,0.0,0.0,0.0,-3.4234,-3.5848,-3.7514,-3.9273,-4.1222,-4.2488,-4.4051,-4.6551,-4.7003,-4.7339,-4.8247,-4.8334,-4.8419,-4.8804,-4.9413,-4.9593,-4.9046,-4.9001,-4.9001,-4.9001,-4.9001,-4.9001,-4.9001,-4.9001,-4.9001,-4.9001,-4.9001,-4.9001,-4.9001,-4.9001,-4.9001,-4.9001,-4.9001,-4.8612,-4.7855,-4.7141,-4.6397,-4.5669,-4.4936,-4.4615,-4.4615,-4.4615,-4.3701,-4.2313,-4.2428,-4.1757,-4.0874,-4.1958,-4.2121,-4.1895,-4.248,-4.2976,-4.3375,-4.348,-4.3515,-4.3515,-4.3515,-4.3515,-4.341,-4.2976,-4.2864,-4.2715,-4.2067,-4.078,-3.9478,-3.8786,-3.7575,-3.6416,-3.5876,-3.5832,-3.592,-3.592,-3.592,-3.542,-3.3832,-3.3556,-3.3005,-3.143,-3.119,-3.123,-3.131,-3.1249,-3.123,-3.131,-3.1249,-3.0903,-3.0176,-2.8972,-2.7637,-2.6132,-2.6199,-2.5901,-2.4963,-2.4795,-2.4711,-2.4711,-2.4575,-2.4491,-2.4491,-2.4491,-2.4491,-2.4491,-2.4491,-2.4186,-3.3256,-3.2265,0.0,-3.3959,-3.3935,-3.4559,0.0,0.0,-3.8472,-4.0086,-4.1699,-4.2927,-4.3167,-4.5057,-4.653,-4.6501,-4.8027,-4.8946,-4.8077,-4.8958,-4.9507,-4.9039,-4.9057,-4.9077,-4.9001,-4.9001,-4.9001,-4.9001,-4.9001,-4.9001,-4.9001,-4.9001,-4.9001,-4.9001,-4.9001,-4.9001,-4.9001,-4.9001,-4.9001,-4.9001,-4.9001,-4.8612,-4.7855,-4.7141,-4.6397,-4.5669,-4.4936,-4.4615,-4.4615,-4.4615,-4.3701,-4.2366,-4.2885,-4.1925,-4.0262,-4.0874,-4.1402,-4.1895,-4.248,-4.275,-4.2864,-4.3357,-4.3515,-4.3515,-4.3515,-4.3515,-4.3497,-4.3427,-4.341,-4.3227,-4.2461,-4.1233,-3.9912,-3.872,-3.7752,-3.6962,-3.6437,-3.6684,-3.702,-3.702,-3.702,-3.641,-3.4463,-3.4105,-3.3449,-3.1489,-3.119,-3.1332,-3.1696,-3.143,-3.1332,-3.1696,-3.1411,-3.0903,-3.0176,-2.874,-2.7775,-2.757,-2.6979,-2.6589,-2.6471,-2.5828,-2.549,-2.549,-2.4829,-2.4491,-2.4491,-2.4491,-2.4491,-2.4491,-2.4491,-2.4457,-3.6652,0.0,0.0,0.0,-3.7257,-3.801,-4.0526,-4.0581,-4.0691,-4.2765,-4.3736,-4.4488,-4.5424,-4.6415,-4.7364,0.0,-4.9031,-4.9523,-4.9106,-4.9218,-4.9084,-4.8429,-4.7986,-4.8054,-4.8917,-4.9001,-4.9001,-4.9001,-4.9001,-4.9001,-4.9001,-4.9001,-4.9001,-4.9001,-4.9001,-4.9001,-4.9001,-4.9001,-4.9001,-4.9001,-4.9001,-4.8849,-4.8511,-4.7327,-4.6143,-4.5026,-4.475,-4.4615,-4.4615,-4.4615,-4.3927,-4.2922,-4.2756,-4.1886,-4.0739,-4.0858,-4.1064,-4.1358,-4.1958,-4.242,-4.2788,-4.3339,-4.3515,-4.3515,-4.3515,-4.3515,-4.3515,-4.3515,-4.3515,-4.3423,-4.3075,-4.1894,-4.0489,-3.9357,-3.8342,-3.7396,-3.6563,-3.6823,-3.7209,-3.7209,-3.696,-3.6315,-3.5074,-3.422,-3.3405,-3.2404,-3.1855,-3.1526,-3.1451,-3.1507,-3.1509,-3.1468,-3.131,-3.1004,-3.05,-2.9627,-2.8882,-2.8235,-2.7687,-2.7194,-2.6725,-2.6404,-2.6234,-2.6234,-2.593,-2.5794,-2.5794,-2.5794,-2.5794,-2.5794,-2.5794,-2.5794,-3.8157,0.0,0.0,-3.9111,-3.9974,-4.0763,-4.1589,-4.1772,-4.2268,-4.4011,-4.4562,-4.5058,-4.6214,-4.6801,0.0,-4.8769,-4.9543,-4.9834,-4.9368,-4.9222,-4.8792,-4.7734,-4.7124,-4.7208,-4.8291,-4.8578,-4.8781,-4.8984,-4.9001,-4.9001,-4.9001,-4.9001,-4.9001,-4.9001,-4.9001,-4.9001,-4.9001,-4.9001,-4.9001,-4.9001,-4.9001,-4.9001,-4.8951,-4.7462,-4.602,-4.4615,-4.4615,-4.4615,-4.4615,-4.4615,-4.413,-4.3325,-4.2591,-4.1847,-4.1154,-4.082,-4.0679,-4.0797,-4.1534,-4.2101,-4.2578,-4.3268,-4.3515,-4.3515,-4.3515,-4.3515,-4.3515,-4.3515,-4.3515,-4.3515,-4.3515,-4.2304,-4.0859,-3.9844,-3.8833,-3.7843,-3.6843,-3.7135,-3.7614,-3.7614,-3.7095,-3.6349,-3.5528,-3.4392,-3.3439,-3.2941,-3.2476,-3.2039,-3.1601,-3.1696,-3.1696,-3.1408,-3.137,-3.1322,-3.122,-3.0445,-2.964,-2.8841,-2.8028,-2.7365,-2.689,-2.6758,-2.6758,-2.6857,-2.6758,-2.6691,-2.6691,-2.6691,-2.6691,-2.6691,-2.6691,-2.6691,0.0,0.0,-3.9038,-4.0618,-4.1644,-4.2433,-4.3239,-4.3441,-4.346,-4.3533,-4.4158,-4.4709,-4.4746,-4.6049,-4.7161,-4.7337,-4.9279,-5.0065,-4.8049,-4.9039,-4.9197,-4.7092,-4.6802,-4.6802,0.0,-4.7513,-4.824,-4.8951,-4.9001,-4.9001,-4.9001,-4.9001,-4.9001,-4.9001,-4.9001,-4.9001,-4.9001,-4.9001,-4.9001,-4.9001,-4.9001,-4.9001,-4.8951,-4.7462,-4.602,-4.4615,-4.4615,-4.4615,-4.4615,-4.4615,-4.413,-4.3325,-4.2591,-4.1847,-4.1119,-4.0409,-4.0121,-4.0279,-4.142,-4.181,-4.2021,-4.3123,-4.3515,-4.3515,-4.3515,-4.3515,-4.3515,-4.3515,-4.3515,-4.3515,-4.3515,-4.2304,-4.0859,-3.9844,-3.9138,-3.8401,-3.7396,-3.7965,-3.8643,-3.8643,-3.7843,-3.6843,-3.5771,-3.4746,-3.3722,-3.2665,-3.2874,-3.2999,-3.2517,-3.2074,-3.1807,-3.1789,-3.1789,-3.1969,-3.2415,-3.071,-2.9588,-2.9571,-2.7775,-2.6906,-2.7272,-2.6906,-2.689,-2.727,-2.6906,-2.6691,-2.6691,-2.6691,-2.6691,-2.6691,-2.6691,-2.6691,0.0,0.0,-4.0689,-4.2286,-4.3296,-4.3975,-4.4232,-4.4305,-4.4305,-4.4305,-4.4525,-4.4874,-4.5406,-4.5938,-4.6653,-4.7778,-4.9105,-4.9634,-4.8572,-4.9331,-4.903,-4.6396,-4.6075,0.0,0.0,0.0,0.0,-4.8193,-4.8291,-4.8494,-4.8984,-4.9001,-4.9001,-4.9001,-4.9001,-4.9001,-4.9001,-4.9001,-4.9001,-4.9001,-4.9001,-4.8494,-4.7513,-4.7022,-4.602,-4.4615,-4.4615,-4.4615,-4.4615,-4.4615,-4.413,-4.3325,-4.2591,-4.1847,-4.1119,-4.0383,-4.0096,-4.0204,-4.0943,-4.1468,-4.1937,-4.2714,-4.3214,-4.3515,-4.3515,-4.3515,-4.3515,-4.3515,-4.3515,-4.3515,-4.3515,-4.269,-4.1584,-4.0365,-3.978,-3.917,-3.7933,-3.8218,-3.8578,-3.8251,-3.7649,-3.6892,-3.5972,-3.4861,-3.374,-3.2647,-3.2366,-3.2332,-3.2484,-3.2092,-3.1807,-3.1807,-3.2074,-3.245,-3.2919,-3.1131,-3.0011,-3.0059,-2.8448,-2.7441,-2.7319,-2.7178,-2.7162,-2.7303,-2.6906,-2.6691,-2.6691,-2.6691,-2.6691,-2.6691,-2.6691,-2.6691,0.0,-4.0928,-4.1919,-4.3534,-4.4323,-4.4691,-4.4691,-4.4488,-4.4268,-4.4268,-4.4048,-4.4103,-4.4892,-4.48,-4.5223,-4.7131,-4.8379,-4.8951,-4.8424,-4.9255,-4.898,-4.6408,-4.6051,0.0,0.0,0.0,0.0,-4.7821,-4.8125,-4.8511,-4.8984,-4.9001,-4.9001,-4.9001,-4.9001,-4.9001,-4.9001,-4.9001,-4.9001,-4.9001,-4.8731,-4.797,-4.6786,-4.6532,-4.5737,-4.4615,-4.4615,-4.4615,-4.4615,-4.4615,-4.4282,-4.3724,-4.2692,-4.1999,-4.1474,-4.0485,-4.0096,-4.0196,-4.0709,-4.1291,-4.1895,-4.25,-4.2939,-4.325,-4.3444,-4.3375,-4.325,-4.3444,-4.3515,-4.3515,-4.3515,-4.2892,-4.1965,-4.0619,-4.0101,-3.9532,-3.8194,-3.8316,-3.8611,-3.8249,-3.779,-3.7238,-3.6574,-3.5331,-3.4196,-3.3492,-3.2776,-3.2349,-3.2484,-3.2248,-3.2109,-3.2281,-3.2565,-3.2856,-3.3166,-3.1769,-3.0701,-3.0295,-2.9042,-2.8134,-2.7722,-2.7439,-2.7363,-2.75,-2.6988,-2.6691,-2.6691,-2.6691,-2.6691,-2.6691,-2.6691,-2.6691,-4.0783,-4.1809,-4.2818,-4.4416,-4.4783,-4.4746,-4.4746,-4.414,-4.3551,-4.346,-4.28,-4.2451,0.0,0.0,-4.302,-4.5388,-4.7205,-4.8129,-4.7672,-4.8952,-4.915,0.0,0.0,0.0,0.0,0.0,0.0,-4.7838,0.0,-4.8968,-4.9001,-4.9001,-4.9001,-4.9001,-4.9001,-4.9001,-4.9001,-4.9001,-4.9001,-4.9001,-4.8257,-4.7513,-4.6769,-4.6041,-4.5297,-4.4615,-4.4615,-4.4615,-4.4615,-4.4615,-4.4581,-4.4395,-4.2905,-4.2269,-4.2066,-4.0637,-4.0096,-4.0154,-4.0679,-4.1268,-4.1895,-4.244,-4.2655,-4.2789,-4.3303,-4.3087,-4.2826,-4.3357,-4.3515,-4.3515,-4.3515,-4.2928,-4.202,-4.0672,-4.0154,-3.9587,-3.8228,-3.835,-3.8692,-3.8658,-3.8214,-3.7757,-3.7497,-3.6087,-3.499,-3.4976,-3.3975,-3.306,-3.2599,-3.2534,-3.2697,-3.3136,-3.3199,-3.3214,-3.3229,-3.2506,-3.1556,-3.0366,-2.9565,-2.8923,-2.8484,-2.7736,-2.7515,-2.7926,-2.7115,-2.6708,-2.6725,-2.6708,-2.6691,-2.6691,-2.6691,-2.6691,-4.2451,-4.3479,-4.4471,-4.6085,-4.6049,-4.559,-4.559,-4.4966,-4.4048,-4.2855,-4.1974,-4.1295,0.0,0.0,0.0,-4.3809,-4.6471,0.0,-4.7672,-4.9859,0.0,0.0,0.0,-4.7903,-4.6908,-4.731,0.0,0.0,-4.8058,-4.8426,-4.8968,-4.9001,-4.9001,-4.9001,-4.9001,-4.9001,-4.9001,-4.9001,-4.9001,-4.9001,-4.8257,-4.7513,-4.6769,-4.6041,-4.5297,-4.4615,-4.4615,-4.4615,-4.4615,-4.4615,-4.4231,-4.3623,-4.2658,-4.1965,-4.1373,-4.0451,-4.0096,-4.0121,-4.0254,-4.0961,-4.175,-4.1468,-4.1958,-4.2731,-4.2864,-4.2807,-4.2826,-4.3357,-4.3515,-4.3515,-4.3515,-4.3349,-4.282,-4.1272,-4.0846,-4.0382,-3.8823,-3.8593,-3.8578,-3.8183,-3.751,-3.699,-3.6924,-3.5845,-3.4906,-3.4591,-3.4051,-3.3508,-3.3075,-3.3014,-3.306,-3.3184,-3.3199,-3.3317,-3.3606,-3.2385,-3.1589,-3.1621,-3.0272,-2.9418,-2.9299,-2.8294,-2.7908,-2.8277,-2.7238,-2.6841,-2.7147,-2.6841,-2.6691,-2.6691,-2.6691,-2.6691,-4.3681,-4.4874,-4.5975,-4.6874,-4.6507,-4.581,-4.5461,-4.4488,-4.3185,-4.157,-4.0616,0.0,0.0,0.0,0.0,0.0,0.0,0.0,-4.8404,-5.0254,-5.0825,0.0,-4.9085,0.0,-4.8747,-4.8506,-4.848,0.0,-4.854,-4.8578,-4.8984,-4.9001,-4.9001,-4.9001,-4.9001,-4.9001,-4.9001,-4.9001,-4.9001,-4.8984,-4.7919,-4.7192,-4.6752,-4.5686,-4.4976,-4.4615,0.0,-4.4615,-4.4615,-4.4615,-4.413,-4.3325,-4.2591,-4.1847,-4.1119,-4.0383,-4.0096,-4.0096,-4.0096,-4.0672,-4.1358,-4.1018,-4.1358,-4.2,-4.2539,-4.2519,-4.2462,-4.3286,-4.3515,-4.3515,-4.3515,-4.3515,-4.3075,-4.148,-4.1095,-4.0655,-3.9056,-3.8707,-3.8611,-3.83,-3.7887,-3.7578,-3.7578,-3.6745,-3.5901,-3.5329,-3.4713,-3.411,-3.353,-3.3465,-3.3465,-3.3465,-3.3465,-3.3494,-3.3536,-3.2868,-3.2339,-3.2076,-3.1016,-3.0241,-2.9882,-2.873,-2.821,-2.8407,-2.7631,-2.7332,-2.756,-2.735,-2.7225,-2.7225,-2.7225,-2.7225,-4.4635,-4.5957,-4.7094,-4.7094,-4.6507,-4.5663,-4.4745,-4.3296,-4.1644,-3.9953,0.0,0.0,-3.8102,0.0,-3.9515,-4.2542,0.0,-4.6722,-4.9053,-5.0283,-5.0947,-5.0939,-5.0423,-5.0335,-5.1015,-4.9925,-4.9359,-4.9947,-4.9462,-4.9107,-4.9001,-4.9001,-4.9001,-4.9001,-4.9001,-4.9001,-4.9001,-4.9001,-4.8951,-4.8849,-4.7462,-4.6735,-4.6599,-4.5241,-4.4615,-4.4615,0.0,0.0,-4.4598,-4.4496,-4.4028,-4.3308,-4.2472,-4.1762,-4.1119,-4.0383,-4.0096,-4.0096,-4.0096,-4.04,-4.0803,-4.0803,-4.0833,-4.111,-4.2223,-4.2221,-4.2041,-4.3178,-4.3515,-4.3515,-4.3515,-4.3515,-4.3075,-4.148,-4.1095,-4.0655,-3.9056,-3.8707,-3.8707,-3.8707,-3.8707,-3.8707,-3.8707,-3.8028,-3.7254,-3.656,-3.5642,-3.4747,-3.4045,-3.3862,-3.3807,-3.3807,-3.3748,-3.3592,-3.3302,-3.355,-3.3286,-3.2296,-3.1822,-3.1237,-3.0558,-2.9359,-2.8758,-2.8809,-2.8316,-2.8081,-2.8124,-2.7979,-2.7897,-2.7897,-2.7897,-2.7897,-4.5461,-4.6379,-4.7094,-4.7094,-4.6507,-4.5516,-4.403,-4.247,0.0,0.0,0.0,-3.6285,-3.4908,-3.6336,0.0,-4.0228,0.0,0.0,0.0,0.0,-5.137,0.0,0.0,0.0,0.0,0.0,0.0,0.0,0.0,0.0,-4.9032,-4.9001,-4.9001,-4.9001,-4.9001,-4.9001,-4.9001,-4.9001,-4.8697,-4.8075,-4.7208,-4.6481,-4.5872,-4.4976,-4.4615,-4.4615,0.0,0.0,-4.4564,-4.3876,-4.3538,-4.3257,-4.1931,-4.1322,-4.1119,-4.0383,-4.0096,-4.0096,-4.0096,-4.0171,-4.0254,-4.0254,-4.0528,-4.1041,-4.1729,-4.1895,-4.2041,-4.3178,-4.3515,-4.3515,-4.3515,-4.3515,-4.3075,-4.148,-4.1095,-4.0655,-3.9056,-3.8707,-3.8707,-3.8707,-3.8707,-3.8707,-3.8707,-3.8028,-3.7456,-3.7309,-3.5991,-3.4949,-3.4821,-3.4211,-3.3807,-3.3807,-3.3508,-3.3404,-3.3662,-3.3465,-3.3368,-3.3479,-3.2795,-3.2326,-3.2179,-3.1093,-3.0603,-3.0869,-2.9574,-2.9037,-2.931,-2.8368,-2.7897,-2.7897,-2.7897,-2.7897,-4.5792,-4.6801,-4.7608,-4.7204,-4.6507,-4.5259,-4.2818,0.0,0.0,0.0,0.0,-3.4137,-3.3316,0.0,0.0,0.0,0.0,0.0,0.0,0.0,0.0,0.0,0.0,0.0,0.0,0.0,0.0,0.0,0.0,0.0,-4.9032,-4.9001,-4.9001,-4.9001,-4.9001,-4.9001,-4.9001,-4.9001,-4.8646,-4.7872,-4.7141,-4.6413,-4.5669,-4.4953,-4.4615,-4.4615,-4.4615,0.0,-4.4547,-4.3741,-4.3156,-4.2726,-4.1644,-4.0967,-4.0578,-4.0231,-4.0096,-4.0096,-4.0096,-4.0096,-4.0096,-4.0096,-4.0473,-4.1018,-4.1621,-4.2021,-4.2442,-4.3268,-4.3515,-4.3515,-4.3515,-4.3515,-4.3075,-4.148,-4.0453,-3.9643,-3.8872,-3.8707,-3.8707,-3.8707,-3.8707,-3.8707,-3.8707,-3.8377,-3.7988,-3.7566,-3.645,-3.55,-3.5059,-3.4289,-3.3807,-3.3807,-3.3638,-3.3578,-3.3775,-3.362,-3.3592,-3.3793,-3.3041,-3.2601,-3.2601,-3.167,-3.1232,-3.1403,-3.027,-2.9761,-2.9902,-2.8938,-2.8469,-2.8469,-2.8469,-2.8469,-4.5645,-4.6691,-4.759,-4.6782,-4.5993,-4.458,-4.1552,-3.946,0.0,0.0,0.0,-3.2339,-3.2339,0.0,0.0,0.0,0.0,0.0,0.0,0.0,0.0,0.0,0.0,0.0,0.0,0.0,0.0,0.0,0.0,0.0,0.0,-4.9001,-4.9001,-4.9001,-4.9001,-4.8934,-4.8781,-4.8765,-4.8325,-4.7415,-4.6836,-4.6177,-4.5449,-4.484,-4.4615,-4.4615,-4.4615,0.0,0.0,-4.3487,-4.2726,-4.1982,-4.1255,-4.0595,-4.0096,-4.0096,-4.0096,-4.0096,-4.0096,-4.0196,-4.0262,-4.0262,-4.0552,-4.1018,-4.1621,-4.2203,-4.2826,-4.3357,-4.3515,-4.3515,-4.3515,-4.3515,-4.3075,-4.148,-3.9866,-3.8707,-3.8707,-3.8707,-3.8707,-3.8707,-3.8707,-3.8707,-3.8707,-3.8707,-3.8487,-3.786,-3.7055,-3.6248,-3.5389,-3.4564,-3.399,-3.3825,-3.3807,-3.3807,-3.3807,-3.3807,-3.3807,-3.3807,-3.322,-3.2858,-3.2858,-3.2247,-3.1911,-3.1911,-3.0944,-3.0467,-3.0448,-2.9482,-2.9005,-2.9005,-2.9005,-2.9005,-4.4801,-4.5461,-4.5938,-4.5131,-4.4323,-4.3057,-4.0579,0.0,0.0,0.0,-3.2063,-3.1513,-3.1513,0.0,0.0,0.0,0.0,0.0,0.0,0.0,0.0,0.0,0.0,0.0,0.0,0.0,0.0,0.0,0.0,0.0,0.0,-4.9001,-4.9001,-4.9001,-4.9001,-4.868,-4.799,-4.799,-4.728,-4.5906,-4.5838,-4.5399,-4.4699,-4.4632,-4.4615,-4.4615,0.0,0.0,0.0,-4.2709,-4.1965,-4.1238,-4.0476,-4.0163,-4.0096,-4.0096,-4.0096,-4.0096,-4.0096,-4.0417,-4.0827,-4.0827,-4.0856,-4.1018,-4.1621,-4.2203,-4.2826,-4.3357,-4.3515,-4.3515,-4.3515,-4.3515,-4.3075,-4.148,-3.9866,-3.8707,-3.8707,-3.8707,-3.8707,-3.8707,-3.8707,-3.8707,-3.8707,-3.8707,-3.867,-3.8597,-3.7915,-3.7107,-3.6285,-3.5426,-3.4619,-3.388,-3.3807,-3.3807,-3.3807,-3.3807,-3.3807,-3.3807,-3.3733,-3.3697,-3.3697,-3.3623,-3.3587,-3.3587,-3.2076,-3.1286,-3.1286,-2.9739,-2.9005,-2.9005,-2.9005,-2.9005,-4.4452,-4.5296,-4.5718,-4.4893,-4.4103,-4.2727,-3.9845,0.0,0.0,-3.2375,-3.0852,-3.0246,-3.1231,-3.1531,0.0,0.0,0.0,0.0,0.0,0.0,0.0,0.0,0.0,0.0,0.0,0.0,0.0,0.0,0.0,0.0,0.0,-4.9568,-4.9853,-4.8982,-4.8936,-4.8377,-4.7242,-4.7242,-4.6718,-4.5703,-4.5703,-4.549,-4.5142,-4.5142,-4.5346,-4.5664,0.0,0.0,0.0,-4.2821,-4.2011,-4.1643,-4.0535,-4.0096,-4.0096,-4.0096,-4.0096,-4.0096,-4.0096,-4.0449,-4.085,-4.0504,-4.1127,-4.2021,-4.2282,-4.2733,-4.3232,-4.3444,-4.3515,-4.3515,-4.3515,-4.2782,-4.1901,-4.1242,-3.9866,-3.8707,-3.8707,-3.8707,-3.8707,-3.8707,-3.8707,-3.8707,-3.8707,-3.8707,-3.8707,-3.8707,-3.8025,-3.7217,-3.6395,-3.5536,-3.4692,-3.3899,-3.3807,-3.3807,-3.3807,-3.3807,-3.3807,-3.3807,-3.3807,-3.3807,-3.3807,-3.3807,-3.3807,-3.3807,-3.2706,-3.188,-3.1397,-3.0265,-2.9464,-2.9005,-2.9005,-2.9005,-4.3626,-4.458,-4.5039,-4.4488,-4.3571,-4.2011,0.0,0.0,-3.3959,-3.1531,-2.9941,-2.9427,-3.0797,-3.0779,-3.1458,0.0,0.0,0.0,0.0,0.0,0.0,0.0,0.0,0.0,0.0,0.0,0.0,0.0,0.0,0.0,0.0,-5.001,-4.9968,-4.8316,-4.8271,-4.7706,-4.6481,-4.6663,-4.6385,-4.5625,-4.5812,-4.5864,-4.5757,-4.5513,-4.5639,-4.6,0.0,0.0,0.0,-4.2717,-4.1868,-4.1415,-4.0475,-4.0096,-4.0121,-4.0286,-4.0336,-4.0336,-4.0336,-4.0703,-4.111,-4.072,-4.1547,-4.2731,-4.2883,-4.3196,-4.3515,-4.3515,-4.3515,-4.3515,-4.3515,-4.2304,-4.1095,-4.1095,-3.9866,-3.8707,-3.8707,-3.8707,-3.8707,-3.8707,-3.8707,-3.8707,-3.8707,-3.8707,-3.8707,-3.8707,-3.8212,-3.7566,-3.6762,-3.5917,-3.5059,-3.4247,-3.3935,-3.3807,-3.3807,-3.3807,-3.3807,-3.3807,-3.3807,-3.3807,-3.3807,-3.3807,-3.3807,-3.3807,-3.3005,-3.232,-3.1751,-3.0705,-2.9916,-2.9354,-2.9115,-2.894,-4.2103,-4.291,-4.3533,-4.3497,-4.2304,-4.0506,0.0,-3.5601,-3.3128,-3.0705,-2.9574,-2.9244,-3.0063,-3.0852,-3.1916,0.0,0.0,0.0,0.0,0.0,0.0,0.0,0.0,0.0,0.0,0.0,0.0,0.0,0.0,0.0,0.0,0.0,-4.8884,-4.6891,-4.6832,-4.6447,-4.572,-4.6313,-4.623,-4.5511,-4.6112,-4.6383,-4.6371,-4.557,-4.5216,0.0,0.0,0.0,0.0,-4.2126,-4.1315,-4.0113,-4.0113,-4.0096,-4.0171,-4.0703,-4.088,-4.088,-4.088,-4.1291,-4.1789,-4.1771,-4.2203,-4.2807,-4.3321,-4.3497,-4.3515,-4.3515,-4.3515,-4.3515,-4.3515,-4.2304,-4.1095,-4.1095,-3.9866,-3.8707,-3.8707,-3.8707,-3.8707,-3.8707,-3.8707,-3.8707,-3.8707,-3.8707,-3.8707,-3.8707,-3.8689,-3.8395,-3.7584,-3.6795,-3.5954,-3.5078,-3.427,-3.3807,-3.3807,-3.3807,-3.3807,-3.3807,-3.3807,-3.3807,-3.3807,-3.3807,-3.3807,-3.3807,-3.3005,-3.2601,-3.2583,-3.098,-3.021,-3.0173,-2.9372,-2.8803,-3.8799,-4.0008,-4.0779,-3.9677,-3.9016,-3.8138,-3.6229,-3.4325,-3.2449,-3.0577,-2.9555,-2.9244,-3.0063,-2.9971,-3.0821,-3.4087,0.0,0.0,0.0,0.0,0.0,0.0,0.0,0.0,0.0,0.0,0.0,0.0,0.0,0.0,0.0,0.0,-4.8206,-4.8037,-4.8037,-4.7446,-4.6199,-4.6365,-4.634,-4.6136,-4.6312,-4.6333,-4.6255,-4.6004,0.0,0.0,0.0,0.0,0.0,-4.289,-4.2267,-4.1828,-4.142,-4.1263,-4.1286,-4.1446,-4.1251,-4.0972,-4.138,-4.1643,-4.181,-4.181,-4.2464,-4.3214,-4.3014,-4.3214,-4.3515,-4.3515,-4.3515,-4.3515,-4.3515,-4.2708,-4.1791,-4.1224,-4.0304,-3.9368,-3.8817,-3.8707,-3.8707,-3.8707,-3.8707,-3.8707,-3.8707,-3.8707,-3.8707,-3.8707,-3.8707,-3.8414,-3.7603,-3.729,-3.6578,-3.5151,-3.4766,-3.4399,-3.3844,-3.3807,-3.3807,-3.3807,-3.3807,-3.3807,-3.3807,-3.3807,-3.3807,-3.3807,-3.355,-3.3146,-3.2601,-3.2087,-3.1568,-3.0999,-3.0191,-3.0039,0.0,-3.8006,-3.8833,-3.8135,-3.7511,-3.6611,-3.4931,-3.3311,-3.1696,-3.0069,-2.9354,-2.9152,-2.9647,-2.9592,-3.0271,-3.2784,0.0,0.0,0.0,0.0,0.0,0.0,0.0,0.0,0.0,0.0,0.0,0.0,0.0,0.0,0.0,0.0,-4.7837,-4.846,-4.8037,-4.7342,-4.6407,-4.6641,-4.6796,-4.6778,-4.6695,-4.6618,-4.6517,-4.5918,0.0,0.0,0.0,0.0,0.0,-4.3044,-4.2577,-4.2322,-4.1937,-4.181,-4.1832,-4.2059,-4.1895,-4.1621,-4.2,-4.2142,-4.2142,-4.2142,-4.2771,-4.3427,-4.3087,-4.3232,-4.3515,-4.3515,-4.3515,-4.3441,-4.313,-4.2451,-4.1644,-4.0836,-4.0029,-3.9313,-3.8817,-3.8707,-3.8707,-3.8707,-3.8707,-3.8707,-3.8707,-3.8707,-3.8707,-3.8707,-3.8707,-3.8524,-3.801,-3.7694,-3.7107,-3.6064,-3.5371,-3.4802,-3.4289,-3.3972,-3.3807,-3.3807,-3.3807,-3.3807,-3.3807,-3.3807,-3.3807,-3.3807,-3.3807,-3.355,-3.3041,-3.2748,-3.2192,-3.1397,-3.0889,-3.076,0.0,-3.6372,-3.7235,-3.7918,-3.7019,-3.5532,-3.3917,-3.2375,0.0,-2.9317,-2.9005,-2.9023,-2.9152,-2.9684,-3.0228,-3.0577,0.0,0.0,0.0,0.0,0.0,0.0,0.0,0.0,0.0,0.0,0.0,0.0,0.0,0.0,0.0,0.0,0.0,-4.8122,-4.6974,-4.6383,-4.6459,-4.706,-4.734,-4.7286,-4.7084,-4.6984,-4.6874,-4.537,0.0,0.0,0.0,0.0,0.0,-4.2769,-4.2422,-4.1937,-4.1937,-4.1937,-4.2,-4.2539,-4.2713,-4.2711,-4.275,-4.2713,-4.2711,-4.2732,-4.3087,-4.3515,-4.3515,-4.3515,-4.3515,-4.3515,-4.346,-4.3239,-4.2488,-4.1699,-4.0893,-4.0084,-3.9331,-3.8781,-3.8707,-3.8707,-3.8707,-3.8707,-3.8707,-3.8707,-3.8707,-3.8707,-3.8707,-3.8707,-3.8707,-3.8707,-3.8707,-3.8046,-3.7566,-3.7511,-3.6064,-3.5078,-3.5023,-3.4266,-3.3807,-3.3807,-3.3807,-3.3807,-3.3807,-3.3807,-3.3807,-3.3807,-3.3807,-3.3807,-3.3807,-3.3041,-3.2302,-3.158,-3.1507,-3.1109,-2.9157,0.0,-3.2737,-3.2302,-3.2375,-3.2296,0.0,-3.076,-3.021,-2.9207,0.0,0.0,-3.0613,-2.9989,0.0,0.0,0.0,0.0,0.0,0.0,0.0,0.0,0.0,0.0,0.0,0.0,0.0,0.0,0.0,0.0,0.0,0.0,0.0,-4.6489,-4.6171,-4.6309,-4.6928,-4.7083,-4.6868,-4.6247,-4.6195,-4.5865,-4.5241,-4.4856,0.0,0.0,0.0,0.0,-4.3303,-4.3303,-4.3214,-4.3105,-4.3105,-4.3105,-4.3105,-4.3268,-4.305,-4.2769,-4.3178,-4.3032,-4.2769,-4.3178,-4.3392,-4.3515,-4.3515,-4.3515,-4.3515,-4.3515,-4.3057,-4.2543,-4.2359,-4.1699,-4.0893,-4.0084,-3.9753,-3.9441,-3.8836,-3.8707,-3.8707,-3.8707,-3.8707,-3.8707,-3.8707,-3.8707,-3.8707,-3.8707,-3.8707,-3.8707,-3.8707,-3.8524,-3.8175,-3.7566,-3.6597,-3.5734,-3.5059,-3.4266,-3.3807,-3.3807,-3.3807,-3.3807,-3.3807,-3.3807,-3.3807,-3.3807,-3.3807,-3.3807,-3.3807,-3.3605,-3.3421,-3.322,-3.2596,-3.2559,-2.6366,-2.8723,-3.0834,-3.076,-3.0797,-3.0834,-3.076,0.0,0.0,0.0,0.0,0.0,0.0,0.0,0.0,0.0,0.0,0.0,0.0,0.0,0.0,0.0,0.0,0.0,0.0,0.0,0.0,0.0,0.0,0.0,0.0,0.0,0.0,0.0,-4.5902,-4.6104,-4.6562,-4.6562,-4.6342,-4.5902,-4.5535,-4.5131,-4.469,-4.4323,0.0,0.0,0.0,0.0,-4.3515,-4.3515,-4.3515,-4.3515,-4.3515,-4.3515,-4.3515,-4.3515,-4.3322,-4.3124,-4.3392,-4.3303,-4.3105,-4.341,-4.3515,-4.3441,-4.3057,-4.2947,-4.2947,-4.2947,-4.2635,-4.2139,-4.1387,-4.0873,-4.0359,-3.9533,-3.935,-3.9239,-3.8799,-3.8707,-3.8707,-3.8707,-3.8707,-3.8707,-3.8707,-3.8707,-3.8707,-3.8707,-3.8707,-3.8707,-3.8707,-3.8707,-3.8524,-3.8102,-3.7327,-3.6505,-3.5665,-3.4821,-3.4192,-3.3825,-3.3807,-3.3807,-3.3807,-3.3807,-3.3807,-3.3807,-3.3807,-3.3807,-3.3807,-3.3807,-3.3807,-3.3788,-3.3348,-3.3201,-2.5338,-2.775,-3.0155,-3.0705,-3.0522,-3.0356,-3.0907,0.0,0.0,0.0,0.0,0.0,0.0,0.0,0.0,0.0,0.0,0.0,0.0,0.0,0.0,0.0,0.0,0.0,0.0,0.0,0.0,0.0,0.0,0.0,0.0,0.0,0.0,0.0,-4.5535,-4.5535,-4.5535,-4.5663,-4.5663,-4.5535,-4.4837,-4.4525,-4.4488,-4.3809,0.0,0.0,0.0,0.0,-4.3515,-4.3515,-4.3515,-4.3515,-4.3515,-4.3515,-4.3515,-4.3515,-4.3515,-4.3515,-4.3515,-4.3515,-4.3515,-4.3515,-4.3423,-4.3185,-4.2506,-4.2213,-4.2084,-4.1974,-4.1937,-4.1625,-4.0249,-3.9808,-3.9533,-3.8854,-3.8707,-3.8707,-3.8707,-3.8707,-3.8707,-3.8707,-3.8707,-3.8707,-3.8707,-3.8707,-3.8707,-3.8707,-3.8707,-3.8707,-3.8707,-3.8707,-3.8707,-3.8707,-3.7878,-3.7052,-3.6358,-3.5389,-3.4527,-3.3844,-3.3807,-3.3807,-3.3807,-3.3807,-3.3807,-3.3807,-3.3807,-3.3807,-3.3807,-3.3807,-3.3807,-3.3807,-3.3807,-3.344,-2.6007,-2.7758,-2.9042,-2.8484,-2.9274,-3.0063,-2.95,0.0,0.0,0.0,0.0,0.0,0.0,0.0,0.0,0.0,0.0,0.0,0.0,0.0,0.0,0.0,0.0,0.0,0.0,0.0,0.0,0.0,0.0,0.0,0.0,0.0,0.0,0.0,0.0,-4.3882,-4.3882,-4.4544,-4.4544,-4.3882,-4.3736,-4.3681,-4.3681,-4.357,-4.3515,0.0,0.0,-4.3515,-4.3515,-4.3515,-4.3515,-4.3515,-4.3515,-4.3515,-4.3515,-4.3515,-4.3515,-4.3515,-4.3515,-4.3515,-4.3515,-4.3515,-4.3039,-4.2451,-4.2341,-4.1827,-4.1132,-4.0451,-4.0267,-4.0212,-3.9955,-3.9386,-3.8854,-3.8726,-3.8707,-3.8707,-3.8707,-3.8707,-3.8707,-3.8707,-3.8707,-3.8707,-3.8707,-3.8707,-3.8707,-3.8707,-3.8707,-3.8707,-3.8707,-3.8707,-3.8707,-3.8707,-3.7367,-3.6431,-3.6303,-3.4871,-3.3935,-3.3807,-3.3807,-3.3807,-3.3807,-3.3807,-3.3807,-3.3807,-3.3807,-3.3807,-3.3807,-3.3807,-3.3807,-3.3807,-3.3807,-3.3733,-2.5107,-2.6796,-2.8264,-2.7879,-2.934,-3.087,-3.0931,0.0,0.0,0.0,0.0,0.0,0.0,0.0,0.0,0.0,0.0,0.0,0.0,0.0,0.0,0.0,0.0,0.0,0.0,0.0,0.0,0.0,0.0,0.0,0.0,0.0,0.0,0.0,0.0,-4.3515,-4.3515,-4.3864,-4.3864,-4.3515,-4.3515,-4.3515,-4.3515,-4.3515,-4.3515,-4.3515,0.0,-4.3515,-4.3515,-4.3515,-4.3515,-4.3515,-4.3515,-4.3515,-4.3515,-4.3515,-4.3515,-4.3515,-4.3515,-4.3515,-4.3515,-4.3515,-4.2947,-4.2213,-4.1791,-4.1093,-4.0286,-3.9478,-3.9551,-3.979,-3.935,-3.8982,-3.8707,-3.8707,-3.8707,-3.8707,-3.8707,-3.8707,-3.8707,-3.8707,-3.8707,-3.8707,-3.8707,-3.8707,-3.8707,-3.8707,-3.8707,-3.8707,-3.8707,-3.8707,-3.8707,-3.8707,-3.8046,-3.7239,-3.6376,-3.5587,-3.4761,-3.3862,-3.3807,-3.3807,-3.3807,-3.3807,-3.3807,-3.3807,-3.3807,-3.3807,-3.3807,-3.3807,-3.3807,-3.3807,-3.3807,-3.3807,-2.4942,-2.6245,-2.7603,-2.7989,-2.9475,-3.1146,-3.2326,0.0,0.0,0.0,0.0,0.0,0.0,0.0,0.0,0.0,0.0,0.0,0.0,0.0,0.0,0.0,0.0,0.0,0.0,0.0,0.0,0.0,0.0,0.0,0.0,0.0,0.0,0.0,0.0,0.0,-4.3515,-4.3515,-4.3515,-4.3515,-4.3515,-4.3515,-4.3515,-4.3515,-4.3515,-4.3515,-4.3515,-4.3515,-4.3515,-4.3515,-4.3515,-4.3515,-4.3515,-4.3515,-4.3515,-4.3515,-4.3515,-4.3515,-4.3515,-4.3386,-4.3222,-4.3222,-4.2543,-4.1625,-4.102,-4.0267,-3.9478,-3.8872,-3.9148,-3.9478,-3.8854,-3.8707,-3.8707,-3.8707,-3.8707,-3.8707,-3.8707,-3.8707,-3.8707,-3.8707,-3.8707,-3.8707,-3.8707,-3.8707,-3.8707,-3.8707,-3.8707,-3.8707,-3.8707,-3.8707,-3.8707,-3.8707,-3.8524,-3.7753,-3.6138,-3.5826,-3.5165,-3.388,-3.3807,-3.3807,-3.3807,-3.3807,-3.3807,-3.3807,-3.3807,-3.3807,-3.3807,-3.3807,-3.3807,-3.3807,-3.3807,-3.3807,-2.7137,-2.7126,-2.7042,-2.8546,-2.9042,0.0,-3.2087,-3.1298,0.0,0.0,0.0,0.0,0.0,0.0,0.0,0.0,0.0,0.0,0.0,0.0,0.0,0.0,0.0,0.0,0.0,0.0,0.0,0.0,0.0,0.0,0.0,0.0,0.0,0.0,0.0,0.0,-4.3515,-4.3515,-4.3515,-4.3515,-4.3515,-4.3515,-4.3515,-4.3515,-4.3515,-4.3515,-4.3515,-4.3515,-4.3515,-4.3515,-4.3515,-4.3515,-4.3515,-4.3515,-4.3515,-4.3515,-4.3515,-4.3515,-4.3515,-4.3002,-4.2396,-4.2396,-4.1332,-4.0047,-3.9992,-3.9423,-3.8781,-3.8726,-3.8744,-3.8781,-3.8726,-3.8707,-3.8707,-3.8707,-3.8707,-3.8707,-3.8707,-3.8707,-3.8707,-3.8707,-3.8707,-3.8707,-3.8707,-3.8707,-3.8707,-3.8707,-3.8707,-3.8707,-3.8707,-3.8707,-3.8707,-3.8707,-3.8028,-3.6909,-3.5243,-3.4412,-3.3935,-3.3807,-3.3807,-3.3807,-3.3807,-3.3807,-3.3807,-3.3807,-3.3807,-3.3807,-3.3807,-3.3807,-3.3807,-3.3807,-3.3807,-3.3807,-2.5401,-2.6429,-2.7493,-2.8099,0.0,0.0,0.0,0.0,0.0,0.0,0.0,0.0,0.0,0.0,0.0,0.0,0.0,0.0,0.0,0.0,0.0,0.0,0.0,0.0,0.0,0.0,0.0,0.0,0.0,0.0,0.0,0.0,0.0,0.0,0.0,0.0,-4.3515,-4.3515,-4.3515,-4.3515,-4.3515,-4.3515,-4.3515,-4.3515,-4.3515,-4.3515,-4.3515,-4.3515,-4.3515,-4.3515,-4.3515,-4.3515,-4.3515,-4.3515,-4.3515,-4.3515,-4.3515,-4.3441,-4.2928,-4.2543,-4.2213,-4.1735,-4.0799,-3.99,-3.99,-3.9331,-3.8707,-3.8707,-3.8707,-3.8707,-3.8707,-3.8707,-3.8707,-3.8707,-3.8707,-3.8707,-3.8707,-3.8707,-3.8707,-3.8707,-3.8707,-3.8707,-3.8707,-3.8707,-3.8707,-3.8707,-3.8707,-3.8707,-3.8707,-3.8707,-3.8505,-3.8025,-3.6743,-3.5683,-3.5059,-3.4266,-3.3807,-3.3807,-3.3807,-3.3807,-3.3807,-3.3807,-3.3807,-3.3807,-3.3807,-3.3807,-3.3807,-3.3807,-3.3807,-3.3807,-3.3807,-3.3807,-2.4585,-2.5613,-2.6778,0.0,0.0,0.0,0.0,0.0,0.0,0.0,0.0,0.0,0.0,0.0,0.0,0.0,0.0,0.0,0.0,0.0,0.0,0.0,0.0,0.0,0.0,0.0,0.0,0.0,0.0,0.0,0.0,0.0,0.0,0.0,0.0,0.0,-4.3515,-4.3515,-4.3515,-4.3515,-4.3515,-4.3515,-4.3515,-4.3515,-4.3515,-4.3515,-4.3515,-4.3515,-4.3515,-4.3515,-4.3515,-4.3515,-4.3515,-4.3515,-4.3515,-4.3515,-4.3332,-4.3039,-4.2488,-4.1974,-4.146,-4.091,-4.0175,-3.9515,-3.9515,-3.9148,-3.8707,-3.8707,-3.8707,-3.8707,-3.8707,-3.8707,-3.8707,-3.8707,-3.8707,-3.8707,-3.8707,-3.8707,-3.8707,-3.8707,-3.8707,-3.8707,-3.8707,-3.8707,-3.8707,-3.8707,-3.8707,-3.8707,-3.8707,-3.8707,-3.8395,-3.7584,-3.6009,-3.5004,-3.5004,-3.4266,-3.3807,-3.3807,-3.3807,-3.3807,-3.3807,-3.3807,-3.3807,-3.3807,-3.3807,-3.3807,-3.3807,-3.3807,-3.3807,-3.3807,-3.3807,-3.3807,-2.5393,-2.4824,-2.4612,0.0,0.0,0.0,0.0,0.0,0.0,0.0,0.0,0.0,0.0,0.0,0.0,0.0,0.0,0.0,0.0,0.0,0.0,0.0,0.0,0.0,0.0,0.0,0.0,0.0,0.0,0.0,0.0,0.0,0.0,0.0,0.0,0.0,-4.3515,-4.3515,-4.3515,-4.3515,-4.3515,-4.3515,-4.3515,-4.3515,-4.3515,-4.3515,-4.3515,-4.3515,-4.3515,-4.3515,-4.3515,-4.3496,-4.3496,-4.3478,-4.3478,-4.3478,-4.2965,-4.2286,-4.2286,-4.1222,-3.99,-3.9882,-3.935,-3.8707,-3.8707,-3.8707,-3.8707,-3.8707,-3.8707,-3.8707,-3.8707,-3.8707,-3.8707,-3.8707,-3.8707,-3.8707,-3.8707,-3.8707,-3.8707,-3.8707,-3.8707,-3.8707,-3.8707,-3.8707,-3.8707,-3.8707,-3.8707,-3.8707,-3.8707,-3.8689,-3.8377,-3.7566,-3.5991,-3.5004,-3.5004,-3.4266,-3.3807,-3.3807,-3.3807,-3.3807,-3.3807,-3.3807,-3.3807,-3.3807,-3.3807,-3.3807,-3.3807,-3.3807,-3.3807,-3.3807,-3.3807,-3.3807,-2.4566,-2.5631,0.0,0.0,0.0,0.0,0.0,0.0,0.0,0.0,0.0,0.0,0.0,0.0,0.0,0.0,0.0,0.0,0.0,0.0,0.0,0.0,0.0,0.0,0.0,0.0,0.0,0.0,0.0,0.0,0.0,0.0,0.0,0.0,0.0,0.0,-4.3515,-4.3515,-4.3515,-4.3515,-4.3515,-4.3515,-4.3515,-4.3515,-4.3515,-4.3515,-4.3515,-4.3515,-4.3515,-4.3515,-4.3167,-4.2653,-4.2653,-4.2304,-4.1809,-4.1809,-4.1645,-4.1368,-4.0818,-4.0286,-3.9808,-3.9239,-3.8891,-3.8707,-3.8707,-3.8707,-3.8707,-3.8707,-3.8707,-3.8707,-3.8707,-3.8707,-3.8707,-3.8707,-3.8707,-3.8707,-3.8707,-3.8707,-3.8707,-3.8707,-3.8707,-3.8707,-3.8707,-3.8707,-3.8707,-3.8707,-3.8707,-3.8707,-3.8707,-3.7716,-3.6909,-3.667,-3.5165,-3.4174,-3.4174,-3.3935,-3.3807,-3.3807,-3.3807,-3.3807,-3.3807,-3.3807,-3.3807,-3.3807,-3.3807,-3.3807,-3.3807,-3.3807,-3.3807,-3.3807,-3.3807,-3.3807,-2.4511,0.0,0.0,0.0,0.0,0.0,0.0,0.0,0.0,0.0,0.0,0.0,0.0,0.0,0.0,0.0,0.0,0.0,0.0,0.0,0.0,0.0,0.0,0.0,0.0,0.0,0.0,0.0,0.0,0.0,0.0,0.0,0.0,0.0,0.0,0.0,-4.2543,-4.2543,-4.2543,-4.2543,-4.2543,-4.2543,-4.2561,-4.3221,-4.3515,-4.3478,-4.3149,-4.2837,-4.2543,-4.2543,-4.2268,-4.1827,-4.1827,-4.1534,-4.1095,-4.1095,-4.0893,-4.0561,-4.0065,-3.968,-3.9331,-3.8854,-3.8707,-3.8707,-3.8707,-3.8707,-3.8707,-3.8707,-3.8707,-3.8707,-3.8707,-3.8707,-3.8707,-3.8707,-3.8707,-3.8707,-3.8707,-3.8707,-3.8707,-3.8707,-3.8707,-3.8707,-3.8707,-3.8707,-3.8707,-3.8707,-3.8707,-3.8579,-3.8267,-3.7092,-3.6174,-3.5826,-3.4596,-3.3807,-3.3807,-3.3807,-3.3807,-3.3807,-3.3807,-3.3807,-3.3807,-3.3807,-3.3807,-3.3807,-3.3807,-3.3807,-3.3807,-3.3807,-3.3807,-3.3807,-3.3807,-3.3623,0.0,0.0,0.0,0.0,0.0,0.0,0.0,0.0,0.0,0.0,0.0,0.0,0.0,0.0,0.0,0.0,0.0,0.0,0.0,0.0,0.0,0.0,0.0,0.0,0.0,0.0,0.0,0.0,0.0,0.0,0.0,0.0,0.0,0.0,0.0,0.0,-4.1095,-4.1095,-4.1095,0.0,-4.1095,-4.1095,-4.115,-4.2598,-4.3277,-4.3239,-4.2506,-4.1791,-4.1095,-4.1095,-4.1058,-4.0985,-4.0985,-4.0948,-4.0875,-4.0875,-4.0432,-3.979,-3.979,-3.9313,-3.8707,-3.8707,-3.8707,-3.8707,-3.8707,-3.8707,-3.8707,-3.8707,-3.8707,-3.8707,-3.8707,-3.8707,-3.8707,-3.8707,-3.8707,-3.8707,-3.8707,-3.8707,-3.8707,-3.8707,-3.8707,-3.8707,-3.8707,-3.8707,-3.8689,-3.8597,-3.8597,-3.8303,-3.7492,-3.667,-3.5881,-3.5078,-3.427,-3.3807,-3.3807,-3.3807,-3.3807,-3.3807,-3.3807,-3.3807,-3.3807,-3.3807,-3.3807,-3.3807,-3.3807,-3.3807,-3.3807,-3.3807,-3.3807,-3.3807,-3.3807,-3.3421,0.0,0.0,0.0,0.0,0.0,0.0,0.0,0.0,0.0,0.0,0.0,0.0,0.0,0.0,0.0,0.0,0.0,0.0,0.0,0.0,0.0,0.0,0.0,0.0,0.0,0.0,0.0,0.0,0.0,0.0,0.0,0.0,0.0,0.0,0.0,-4.1095,-4.1095,-4.1095,-4.1095,0.0,-4.1095,-4.1095,-4.1113,-4.1462,-4.1625,-4.1625,-4.1425,-4.126,-4.1095,-4.1095,-4.0726,-4.0157,-4.0157,-3.9772,-3.9221,-3.9221,-3.9111,-3.8964,-3.8964,-3.8836,-3.8707,-3.8707,-3.8707,-3.8707,-3.8707,-3.8707,-3.8707,-3.8707,-3.8707,-3.8707,-3.8707,-3.8707,-3.8707,-3.8707,-3.8707,-3.8707,-3.8707,-3.8707,-3.8707,-3.8707,-3.8707,-3.8707,-3.8707,-3.8707,-3.8487,-3.786,-3.7768,-3.7474,-3.6666,-3.5807,-3.5206,-3.5023,-3.427,-3.3807,-3.3807,-3.3807,-3.3807,-3.3807,-3.3807,-3.3807,-3.3807,-3.3807,-3.3807,-3.3807,-3.3807,-3.3807,-3.3807,-3.3807,-3.3807,-3.3807,-3.3807,-3.3715,0.0,0.0,0.0,0.0,0.0,0.0,0.0,0.0,0.0,0.0,0.0,0.0,0.0,0.0,0.0,0.0,0.0,0.0,0.0,0.0,0.0,0.0,0.0,0.0,0.0,0.0,0.0,0.0,0.0,0.0,0.0,0.0,0.0,0.0,-3.9939,-3.9939,-3.9939,-3.9939,-3.9939,-3.9939,-3.9939,-3.9939,-3.9976,-4.0747,-4.0875,-4.0524,-4.0524,-4.0322,-3.9939,-3.9939,-3.9698,-3.9331,-3.9331,-3.9074,-3.8707,-3.8707,-3.8707,-3.8707,-3.8707,-3.8707,-3.8707,-3.8707,-3.8707,-3.8707,-3.8707,-3.8707,-3.8707,-3.8707,-3.8707,-3.8707,-3.8707,-3.8707,-3.8707,-3.8707,-3.8707,-3.8707,-3.8707,-3.8707,-3.8707,-3.8707,-3.8707,-3.8707,-3.8707,-3.8707,-3.8432,-3.7621,-3.7492,-3.707,-3.5844,-3.5279,-3.4857,-3.4472,-3.4045,-3.3807,-3.3807,-3.3807,-3.3807,-3.3807,-3.3807,-3.3807,-3.3807,-3.3807,-3.3807,-3.3807,-3.3807,-3.3807,-3.3807,-3.3807,-3.3807,-3.3807,-3.3807,-3.3587,0.0,0.0,0.0,0.0,0.0,0.0,0.0,0.0,0.0,0.0,0.0,0.0,0.0,0.0,0.0,0.0,0.0,0.0,0.0,0.0,0.0,0.0,0.0,0.0,0.0,0.0,0.0,0.0,0.0,0.0,0.0,0.0,-3.8634,-3.8505,-3.8487,-3.856,-3.8707,-3.856,-3.856,-3.8707,-3.8707,-3.8707,-3.8762,-4.0068,-4.0322,-3.968,-3.968,-3.9313,-3.8707,-3.8707,-3.8707,-3.8707,-3.8707,-3.8707,-3.8707,-3.8707,-3.8707,-3.8707,-3.8707,-3.8707,-3.8707,-3.8707,-3.8707,-3.8707,-3.8707,-3.8707,-3.8707,-3.8707,-3.8707,-3.8707,-3.8707,-3.8707,-3.8707,-3.8707,-3.8707,-3.8707,-3.8707,-3.8707,-3.8707,-3.8707,-3.8707,-3.8707,-3.8707,-3.8707,-3.8377,-3.7437,-3.729,-3.6703,-3.5004,-3.4784,-3.4546,-3.3862,-3.3807,-3.3807,-3.3807,-3.3807,-3.3807,-3.3807,-3.3807,-3.3807,-3.3807,-3.3807,-3.3807,-3.3807,-3.3807,-3.3807,-3.3807,-3.3807,-3.3733,-3.3587,-3.3587,-3.3238,0.0,0.0,0.0,0.0,0.0,0.0,0.0,0.0,0.0,0.0,0.0,0.0,0.0,0.0,0.0,0.0,0.0,0.0,0.0,0.0,0.0,0.0,0.0,0.0,0.0,0.0,0.0,0.0,0.0,0.0,0.0,0.0,-3.8377,-3.7676,-3.7658,-3.7991,-3.8689,-3.8025,-3.8025,-3.8707,-3.8707,-3.8707,-3.8707,-3.8927,-3.8964,-3.8854,-3.8854,-3.8799,-3.8707,-3.8707,-3.8707,-3.8707,-3.8707,-3.8707,-3.8707,-3.8707,-3.8707,-3.8707,-3.8707,-3.8707,-3.8707,-3.8707,-3.8707,-3.8707,-3.8707,-3.8707,-3.8707,-3.8707,-3.8707,-3.8707,-3.8707,-3.8707,-3.8707,-3.8707,-3.8707,-3.8707,-3.8707,-3.8707,-3.8707,-3.8707,-3.8707,-3.8707,-3.8707,-3.8707,-3.8193,-3.6688,-3.645,-3.5844,-3.4174,-3.3972,-3.3917,-3.3807,-3.3807,-3.3807,-3.3807,-3.3807,-3.3807,-3.3807,-3.3807,-3.3807,-3.3807,-3.3807,-3.3807,-3.3807,-3.3807,-3.3807,-3.3807,-3.3807,-3.344,-3.2748,-3.2748,-3.2693,0.0,0.0,0.0,0.0,0.0,0.0,0.0,0.0,0.0,0.0,0.0,0.0,0.0,0.0,0.0,0.0,0.0,0.0,0.0,0.0,0.0,0.0,0.0,0.0,0.0,0.0,0.0,0.0,0.0,0.0,0.0,-3.7165,-3.7184,-3.685,-3.6831,0.0,-3.7349,-3.7,-3.7,-3.7367,-3.7367,-3.7367,-3.7367,-3.7367,-3.7845,-3.8707,-3.8707,-3.8707,-3.8707,-3.8707,-3.8707,-3.8707,-3.8707,-3.8707,-3.8707,-3.8707,-3.8707,-3.8707,-3.8707,-3.8707,-3.8707,-3.8707,-3.8707,-3.8707,-3.8707,-3.8707,-3.8707,-3.8707,-3.8707,-3.8707,-3.8707,-3.8707,-3.8707,-3.8707,-3.8707,-3.8707,-3.8707,-3.8707,-3.8707,-3.8707,-3.8707,-3.8707,-3.8707,-3.8707,-3.8157,-3.6541,-3.6303,-3.5679,-3.4027,-3.3807,-3.3807,-3.3807,-3.3807,-3.3807,-3.3807,-3.3807,-3.3807,-3.3807,-3.3807,-3.3807,-3.3807,-3.3807,-3.3807,-3.3807,-3.3807,-3.3807,-3.3807,-3.3807,-3.3623,-3.3275,-3.3275,-3.3275,0.0,0.0,0.0,0.0,0.0,0.0,0.0,0.0,0.0,0.0,0.0,0.0,0.0,0.0,0.0,0.0,0.0,0.0,0.0,0.0,0.0,0.0,0.0,0.0,0.0,0.0,0.0,0.0,0.0,0.0,-3.5973,-3.6174,-3.6193,-3.5973,-3.5973,-3.6083,-3.6303,-3.6303,-3.6303,-3.6303,-3.6303,-3.6303,-3.6303,-3.6303,-3.6945,-3.8083,-3.8083,-3.8083,-3.812,-3.8303,-3.8395,-3.8414,-3.8615,-3.8707,-3.8707,-3.8707,-3.8707,-3.8707,-3.8707,-3.8707,-3.8707,-3.8707,-3.8707,-3.8707,-3.8707,-3.8707,-3.8707,-3.8707,-3.8707,-3.8707,-3.8707,-3.8707,-3.8707,-3.8707,-3.8707,-3.8707,-3.8707,-3.8707,-3.8707,-3.8707,-3.8707,-3.8634,-3.8432,-3.8395,-3.7845,-3.6211,-3.5973,-3.544,-3.399,-3.3807,-3.3807,-3.3807,-3.3807,-3.3807,-3.3807,-3.3807,-3.3807,-3.3807,-3.3807,-3.3807,-3.3807,-3.3807,-3.3807,-3.3807,-3.3807,-3.3807,-3.3807,-3.3587,-3.3495,-3.3495,-3.3073,-3.2999,0.0,0.0,0.0,0.0,0.0,0.0,0.0,0.0,0.0,0.0,0.0,0.0,0.0,0.0,0.0,0.0,0.0,0.0,0.0,0.0,0.0,0.0,0.0,0.0,0.0,0.0,0.0,0.0,0.0,0.0,-3.5114,-3.5862,-3.5917,-3.5096,-3.5078,-3.5463,-3.6285,-3.6303,-3.6303,-3.6303,-3.6303,-3.6303,-3.6303,-3.6303,-3.634,-3.6413,-3.6413,-3.6413,-3.6486,-3.7254,-3.7566,-3.7639,-3.8395,-3.8707,-3.8707,-3.8707,-3.8707,-3.8707,-3.8707,-3.8707,-3.8707,-3.8707,-3.8707,-3.8707,-3.8707,-3.8707,-3.8707,-3.8707,-3.8707,-3.8707,-3.8707,-3.8707,-3.8707,-3.8707,-3.8707,-3.8707,-3.8707,-3.8707,-3.8707,-3.8707,-3.8707,-3.8469,-3.7694,-3.7566,-3.6997,-3.5316,-3.5078,-3.4766,-3.3917,-3.3807,-3.3807,-3.3807,-3.3807,-3.3807,-3.3807,-3.3807,-3.3807,-3.3807,-3.3807,-3.3807,-3.3807,-3.3807,-3.3807,-3.3807,-3.3807,-3.3807,-3.3807,-3.3036,-3.2656,-3.2619,-3.1109,-3.0797,0.0,0.0,0.0,0.0,0.0,0.0,0.0,0.0,0.0,0.0,0.0,0.0,0.0,0.0,0.0,0.0,0.0,0.0,0.0,0.0,0.0,0.0,0.0,0.0,0.0,0.0,0.0,0.0,0.0,0.0,-3.4247,-3.4523,-3.4559,-3.4247,-3.4215,-3.4394,-3.4688,-3.4688,-3.4688,-3.4688,-3.4688,-3.4688,-3.4688,-3.4688,-3.4688,-3.4688,-3.4688,-3.5312,-3.6321,-3.6611,-3.674,-3.6813,-3.7621,-3.7933,-3.7991,-3.8505,-3.8707,-3.8707,-3.8707,-3.8707,-3.8707,-3.8707,-3.8707,-3.8707,-3.8707,-3.8707,-3.8707,-3.8707,-3.8707,-3.8707,-3.8707,-3.8707,-3.8707,-3.8707,-3.8707,-3.8707,-3.8707,-3.8285,-3.8065,-3.8597,-3.7863,-3.7221,-3.7456,-3.707,-3.634,-3.5169,-3.5004,-3.4711,-3.3899,-3.3807,-3.3807,-3.3807,-3.3807,-3.3807,-3.3807,-3.3807,-3.3807,-3.3807,-3.3807,-3.3807,-3.3807,-3.3807,-3.3807,-3.3807,-3.3807,-3.3807,-3.3807,-3.3513,-3.3096,-3.2583,-3.2014,-3.1623,0.0,0.0,0.0,0.0,0.0,0.0,0.0,0.0,0.0,0.0,0.0,0.0,0.0,0.0,0.0,0.0,0.0,0.0,0.0,0.0,0.0,0.0,0.0,0.0,0.0,0.0,0.0,0.0,0.0,0.0,-3.3807,-3.3807,-3.3807,-3.3807,-3.3807,-3.3807,-3.3807,-3.3807,-3.3807,-3.3807,-3.3807,-3.3807,-3.3807,-3.3807,-3.3807,-3.3807,-3.3807,-3.4431,-3.5477,-3.5752,-3.5862,-3.5954,-3.6776,-3.7107,-3.7162,-3.7698,-3.79,-3.79,-3.79,-3.8065,-3.8303,-3.8303,-3.8303,-3.834,-3.8615,-3.8505,-3.8358,-3.8615,-3.8707,-3.8707,-3.8707,-3.8707,-3.8634,-3.8358,-3.8303,-3.8212,-3.7955,-3.79,-3.7988,-3.8248,-3.7422,-3.6703,-3.667,-3.6211,-3.5587,-3.4729,-3.4601,-3.4399,-3.3862,-3.3807,-3.3807,-3.3807,-3.3807,-3.3807,-3.3807,-3.3807,-3.3807,-3.3807,-3.3807,-3.3842,-3.3923,-3.3923,-3.3923,-3.3923,-3.3923,-3.3889,-3.3807,-3.3532,-3.3128,-3.2583,-3.2051,-3.1366,0.0,0.0,0.0,0.0,0.0,0.0,0.0,0.0,0.0,0.0,0.0,0.0,0.0,0.0,0.0,0.0,0.0,0.0,0.0,0.0,0.0,0.0,0.0,0.0,0.0,0.0,0.0,0.0,0.0,-3.3733,-3.3733,-3.3733,-3.3733,-3.3733,-3.3733,-3.3733,-3.3733,-3.3752,-3.3752,-3.3752,-3.3788,-3.3807,-3.3807,-3.3807,-3.3807,-3.3807,-3.3807,-3.3807,-3.3862,-3.4637,-3.4954,-3.5059,-3.5917,-3.6266,-3.6266,-3.6285,-3.6303,-3.6303,-3.6303,-3.6813,-3.7456,-3.7456,-3.7456,-3.7621,-3.8395,-3.8102,-3.7658,-3.8432,-3.8689,-3.8689,-3.867,-3.8652,-3.8432,-3.7658,-3.7456,-3.7254,-3.6468,-3.7533,-3.8395,-3.7621,-3.7419,-3.6886,-3.5279,-3.4986,-3.4692,-3.3917,-3.3807,-3.3807,-3.3807,-3.3807,-3.3788,-3.3802,-3.3802,-3.3815,-3.3815,-3.3815,-3.3815,-3.3815,-3.3815,-3.3941,-3.4188,-3.4188,-3.4188,-3.4188,-3.4206,-3.408,-3.3802,-3.3018,-3.2601,-3.2528,-3.0913,-2.9739,-2.0407,0.0,0.0,0.0,0.0,0.0,0.0,0.0,0.0,0.0,0.0,0.0,0.0,0.0,0.0,0.0,0.0,0.0,0.0,0.0,0.0,0.0,0.0,0.0,0.0,0.0,0.0,0.0,0.0,-3.2045,-3.2045,-3.2045,-3.2045,-3.2045,-3.2045,-3.2045,-3.2045,-3.2651,-3.2931,-3.2931,-3.3532,-3.3807,-3.3807,-3.3807,-3.3807,-3.3807,-3.3807,-3.3807,-3.3825,-3.4045,-3.4137,-3.4211,-3.5041,-3.5353,-3.5445,-3.6064,-3.6303,-3.6303,-3.6303,-3.645,-3.6615,-3.6615,-3.6615,-3.667,-3.689,-3.7217,-3.7547,-3.7768,-3.8248,-3.8579,-3.7988,-3.7386,-3.6909,-3.667,-3.6615,-3.656,-3.634,-3.6652,-3.689,-3.667,-3.5642,-3.4853,-3.4986,-3.4509,-3.4064,-3.3825,-3.3807,-3.3807,-3.3807,-3.3807,-3.3863,-3.408,-3.4086,-3.4201,-3.442,-3.4461,-3.4461,-3.4461,-3.4218,-3.4123,-3.4188,-3.4006,-3.3915,-3.3915,-3.4099,-3.4152,-3.4105,-3.3668,-3.2871,-3.1678,-3.0069,-2.9207,0.0,0.0,0.0,0.0,0.0,0.0,0.0,0.0,0.0,0.0,0.0,0.0,0.0,0.0,0.0,0.0,0.0,0.0,0.0,0.0,0.0,0.0,0.0,0.0,0.0,0.0,0.0,0.0,-3.1397,-3.1397,-3.1397,-3.1397,-3.1397,-3.1397,-3.1397,-3.1397,-3.1397,-3.1861,-3.21,-3.2118,-3.2577,-3.2797,-3.2797,-3.3146,-3.3311,-3.333,-3.3642,-3.3807,-3.3807,-3.3807,-3.3807,-3.3844,-3.4307,-3.4491,-3.4564,-3.5073,-3.5257,-3.5257,-3.5257,-3.5477,-3.5771,-3.5771,-3.5771,-3.5826,-3.6193,-3.6376,-3.6523,-3.6905,-3.7331,-3.7588,-3.7125,-3.6652,-3.6211,-3.5844,-3.5771,-3.5679,-3.533,-3.5257,-3.5367,-3.5697,-3.4968,-3.4344,-3.4472,-3.4119,-3.3807,-3.3807,-3.3902,-3.3974,-3.3974,-3.4087,-3.4244,-3.439,-3.4412,-3.4497,-3.4684,-3.4694,-3.4643,-3.4508,-3.4311,-3.4258,-3.4401,-3.426,-3.4244,-3.4353,-3.45,-3.4333,-3.3866,-3.3722,-3.2792,-3.1169,-2.9888,-2.9293,0.0,0.0,0.0,0.0,0.0,0.0,0.0,-2.3617,0.0,0.0,0.0,0.0,0.0,0.0,0.0,0.0,0.0,0.0,0.0,0.0,0.0,0.0,0.0,0.0,0.0,0.0,0.0,-3.114,-3.114,-3.114,-3.114,-3.114,-3.114,-3.114,-3.114,-3.114,-3.114,-3.1231,-3.1268,-3.1268,-3.136,-3.1397,-3.1415,-3.2137,-3.2509,-3.2638,-3.3366,-3.3715,-3.3807,-3.3807,-3.3807,-3.3807,-3.3807,-3.3807,-3.3807,-3.3807,-3.3807,-3.3807,-3.3807,-3.427,-3.4876,-3.4876,-3.4876,-3.5004,-3.5789,-3.5536,-3.5188,-3.6046,-3.6229,-3.6156,-3.6156,-3.6083,-3.5826,-3.5041,-3.4876,-3.4674,-3.3954,-3.3807,-3.4009,-3.4729,-3.4876,-3.4637,-3.3917,-3.3807,-3.3802,-3.3842,-3.4056,-3.4211,-3.4246,-3.4518,-3.4704,-3.4734,-3.4734,-3.4773,-3.4803,-3.4784,-3.4655,-3.436,-3.4315,-3.4434,-3.4724,-3.4733,-3.4765,-3.4901,-3.4859,-3.4277,-3.3214,-3.3156,-3.2354,-3.0875,-3.0073,-2.9705,0.0,0.0,0.0,0.0,0.0,0.0,0.0,-2.2254,0.0,0.0,0.0,0.0,0.0,0.0,0.0,0.0,0.0,0.0,0.0,0.0,0.0,0.0,0.0,0.0,0.0,0.0,-2.9464,-2.9464,-2.9464,-2.9464,-2.9464,-2.9464,-2.9464,-2.9464,-2.9464,-2.9464,-2.9464,-3.0118,-3.043,-3.0448,-3.1091,-3.1397,-3.1415,-3.1549,-3.199,-3.2601,-3.2766,-3.3201,-3.3807,-3.3807,-3.3807,-3.3807,-3.3807,-3.3807,-3.3807,-3.3807,-3.3807,-3.3807,-3.3807,-3.3899,-3.4027,-3.4027,-3.4027,-3.4082,-3.4247,-3.4619,-3.5188,-3.6046,-3.5789,-3.5261,-3.5261,-3.4766,-3.4247,-3.4082,-3.4027,-3.399,-3.3825,-3.3807,-3.3844,-3.4009,-3.4027,-3.399,-3.3825,-3.3807,-3.3863,-3.4086,-3.4171,-3.43,-3.4561,-3.4663,-3.4774,-3.4999,-3.5016,-3.5105,-3.5339,-3.5335,-3.5312,-3.5254,-3.5051,-3.4944,-3.5016,-3.4803,-3.4383,-3.3743,-3.3253,-3.2691,-3.2023,-3.159,-3.1233,-3.0875,-3.0073,-2.9705,0.0,0.0,0.0,-2.4206,0.0,0.0,0.0,0.0,0.0,0.0,0.0,0.0,0.0,0.0,0.0,0.0,0.0,0.0,0.0,0.0,0.0,0.0,0.0,0.0,0.0,0.0,-2.7959,-2.8374,-2.8767,-2.9005,-2.9005,-2.9005,-2.9005,-2.9005,-2.9005,-2.9005,-2.9005,-2.939,-2.9592,-2.961,-3.0008,-3.021,-3.0228,-3.0613,-3.1017,-3.1427,-3.1825,-3.2228,-3.2632,-3.3036,-3.3201,-3.3238,-3.3642,-3.3807,-3.3807,-3.3807,-3.3807,-3.3807,-3.3807,-3.3807,-3.3807,-3.3807,-3.3807,-3.3807,-3.3807,-3.4082,-3.4491,-3.4926,-3.4743,-3.4399,-3.4399,-3.41,-3.3807,-3.3807,-3.3807,-3.3807,-3.3807,-3.3807,-3.3842,-3.3974,-3.4012,-3.4012,-3.4012,-3.4148,-3.4284,-3.4442,-3.4563,-3.4696,-3.4889,-3.5027,-3.5147,-3.5289,-3.5297,-3.5361,-3.5493,-3.55,-3.5439,-3.5304,-3.5163,-3.5105,-3.5105,-3.4554,-3.3909,-3.3174,-3.2462,-3.1967,-3.1698,-3.099,-3.0658,-3.0639,-3.0247,-3.0044,0.0,0.0,0.0,0.0,0.0,-2.4447,0.0,0.0,0.0,-2.4182,0.0,0.0,0.0,0.0,0.0,0.0,0.0,0.0,0.0,0.0,0.0,0.0,0.0,0.0,0.0,0.0,-2.6802,-2.7624,-2.8095,-2.8504,-2.8809,-2.8789,-2.884,-2.9005,-2.9005,-2.9005,-2.9005,-2.9005,-2.9005,-2.9005,-2.9005,-2.9005,-2.9023,-2.9666,-3.0063,-3.0246,-3.0889,-3.1268,-3.1452,-3.21,-3.2375,-3.2454,-3.344,-3.3807,-3.3807,-3.3807,-3.3807,-3.3807,-3.3807,-3.3807,-3.3807,-3.3807,-3.3807,-3.3807,-3.3807,-3.3807,-3.3807,-3.3807,-3.3807,-3.3807,-3.3807,-3.3807,-3.3807,-3.3807,-3.3807,-3.3802,-3.3881,-3.3876,-3.3961,-3.4242,-3.4338,-3.4349,-3.4311,-3.4518,-3.4714,-3.4764,-3.4963,-3.5113,-3.5174,-3.5369,-3.55,-3.55,-3.5346,-3.5327,-3.5481,-3.5346,-3.5225,-3.5179,-3.501,-3.4934,-3.4934,-3.3941,-3.3175,-3.2679,-3.1872,-3.1448,-3.1448,-3.0731,-3.0404,-3.0404,-3.0404,-3.0404,0.0,0.0,0.0,0.0,-2.5731,0.0,0.0,0.0,-2.3755,-2.316,0.0,0.0,0.0,0.0,0.0,0.0,0.0,0.0,0.0,0.0,0.0,0.0,0.0,0.0,0.0,0.0,0.0,-2.7204,-2.6478,-2.6626,-2.8113,-2.8028,-2.8264,-2.8987,-2.9005,-2.9005,-2.9005,-2.9005,-2.9005,-2.9005,-2.9005,-2.9005,-2.9005,-2.9097,-2.9537,-3.021,-3.0301,-3.0742,-3.1415,-3.1507,-3.1544,-3.169,-3.3201,-3.3807,-3.3807,-3.3807,-3.3807,-3.3807,-3.3807,-3.3807,-3.3807,-3.3807,-3.3807,-3.3807,-3.3807,-3.3807,-3.3807,-3.3807,-3.3807,-3.3807,-3.3807,-3.3807,-3.3807,-3.3807,-3.3807,-3.3868,-3.4099,-3.414,-3.4253,-3.4572,-3.4832,-3.4916,-3.4684,-3.4674,-3.4774,-3.5016,-3.5088,-3.519,-3.5424,-3.5486,-3.55,-3.55,-3.4814,-3.4661,-3.5423,-3.4795,-3.4654,-3.5415,-3.4723,-3.4307,-3.4307,-3.2782,-3.1904,-3.1833,-3.0981,-3.0558,-3.0558,-3.0442,-3.0404,-3.0404,-3.0404,-3.0404,0.0,0.0,0.0,0.0,0.0,0.0,0.0,0.0,-2.3995,0.0,0.0,0.0,0.0,0.0,0.0,0.0,0.0,0.0,0.0,0.0,0.0,0.0,0.0,0.0,0.0,0.0,0.0,0.0,0.0,-2.6172,-2.7344,-2.7321,-2.7588,-2.8282,-2.8301,-2.8539,-2.9005,-2.9005,-2.9005,-2.9005,-2.9005,-2.9005,-2.9005,-2.9005,-2.9189,-2.95,-2.95,-2.9702,-3.0044,-3.0503,-3.0705,-3.0815,-3.1953,-3.2687,-3.3151,-3.3623,-3.3807,-3.3807,-3.3807,-3.3807,-3.3807,-3.3807,-3.3807,-3.3807,-3.3807,-3.3807,-3.3807,-3.3807,-3.3807,-3.3807,-3.3807,-3.3807,-3.3842,-3.3999,-3.4031,-3.4117,-3.4412,-3.4497,-3.4582,-3.487,-3.5016,-3.5113,-3.5166,-3.5155,-3.5207,-3.5312,-3.532,-3.5369,-3.5493,-3.5064,-3.4757,-3.4757,-3.3968,-3.3583,-3.3968,-3.366,-3.3603,-3.3968,-3.3641,-3.3237,-3.2776,-3.2064,-3.1468,-3.0962,-3.0596,-3.0404,-3.0404,-3.0404,-3.0404,-3.0404,-3.0404,-3.0404,-2.6308,0.0,0.0,0.0,0.0,0.0,0.0,0.0,0.0,0.0,0.0,0.0,0.0,0.0,0.0,0.0,0.0,0.0,0.0,0.0,0.0,0.0,0.0,0.0,0.0,0.0,0.0,0.0,0.0,0.0,-2.663,-2.6617,-2.6906,-2.7613,-2.7809,-2.8172,-2.8751,-2.8911,-2.9005,-2.9005,-2.9005,-2.9005,-2.9005,-2.9005,-2.9005,-2.9005,-2.9005,-2.9005,-2.906,-2.9629,-2.9879,-2.9941,-3.076,-3.1421,-3.2069,-3.3091,-3.3605,-3.3807,-3.3807,-3.3807,-3.3752,-3.3532,-3.3623,-3.3807,-3.3807,-3.3807,-3.3807,-3.3807,-3.3807,-3.3807,-3.3807,-3.3855,-3.3961,-3.414,-3.4258,-3.4423,-3.4744,-3.4803,-3.4822,-3.4841,-3.5054,-3.5205,-3.5152,-3.5346,-3.55,-3.55,-3.5288,-3.5135,-3.5135,-3.4372,-3.384,-3.384,-3.3083,-3.266,-3.2872,-3.2699,-3.2564,-3.2564,-3.2564,-3.2199,-3.1385,-3.1346,-3.1038,-3.0404,-3.0404,-3.0404,-3.0404,-3.0404,-3.0404,-3.0404,-3.0404,-3.0404,0.0,0.0,0.0,-2.4957,0.0,0.0,0.0,0.0,-2.5269,0.0,0.0,0.0,0.0,0.0,0.0,0.0,0.0,0.0,0.0,0.0,0.0,0.0,0.0,0.0,0.0,0.0,0.0,0.0,0.0,0.0,-2.6078,-2.5909,-2.6186,-2.718,-2.7783,-2.8097,-2.8134,-2.8706,-2.9005,-2.9005,-2.9005,-2.9005,-2.9005,-2.9005,-2.9005,-2.9005,-2.9005,-2.9005,-2.9005,-2.9023,-2.9042,-2.9115,-2.9922,-3.0246,-3.0467,-3.2051,-3.3115,-3.3807,-3.3807,-3.3807,-3.3678,-3.2894,-3.3183,-3.3807,-3.3807,-3.3807,-3.3807,-3.3807,-3.3807,-3.3807,-3.3807,-3.3999,-3.4188,-3.4188,-3.4464,-3.4754,-3.5025,-3.5088,-3.4926,-3.4332,-3.4897,-3.5224,-3.4391,-3.4949,-3.55,-3.55,-3.4776,-3.4244,-3.4244,-3.3487,-3.2949,-3.2949,-3.2218,-3.2045,-3.2833,-3.2199,-3.1737,-3.1737,-3.1737,-3.1346,-3.0481,-3.0442,-3.0423,-3.0404,-3.0404,-3.0404,-3.0404,-3.0404,-3.0404,-3.0404,-3.0404,-3.0404,0.0,0.0,-2.8569,-2.6313,0.0,0.0,0.0,0.0,0.0,0.0,0.0,0.0,0.0,0.0,0.0,0.0,0.0,0.0,0.0,0.0,0.0,0.0,0.0,0.0,0.0,0.0,0.0,0.0,0.0,0.0,0.0,-2.5203,-2.5434,-2.6185,-2.6283,-2.6624,-2.7307,-2.8047,-2.8469,-2.8615,-2.9043,-2.9257,-2.9257,-2.9078,-2.9005,-2.9005,-2.9005,-2.9005,-2.9005,-2.9005,-2.9005,-2.9023,-2.9299,-2.9721,-3.0338,-3.1403,-3.1971,-3.2223,-3.2223,-3.2223,-3.2155,-3.188,-3.199,-3.2302,-3.2852,-3.3135,-3.3382,-3.3901,-3.4225,-3.4405,-3.4405,-3.4464,-3.4582,-3.4755,-3.4889,-3.5044,-3.5304,-3.4908,-3.4431,-3.425,-3.3968,-3.3699,-3.3391,-3.3583,-3.3987,-3.4545,-3.4398,-3.3994,-3.341,-3.2622,-3.2102,-3.2102,-3.1346,-3.0942,-3.1212,-3.1,-3.0846,-3.0846,-3.0846,-3.0712,-3.0404,-3.0404,-3.0404,-3.0404,-3.0404,-3.0404,-3.0404,-3.0404,-3.0404,-3.0404,-3.0404,-3.0404,-2.8511,-2.8703,0.0,-2.7024,-2.7024,0.0,-2.4971,0.0,0.0,0.0,0.0,0.0,0.0,0.0,0.0,0.0,0.0,0.0,0.0,0.0,0.0,0.0,0.0,0.0,0.0,0.0,-2.0482,-2.2639,0.0,0.0,0.0,0.0,-2.5069,-2.5537,-2.5639,-2.5965,-2.6577,-2.7597,-2.8137,-2.8204,-2.9004,-2.9402,-2.9402,-2.9214,-2.9181,-2.9241,-2.9171,-2.9145,-2.9145,-2.9145,-2.9078,-2.9005,-2.9005,-2.9317,-2.9879,-3.0687,-3.1146,-3.136,-3.1072,-3.1158,-3.136,-3.1072,-3.1231,-3.1647,-3.2152,-3.2495,-3.2786,-3.3309,-3.3607,-3.3769,-3.3769,-3.3837,-3.3951,-3.4128,-3.4257,-3.4351,-3.4537,-3.4122,-3.3641,-3.3372,-3.3083,-3.2814,-3.2526,-3.2718,-3.3083,-3.3641,-3.3487,-3.3103,-3.2545,-3.1756,-3.1231,-3.1231,-3.0731,-3.0404,-3.0404,-3.0404,-3.0404,-3.0404,-3.0404,-3.0404,-3.0404,-3.0404,-3.0404,-3.0404,-3.0404,-3.0404,-3.0404,-3.0404,-3.0404,-3.0404,-3.0404,-3.0404]},{"header":{"parameterUnit":"m.s-1","parameterCategory":1,"la1":30.6,"la2":29.2853,"lo1":-89.7004,"lo2":-87.6739,"dy":0.0162,"dx":0.0183,"nx":112,"ny":82,"refTime":"2025-04-12T06:00:00:Z","depth":0,"parameterNumber":3,"parameterNumberName":"V-component_of_WINDS"},"data":[0.0,0.0,0.0,0.0,0.0,0.0,0.0,0.0,0.0,0.0,0.0,0.0,0.0,0.0,0.0,0.0,0.0,0.0,0.0,0.0,0.0,0.0,0.0,0.0,0.0,0.0,0.0,0.0,0.0,0.0,0.0,0.0,0.0,0.0,0.0,0.0,0.0,0.0,0.0,0.0,0.0,0.0,0.0,0.0,0.0,0.0,0.0,0.0,0.0,0.0,0.0,0.0,0.0,0.0,0.0,0.0,0.0,0.0,0.0,0.0,0.0,0.0,0.0,0.0,0.0,0.0,0.0,0.0,0.0,0.0,0.0,0.0,0.0,0.0,0.0,0.0,0.0,0.0,0.0,0.0,0.0,0.0,0.0,0.0,0.0,0.0,0.0,0.0,0.0,0.0,0.0,-1.0687,-1.1683,-1.2204,-1.1993,-1.1583,-1.0915,-0.9916,0.0,0.0,0.0,0.0,0.0,0.0,0.0,0.0,0.0,0.0,0.0,0.0,0.0,0.0,0.0,0.0,0.0,0.0,0.0,0.0,0.0,0.0,0.0,0.0,0.0,0.0,0.0,0.0,0.0,0.0,0.0,0.0,0.0,0.0,0.0,0.0,0.0,0.0,0.0,0.0,0.0,0.0,0.0,0.0,0.0,0.0,0.0,0.0,0.0,0.0,0.0,0.0,0.0,0.0,0.0,0.0,0.0,0.0,0.0,0.0,0.0,0.0,0.0,0.0,0.0,0.0,0.0,0.0,0.0,0.0,0.0,0.0,0.0,0.0,0.0,0.0,0.0,0.0,0.0,0.0,0.0,0.0,0.0,0.0,0.0,0.0,0.0,0.0,0.0,0.0,0.0,0.0,0.0,0.0,0.0,0.0,0.0,0.0,0.0,0.0,0.0,0.0,0.0,0.0,-0.9837,-1.1531,-1.2051,-1.2285,-1.2238,-1.151,-1.0875,-1.0486,0.0,0.0,0.0,0.0,0.0,0.0,0.0,0.0,0.0,0.0,0.0,0.0,0.0,0.0,0.0,0.0,0.0,0.0,0.0,0.0,0.0,0.0,0.0,0.0,0.0,0.0,0.0,0.0,0.0,0.0,0.0,0.0,0.0,0.0,0.0,0.0,0.0,0.0,0.0,0.0,0.0,0.0,0.0,0.0,0.0,0.0,0.0,0.0,0.0,0.0,0.0,0.0,0.0,0.0,0.0,0.0,0.0,0.0,0.0,0.0,0.0,0.0,0.0,0.0,0.0,0.0,0.0,0.0,0.0,0.0,0.0,0.0,0.0,0.0,0.0,0.0,0.0,0.0,0.0,0.0,0.0,0.0,0.0,0.0,0.0,0.0,0.0,0.0,0.0,0.0,0.0,0.0,0.0,0.0,0.0,0.0,0.0,0.0,0.0,0.0,0.0,0.0,0.0,-0.9379,-1.0267,-1.1752,-1.2131,-1.2238,-1.2084,-1.155,-1.0969,-1.0361,-0.8945,0.0,0.0,0.0,0.0,0.0,0.0,0.0,0.0,0.0,0.0,0.0,0.0,0.0,0.0,0.0,0.0,0.0,0.0,0.0,0.0,0.0,0.0,0.0,0.0,0.0,0.0,0.0,0.0,0.0,0.0,0.0,0.0,0.0,0.0,0.0,0.0,0.0,0.0,0.0,0.0,0.0,0.0,0.0,0.0,0.0,0.0,0.0,0.0,0.0,0.0,0.0,0.0,0.0,0.0,0.0,0.0,0.0,0.0,0.0,0.0,0.0,0.0,0.0,0.0,0.0,0.0,0.0,0.0,0.0,0.0,0.0,0.0,0.0,0.0,0.0,0.0,0.0,0.0,0.0,0.0,0.0,0.0,0.0,0.0,0.0,0.0,0.0,0.0,0.0,0.0,0.0,0.0,0.0,0.0,0.0,0.0,0.0,0.0,0.0,0.0,0.0,0.0,-1.0254,-1.0822,-1.1899,-1.2171,-1.2184,-1.1933,-1.1536,-1.0942,-1.0137,-0.8645,0.0,0.0,0.0,0.0,0.0,0.0,0.0,0.0,0.0,0.0,0.0,0.0,0.0,0.0,0.0,0.0,0.0,0.0,0.0,0.0,0.0,0.0,0.0,0.0,0.0,0.0,0.0,0.0,0.0,0.0,0.0,0.0,0.0,0.0,0.0,0.0,0.0,0.0,0.0,0.0,0.0,0.0,0.0,0.0,0.0,0.0,0.0,0.0,0.0,0.0,0.0,0.0,0.0,0.0,0.0,0.0,0.0,0.0,0.0,0.0,0.0,0.0,0.0,0.0,0.0,0.0,0.0,0.0,0.0,0.0,0.0,0.0,0.0,0.0,0.0,0.0,0.0,0.0,0.0,0.0,0.0,0.0,0.0,0.0,0.0,0.0,0.0,0.0,0.0,0.0,0.0,0.0,0.0,0.0,0.0,0.0,0.0,0.0,0.0,0.0,0.0,0.0,-1.0661,-1.1577,-1.2204,-1.2291,-1.2184,-1.1933,-1.1349,-1.0762,-1.0123,-0.8496,0.0,0.0,0.0,0.0,0.0,0.0,0.0,0.0,0.0,0.0,0.0,0.0,0.0,0.0,0.0,0.0,0.0,0.0,0.0,0.0,0.0,0.0,0.0,0.0,0.0,0.0,0.0,0.0,0.0,0.0,0.0,0.0,0.0,0.0,0.0,0.0,0.0,0.0,0.0,0.0,0.0,0.0,0.0,0.0,0.0,0.0,0.0,0.0,0.0,0.0,0.0,0.0,0.0,0.0,0.0,0.0,0.0,0.0,0.0,0.0,0.0,0.0,0.0,0.0,0.0,0.0,0.0,0.0,0.0,0.0,0.0,0.0,0.0,0.0,0.0,0.0,0.0,0.0,0.0,0.0,0.0,0.0,0.0,0.0,0.0,0.0,0.0,0.0,0.0,0.0,0.0,0.0,0.0,0.0,0.0,0.0,0.0,0.0,0.0,0.0,0.0,0.0,-1.0388,-1.1249,0.0,-1.2305,-1.2111,-1.163,-1.1223,-1.0588,-0.9604,0.0,0.0,0.0,0.0,0.0,0.0,0.0,0.0,0.0,0.0,0.0,0.0,0.0,0.0,0.0,0.0,0.0,0.0,0.0,0.0,0.0,0.0,0.0,0.0,0.0,0.0,0.0,0.0,0.0,0.0,0.0,0.0,0.0,0.0,0.0,0.0,0.0,0.0,0.0,0.0,0.0,0.0,0.0,0.0,0.0,0.0,0.0,0.0,0.0,0.0,0.0,0.0,0.0,0.0,0.0,0.0,0.0,0.0,0.0,0.0,0.0,0.0,0.0,0.0,0.0,0.0,0.0,0.0,0.0,0.0,0.0,0.0,0.0,0.0,0.0,0.0,0.0,0.0,0.0,0.0,0.0,0.0,0.0,0.0,0.0,0.0,0.0,0.0,0.0,0.0,0.0,0.0,0.0,0.0,0.0,0.0,0.0,0.0,0.0,0.0,0.0,0.0,-0.9721,-1.0478,-1.1249,0.0,-1.2305,-1.2064,-1.1442,-1.1076,-1.0394,-0.9284,0.0,0.0,0.0,0.0,0.0,0.0,0.0,0.0,0.0,0.0,0.0,0.0,0.0,0.0,0.0,0.0,0.0,0.0,0.0,0.0,0.0,0.0,0.0,0.0,0.0,0.0,0.0,0.0,0.0,0.0,0.0,0.0,0.0,0.0,0.0,0.0,0.0,0.0,0.0,0.0,0.0,0.0,0.0,0.0,0.0,0.0,0.0,0.0,0.0,0.0,0.0,0.0,0.0,0.0,0.0,0.0,0.0,0.0,0.0,0.0,0.0,0.0,0.0,0.0,0.0,0.0,0.0,0.0,0.0,0.0,0.0,0.0,0.0,0.0,0.0,0.0,0.0,0.0,0.0,0.0,0.0,0.0,0.0,0.0,0.0,0.0,0.0,0.0,0.0,0.0,0.0,0.0,0.0,0.0,0.0,0.0,0.0,0.0,0.0,0.0,0.0,0.0,-1.0271,-1.104,-1.1615,-1.2238,-1.2305,-1.2064,-1.1442,-1.0928,-1.0211,0.0,0.0,0.0,0.0,0.0,0.0,0.0,0.0,0.0,0.0,0.0,0.0,0.0,0.0,0.0,0.0,0.0,0.0,0.0,0.0,0.0,0.0,0.0,0.0,0.0,0.0,0.0,0.0,0.0,0.0,0.0,0.0,0.0,0.0,0.0,0.0,0.0,0.0,0.0,0.0,0.0,0.0,0.0,0.0,0.0,0.0,0.0,0.0,0.0,0.0,0.0,0.0,0.0,0.0,0.0,0.0,0.0,0.0,0.0,0.0,0.0,0.0,0.0,0.0,0.0,0.0,0.0,0.0,0.0,0.0,0.0,0.0,0.0,0.0,0.0,0.0,0.0,0.0,0.0,0.0,0.0,0.0,0.0,0.0,0.0,0.0,0.0,0.0,0.0,0.0,0.0,0.0,0.0,0.0,0.0,0.0,0.0,0.0,0.0,0.0,0.0,0.0,0.0,-1.0271,-1.104,-1.1615,-1.2238,-1.2879,-1.277,-1.1511,-1.1517,-1.0817,-0.9025,0.0,0.0,0.0,0.0,0.0,0.0,0.0,0.0,0.0,0.0,0.0,0.0,0.0,0.0,0.0,0.0,0.0,0.0,0.0,0.0,0.0,0.0,0.0,0.0,0.0,0.0,0.0,0.0,0.0,0.0,0.0,0.0,0.0,0.0,0.0,0.0,0.0,0.0,0.0,0.0,0.0,0.0,0.0,0.0,0.0,0.0,0.0,0.0,0.0,0.0,0.0,0.0,0.0,0.0,0.0,0.0,0.0,0.0,0.0,0.0,0.0,0.0,0.0,0.0,0.0,0.0,0.0,0.0,0.0,0.0,0.0,0.0,0.0,0.0,0.0,0.0,0.0,0.0,0.0,0.0,0.0,0.0,0.0,0.0,0.0,0.0,0.0,0.0,0.0,0.0,0.0,0.0,0.0,0.0,0.0,0.0,0.0,0.0,0.0,0.0,0.0,0.0,-1.0299,-1.104,-1.1615,-1.2238,-1.2806,-1.267,-1.1511,-1.1427,-1.0712,-0.9072,0.0,0.0,0.0,0.0,0.0,0.0,0.0,0.0,0.0,0.0,0.0,0.0,0.0,0.0,0.0,0.0,0.0,0.0,0.0,0.0,0.0,0.0,0.0,0.0,0.0,0.0,0.0,0.0,0.0,0.0,0.0,0.0,0.0,0.0,0.0,0.0,0.0,0.0,0.0,0.0,0.0,0.0,0.0,0.0,0.0,0.0,0.0,0.0,0.0,0.0,0.0,0.0,0.0,0.0,0.0,0.0,0.0,0.0,0.0,0.0,0.0,0.0,0.0,0.0,0.0,0.0,0.0,0.0,0.0,0.0,0.0,0.0,0.0,0.0,0.0,0.0,0.0,0.0,0.0,0.0,0.0,0.0,0.0,0.0,0.0,0.0,0.0,0.0,0.0,0.0,0.0,0.0,0.0,0.0,0.0,0.0,0.0,0.0,0.0,0.0,0.0,0.0,-1.0504,-1.1245,-1.1887,-1.2487,-1.2659,-1.2382,-1.1607,-1.1144,-1.0421,-0.9271,0.0,0.0,0.0,0.0,0.0,0.0,0.0,0.0,0.0,0.0,0.0,0.0,0.0,0.0,0.0,0.0,0.0,0.0,0.0,0.0,0.0,0.0,0.0,0.0,0.0,0.0,0.0,0.0,0.0,0.0,0.0,0.0,0.0,0.0,0.0,0.0,0.0,0.0,0.0,0.0,0.0,0.0,0.0,0.0,0.0,0.0,0.0,0.0,0.0,0.0,0.0,0.0,0.0,0.0,0.0,0.0,0.0,0.0,0.0,0.0,-1.0267,0.0,0.0,0.0,0.0,0.0,0.0,0.0,0.0,0.0,0.0,0.0,0.0,0.0,0.0,0.0,0.0,0.0,0.0,0.0,0.0,0.0,0.0,0.0,0.0,0.0,0.0,0.0,0.0,0.0,0.0,0.0,0.0,0.0,0.0,0.0,0.0,0.0,0.0,0.0,0.0,0.0,-1.1764,-1.2901,-1.3789,-1.4514,-1.5261,-1.4823,-1.2758,-1.2913,-1.1989,-0.9361,0.0,0.0,0.0,0.0,0.0,0.0,0.0,0.0,0.0,0.0,0.0,0.0,0.0,0.0,0.0,0.0,0.0,0.0,0.0,0.0,0.0,0.0,0.0,0.0,0.0,0.0,0.0,0.0,0.0,0.0,0.0,0.0,0.0,0.0,0.0,0.0,0.0,0.0,0.0,0.0,0.0,0.0,0.0,0.0,0.0,0.0,0.0,0.0,0.0,0.0,0.0,0.0,0.0,0.0,0.0,0.0,0.0,0.0,0.0,0.0,0.0,-1.0661,0.0,0.0,0.0,0.0,0.0,0.0,0.0,0.0,0.0,0.0,0.0,0.0,0.0,0.0,0.0,0.0,0.0,0.0,0.0,0.0,0.0,0.0,0.0,0.0,0.0,0.0,0.0,0.0,0.0,0.0,0.0,0.0,0.0,0.0,0.0,0.0,0.0,0.0,0.0,0.0,-1.2266,-1.3421,-1.4396,-1.5124,-1.5658,-1.5247,-1.3624,-1.3275,-1.2235,-1.0144,-0.8698,0.0,0.0,0.0,0.0,0.0,0.0,0.0,0.0,0.0,0.0,0.0,0.0,0.0,0.0,0.0,0.0,0.0,0.0,0.0,0.0,0.0,0.0,0.0,0.0,0.0,0.0,0.0,0.0,0.0,0.0,0.0,0.0,0.0,0.0,0.0,0.0,0.0,0.0,0.0,0.0,0.0,0.0,0.0,0.0,0.0,0.0,0.0,0.0,0.0,0.0,0.0,0.0,0.0,-1.3401,-1.3952,-1.4679,-1.4902,-1.499,-1.4881,-1.3111,-1.2096,-1.1655,0.0,0.0,0.0,0.0,0.0,0.0,0.0,0.0,0.0,0.0,0.0,0.0,0.0,0.0,0.0,0.0,0.0,0.0,0.0,0.0,0.0,0.0,0.0,0.0,0.0,-1.0777,-1.0647,0.0,0.0,0.0,0.0,0.0,0.0,0.0,0.0,0.0,0.0,0.0,0.0,-1.2728,-1.3862,-1.4831,-1.5616,-1.5693,-1.5325,-1.4404,-1.3485,-1.2375,-1.105,-0.958,-0.8493,0.0,0.0,0.0,0.0,0.0,0.0,0.0,0.0,0.0,0.0,0.0,0.0,0.0,0.0,0.0,0.0,0.0,0.0,0.0,0.0,0.0,0.0,0.0,0.0,0.0,0.0,0.0,0.0,0.0,0.0,0.0,0.0,-0.9539,-0.993,0.0,0.0,0.0,0.0,0.0,0.0,0.0,0.0,0.0,0.0,0.0,0.0,0.0,0.0,-1.3033,-1.4813,-1.5137,-1.3963,-1.5778,-1.603,-1.4926,-1.4967,-1.5552,-1.6475,-1.6219,0.0,-1.2926,-1.2318,0.0,0.0,0.0,0.0,0.0,0.0,0.0,0.0,0.0,0.0,0.0,0.0,0.0,0.0,0.0,0.0,0.0,0.0,0.0,0.0,0.0,0.0,-1.1649,-1.2014,-1.2342,-1.2446,0.0,-1.0363,-0.8943,-0.8699,0.0,0.0,0.0,0.0,0.0,0.0,0.0,0.0,-1.4012,-1.5458,-1.6686,-1.7527,-1.7613,-1.699,-1.5458,-1.5171,-1.3979,-1.1419,-1.0589,-0.9989,-0.9507,-0.7864,0.0,0.0,0.0,0.0,0.0,0.0,0.0,0.0,0.0,0.0,0.0,0.0,0.0,0.0,0.0,0.0,0.0,0.0,0.0,0.0,0.0,0.0,0.0,0.0,0.0,0.0,0.0,0.0,0.0,-0.9786,-1.0468,-1.0595,-1.0902,-1.0922,0.0,0.0,0.0,0.0,0.0,0.0,0.0,0.0,0.0,-1.352,-1.4422,-1.4894,-1.4923,-1.6597,-1.6776,-1.5565,-1.6497,-1.6949,-1.6971,-1.6971,-1.7702,-1.8921,-1.8676,-1.7979,-1.6939,-1.5095,-1.3635,-1.2552,0.0,0.0,0.0,0.0,-1.1617,-1.1784,-1.2164,-1.2184,0.0,0.0,0.0,0.0,0.0,0.0,0.0,0.0,0.0,0.0,0.0,0.0,0.0,-1.4193,-1.4643,-1.4804,-1.4485,-1.3068,-1.1358,0.0,-1.0214,-1.0565,-0.9498,0.0,0.0,0.0,0.0,0.0,-1.5191,-1.6355,-1.7334,-1.7949,-1.8008,-1.7489,-1.63,-1.5748,-1.4693,-1.2814,-1.182,-1.0965,-1.0212,-0.9364,-0.8708,0.0,0.0,0.0,0.0,0.0,0.0,0.0,0.0,0.0,0.0,0.0,0.0,0.0,0.0,0.0,0.0,0.0,0.0,0.0,0.0,0.0,0.0,0.0,0.0,0.0,0.0,0.0,0.0,-1.0693,-1.1243,-1.1323,-1.1917,-1.2058,0.0,0.0,0.0,0.0,0.0,0.0,-1.4165,-1.416,-1.467,-1.5926,-1.7029,-1.7546,-1.7468,-1.8426,-1.8499,-1.7725,-1.7335,-1.7825,-1.9082,-1.8697,-1.9464,-2.1089,-2.0762,-2.0585,-2.0365,-1.7372,-1.5343,-1.4027,-1.3103,-1.2625,-1.2502,-1.2679,-1.2806,-1.2959,-1.3513,-1.362,-1.3474,-1.3019,0.0,-1.2165,-1.165,0.0,0.0,0.0,0.0,-1.2112,-1.3735,-1.4413,-1.4956,-1.6204,-1.6675,-1.68,-1.6544,-1.5844,-1.4396,0.0,-1.1975,-1.2454,-1.0922,0.0,0.0,0.0,0.0,-1.4963,-1.6112,-1.6904,-1.7539,-1.7969,-1.791,-1.7549,-1.6765,-1.6056,-1.5167,-1.3988,-1.2846,-1.1889,-1.1144,-1.0729,-1.0071,-0.9161,0.0,0.0,0.0,0.0,0.0,0.0,0.0,0.0,0.0,0.0,0.0,0.0,0.0,0.0,0.0,0.0,0.0,0.0,0.0,0.0,0.0,0.0,0.0,0.0,0.0,0.0,0.0,0.0,0.0,-1.2204,-1.2974,0.0,0.0,0.0,0.0,-1.4365,-1.4151,-1.5215,-1.7954,-1.7835,-1.8365,-1.9948,-2.039,-2.0566,-2.0585,-2.0497,-2.0505,-2.057,-1.9131,-1.9228,-2.0618,-1.9318,-2.0095,-2.251,-2.2492,-2.2267,-2.1642,-1.8201,-1.6695,-1.6431,-1.4676,-1.3988,-1.3975,-1.3995,-1.4175,-1.4376,-1.4142,-1.4235,-1.4449,-1.4416,-1.4495,-1.4721,-1.5174,-1.4211,0.0,0.0,-1.434,-1.4063,-1.5506,-1.6313,-1.6918,-1.7643,-1.8008,-1.8141,-1.7867,-1.8451,-1.7998,0.0,-1.3614,-1.3472,-1.3728,0.0,-1.5216,-1.5225,-1.5674,-1.6172,-1.6609,-1.71,-1.7539,-1.7969,-1.7656,-1.7227,-1.6746,-1.6307,-1.5518,-1.4273,-1.3456,-1.2968,-1.2777,-1.1498,-1.1,-1.1427,-0.9985,0.0,0.0,0.0,0.0,0.0,0.0,0.0,0.0,0.0,0.0,0.0,0.0,0.0,0.0,0.0,0.0,0.0,0.0,0.0,0.0,0.0,0.0,0.0,0.0,0.0,0.0,0.0,0.0,-1.3654,-1.4349,0.0,0.0,-1.4871,-1.5539,-1.7837,-1.7279,-1.7705,-1.9816,-1.9843,-2.0231,-2.1319,-2.2299,-2.2603,-2.217,-2.2996,-2.2875,-2.1778,-2.1229,-2.1099,-2.1362,-2.0864,-2.1619,-2.3298,-2.2997,-2.276,-2.2458,-1.9941,-1.8323,-1.7242,-1.5566,-1.54,-1.6,-1.5229,-1.5514,-1.6135,-1.5436,-1.5157,-1.5023,-1.4643,-1.4423,-1.4328,-1.4334,-1.3891,-1.3665,-1.4896,-1.5011,-1.5266,-1.7394,-1.8087,-1.8499,-1.9439,-1.9707,-1.9735,-1.9669,-1.9193,-1.8405,-1.7159,-1.6611,-1.5969,-1.4785,-1.5506,-1.6162,-1.5879,-1.6476,-1.7005,-1.7129,-1.7519,-1.7842,-1.7988,-1.7637,-1.7207,-1.6736,-1.6318,-1.5663,-1.4639,-1.406,-1.3408,-1.2671,-1.2326,-1.1888,-1.1338,-1.0976,-1.004,0.0,0.0,0.0,0.0,0.0,0.0,0.0,0.0,0.0,0.0,0.0,0.0,0.0,0.0,0.0,0.0,0.0,0.0,0.0,0.0,0.0,0.0,0.0,0.0,0.0,0.0,-1.4015,-1.4596,-1.5357,-1.6227,-1.7191,-1.6422,-1.7301,-2.0763,-1.967,-1.9922,-2.2536,-2.2374,-2.2637,-2.3573,-2.45,-2.4706,-2.428,-2.476,-2.4634,-2.3859,-2.279,-2.2655,-2.327,-2.2627,-2.3126,-2.4344,-2.4066,-2.3814,-2.359,-2.1895,-2.0359,-1.8969,-1.6936,-1.6667,-1.7249,-1.6451,-1.6398,-1.6636,-1.6035,-1.5705,-1.5597,-1.5835,-1.5575,-1.5219,-1.6148,-1.5842,-1.5553,-1.7098,-1.7171,-1.713,-1.8763,-1.9375,-1.9638,-1.9962,-2.0323,-2.0605,-2.0605,-1.986,-1.9152,-1.9002,-1.8289,-1.7282,-1.5911,-1.65,-1.7061,-1.6768,-1.7217,-1.7598,-1.7598,-1.7842,-1.8008,-1.8008,-1.7637,-1.7207,-1.6736,-1.6182,-1.5576,-1.4862,-1.4238,-1.358,-1.2863,-1.2872,-1.2532,-1.1797,-1.15,-1.0733,-0.9434,0.0,0.0,0.0,0.0,0.0,0.0,0.0,0.0,0.0,0.0,0.0,0.0,0.0,0.0,0.0,0.0,0.0,0.0,0.0,0.0,0.0,0.0,0.0,-1.2887,-1.4146,-1.5042,-1.5127,-1.6142,-1.7148,-1.7974,-1.7337,-1.8694,-2.3084,-2.1293,-2.1849,-2.6177,-2.5568,-2.567,-2.698,-2.7031,-2.7041,-2.7051,-2.5759,-2.5759,-2.698,-2.3937,-2.3854,-2.6327,-2.4557,-2.447,-2.5693,-2.5693,-2.544,-2.4936,-2.3799,-2.2758,-2.1694,-1.8846,-1.7746,-1.7738,-1.7692,-1.685,-1.5784,-1.5784,-1.5784,-1.6102,-1.8051,-1.7942,-1.7558,-2.0716,-2.0123,-1.8776,-2.1108,-2.0673,-1.9552,-1.9584,-2.0116,-2.0342,-1.9283,-1.9844,-2.0605,-2.0605,-2.0566,-2.0439,-2.0019,-1.8461,-1.7252,-1.7225,-1.7656,-1.8027,-1.8008,-1.8008,0.0,-1.8008,-1.8008,-1.8008,-1.8008,-1.7637,-1.7207,-1.6704,-1.5888,-1.5196,-1.4767,-1.3948,-1.3496,-1.3486,-1.3096,-1.2905,-1.2905,-1.1592,-1.0723,-1.0322,0.0,0.0,0.0,0.0,0.0,0.0,0.0,0.0,0.0,0.0,0.0,0.0,0.0,0.0,0.0,0.0,0.0,0.0,0.0,0.0,0.0,0.0,-1.4632,-1.57,-1.5529,-1.604,-1.8101,-1.8694,-1.9573,-2.121,-2.1255,-2.255,-2.5743,-2.4485,-2.4542,-2.6734,-2.6577,-2.6779,-2.748,-2.749,-2.7637,-2.7939,-2.7603,-2.7448,-2.749,-2.6608,-2.6288,-2.6387,-2.5892,-2.5671,-2.5693,-2.5693,-2.51,-2.4051,-2.3523,-2.2479,-2.109,-1.8963,-1.8489,-1.8772,-1.6983,-1.6109,-1.5784,-1.5784,-1.5784,-1.5906,-1.6462,-1.6388,-1.6239,-1.6965,-1.6741,-1.6465,-1.7707,-1.8384,-1.8845,-1.9318,-2.0251,-2.0887,-2.0312,-2.0401,-2.0605,-2.0605,-2.0001,-1.965,-2.0285,-1.9088,-1.8043,-1.8197,-1.8325,-1.8325,-1.8057,-1.8008,0.0,-1.8008,-1.8008,-1.8008,-1.8008,-1.7637,-1.696,-1.5923,-1.5567,-1.4831,0.0,-1.3485,-1.3369,-1.3091,-1.2964,-1.2905,-1.2905,-1.1917,-1.1193,0.0,0.0,0.0,0.0,0.0,0.0,0.0,0.0,0.0,0.0,0.0,0.0,0.0,0.0,0.0,0.0,0.0,0.0,0.0,0.0,0.0,0.0,-1.4898,-1.6469,-1.7725,-1.7012,-1.716,-1.9412,-1.9971,-2.1125,-2.3448,-2.3218,-2.414,-2.7059,-2.6035,-2.5934,-2.7487,-2.7549,-2.7666,-2.792,-2.793,-2.8047,-2.8291,-2.8291,-2.8164,-2.793,-2.7806,-2.7314,-2.665,-2.6465,-2.6152,0.0,-2.5693,-2.5274,-2.4541,-2.4356,-2.3696,0.0,0.0,0.0,0.0,0.0,-1.6157,-1.6527,-1.5967,-1.5784,-1.5872,-1.6433,-1.6251,-1.5981,-1.6853,-1.6757,-1.6675,-1.8155,-1.8964,-1.9454,-1.9916,-2.0598,-2.1042,-2.0324,-2.0409,-2.0605,-2.0605,-2.0118,-1.9835,-2.0479,0.0,0.0,-1.8945,-1.8724,-1.8461,-1.8076,-1.8008,-1.8008,0.0,-1.8008,-1.8008,-1.8008,-1.7793,-1.7185,-1.6102,-1.579,0.0,0.0,0.0,-1.332,-1.2925,-1.2905,0.0,0.0,0.0,0.0,0.0,0.0,0.0,0.0,-1.0205,-1.0039,0.0,0.0,0.0,0.0,0.0,0.0,0.0,0.0,0.0,0.0,0.0,0.0,0.0,0.0,0.0,0.0,-1.6459,-1.7873,-1.928,-1.8594,-1.8506,-1.994,-2.081,-2.228,-2.4885,-2.4149,-2.4668,-2.7538,-2.6614,-2.6605,-2.8208,0.0,0.0,0.0,0.0,-2.8291,-2.8291,-2.8291,-2.8291,-2.8291,-2.792,-2.748,-2.7002,-2.6631,-2.6201,-2.5693,-2.5693,-2.5693,-2.5693,-2.5693,-2.5343,-2.4525,-2.1477,-1.9398,-1.7897,-1.653,-1.6622,0.0,0.0,0.0,0.0,-1.7131,-1.6709,-1.6197,-1.8442,-1.8319,-1.7909,-2.007,-2.0509,-2.0359,-2.0401,-2.0745,-2.0816,-1.9793,-2.0068,-2.0605,-2.0605,-2.0489,-2.044,-2.0566,-2.0401,-2.0014,-1.9397,-1.8965,-1.852,-1.8076,-1.8008,0.0,-1.8008,-1.8008,-1.8008,-1.8008,0.0,0.0,-1.6638,-1.6287,-1.5693,-1.4722,-1.397,-1.3408,-1.3037,-1.3003,-1.2974,-1.2974,-1.2925,-1.2905,-1.2905,-1.2905,-1.2905,-1.2856,-1.0898,-1.0615,0.0,0.0,0.0,0.0,0.0,0.0,0.0,0.0,0.0,0.0,0.0,0.0,0.0,0.0,0.0,-1.6683,-1.7095,-1.8211,-2.099,-2.0618,-2.0627,-2.2006,-2.3653,-2.4969,-2.5784,-2.671,-2.7525,-2.8164,-2.7941,-2.7917,-2.8291,-2.8291,0.0,-2.8291,-2.8291,-2.8291,-2.8291,-2.8291,-2.8291,-2.8291,0.0,0.0,-2.7012,-2.6934,-2.6475,-2.5693,-2.5693,-2.5693,-2.5693,-2.5693,-2.467,-2.3007,-2.2012,-2.0054,-1.7727,-1.7434,-1.685,-1.6109,-1.5872,-1.5784,-1.5825,-1.6109,-1.6015,-1.5872,-1.6379,-1.6332,0.0,-1.6741,-1.7531,-1.8139,-1.7565,-1.8828,-2.0016,-1.9299,-1.9901,-2.0605,-2.0605,-1.9923,-1.9559,-2.044,-1.9155,-1.8224,-1.9129,-1.9219,-1.8906,-1.8125,-1.8008,-1.8008,-1.8008,-1.8008,-1.8008,-1.8008,-1.8008,-1.7379,-1.5854,-1.5959,-1.5456,-1.3938,-1.3935,-1.3948,-1.387,-1.3564,-1.3389,-1.3389,-1.3081,-1.2905,-1.2905,-1.2905,-1.2905,-1.2895,-1.2451,-1.2416,0.0,0.0,0.0,0.0,0.0,0.0,0.0,0.0,0.0,0.0,0.0,-1.3153,0.0,0.0,-1.5642,-1.7047,-1.8567,-1.991,-2.0964,-2.2875,-2.4199,-2.4137,-2.5174,-2.6216,-2.7086,-2.7843,-2.8291,-2.8291,-2.8291,-2.8291,-2.8291,-2.8291,-2.8291,-2.8291,-2.8291,-2.8291,-2.8291,-2.8291,-2.8291,-2.8291,-2.8291,-2.7959,-2.7334,-2.7119,-2.667,-2.6055,-2.5781,-2.5693,-2.5693,-2.5693,-2.4823,-2.3485,-2.3288,-2.1705,-1.936,-1.8141,-1.7677,-1.7576,-1.6936,-1.6339,-1.5784,-1.5784,-1.5784,-1.5784,-1.5784,-1.5784,-1.592,-1.6574,-1.7225,-1.7748,-1.7975,-1.8636,-1.9253,-1.9469,-1.9648,-1.9962,-2.0479,-2.0167,-1.9962,-2.0489,-1.9717,-1.9017,-1.925,-1.9287,-1.8994,-1.8135,-1.8008,-1.8008,-1.8008,-1.8008,-1.8008,-1.8008,-1.8008,-1.7576,-1.6529,-1.5864,-1.5147,-1.4261,-1.3979,-1.3937,-1.4087,-1.3909,-1.3792,-1.3792,-1.3588,-1.3506,-1.3506,-1.3506,-1.3506,-1.3506,-1.3506,-1.3389,0.0,0.0,0.0,0.0,0.0,0.0,0.0,0.0,-1.2502,-1.3092,-1.3654,-1.4246,-1.5003,-1.5464,-1.6251,-1.7869,-1.9831,-2.1262,-2.1671,-2.4694,-2.6701,-2.6155,-2.6342,-2.6997,-2.8174,-2.8291,-2.8291,-2.8291,-2.8291,-2.8291,-2.8291,-2.8291,-2.8291,-2.8291,-2.8291,-2.8291,-2.8291,-2.8291,-2.8291,-2.8291,-2.8291,-2.8066,-2.7699,-2.7217,-2.6787,-2.6367,-2.5879,-2.5693,-2.5693,-2.5693,-2.5167,-2.4368,-2.4127,-2.3087,-2.1391,-1.9177,-1.8864,-1.9314,-1.8141,-1.7037,-1.6109,-1.5879,-1.5784,-1.5784,-1.5784,-1.5784,-1.6015,-1.7037,-1.7318,-1.7529,-1.8455,-1.837,-1.8304,-1.9338,-1.9094,-1.8957,-2.004,-2.0118,-1.9962,-1.9962,-1.9962,-1.9735,-1.9093,-1.8985,-1.8769,-1.81,-1.8008,-1.794,-1.7759,-1.7906,-1.794,-1.7759,-1.7906,-1.7842,-1.7422,-1.6018,-1.5123,-1.505,-1.4373,-1.4063,-1.434,-1.428,-1.4231,-1.4231,-1.4153,-1.4104,-1.4104,-1.4104,-1.4104,-1.4104,-1.4104,-1.3929,-1.2104,-1.1744,0.0,-1.2402,-1.2351,-1.2579,0.0,0.0,-1.405,-1.464,-1.5177,-1.5571,-1.5712,-1.64,-1.7978,-2.0886,-1.971,-2.0399,-2.6104,-2.5148,-2.4886,-2.7674,-2.8038,-2.8121,-2.8291,-2.8291,-2.8291,-2.8291,-2.8291,-2.8291,-2.8291,-2.8291,-2.8291,-2.8291,-2.8291,-2.8291,-2.8291,-2.8291,-2.8291,-2.8291,-2.8291,-2.8066,-2.7699,-2.7217,-2.6787,-2.6367,-2.5879,-2.5693,-2.5693,-2.5693,-2.5167,-2.4275,-2.3224,-2.2823,-2.2721,-2.1391,-2.0305,-1.9314,-1.8141,-1.7598,-1.7318,-1.6157,-1.5784,-1.5784,-1.5784,-1.5784,-1.5832,-1.5967,-1.6015,-1.6001,-1.5876,-1.6346,-1.6993,-1.785,-1.7755,-1.7779,-1.8917,-1.839,-1.7658,-1.7658,-1.7658,-1.7709,-1.7845,-1.7896,-1.7926,-1.7997,-1.8008,-1.7681,-1.6853,-1.7467,-1.7681,-1.6853,-1.7501,-1.7842,-1.7422,-1.651,-1.5955,-1.5958,-1.5498,-1.5235,-1.5245,-1.4912,-1.4717,-1.4717,-1.4299,-1.4104,-1.4104,-1.4104,-1.4104,-1.4104,-1.4104,-1.4085,-1.334,0.0,0.0,0.0,-1.3561,-1.3834,-1.48,-1.4821,-1.4861,-1.5618,-1.5919,-1.6192,-1.6533,-1.6951,-1.7709,0.0,-1.9624,-2.0894,-2.4684,-2.4808,-2.5415,-2.768,-2.7705,-2.7744,-2.8242,-2.8291,-2.8291,-2.8291,-2.8291,-2.8291,-2.8291,-2.8291,-2.8291,-2.8291,-2.8291,-2.8291,-2.8291,-2.8291,-2.8291,-2.8291,-2.8291,-2.8203,-2.8008,-2.7324,-2.6641,-2.5996,-2.5771,-2.5693,-2.5693,-2.5693,-2.5361,-2.4719,-2.3944,-2.3578,-2.3343,-2.1839,-2.098,-2.0395,-1.9177,-1.828,-1.7505,-1.6204,-1.5784,-1.5784,-1.5784,-1.5784,-1.5784,-1.5784,-1.5784,-1.5751,-1.5678,-1.5664,-1.6051,-1.7677,-1.7171,-1.6846,-1.863,-1.8109,-1.7302,-1.7302,-1.7827,-1.8254,-1.8065,-1.8387,-1.8374,-1.764,-1.7341,-1.7251,-1.7389,-1.7285,-1.7242,-1.7398,-1.7759,-1.7586,-1.6603,-1.5629,-1.5115,-1.529,-1.449,-1.4421,-1.5352,-1.5244,-1.5146,-1.5146,-1.4971,-1.4855,-1.4855,-1.4855,-1.4855,-1.4855,-1.4855,-1.4855,-1.3888,0.0,0.0,-1.4235,-1.4549,-1.4836,-1.5137,-1.5204,-1.5384,-1.6019,-1.6219,-1.6455,-1.6878,-1.7092,0.0,-1.8355,-1.9391,-2.0961,-2.3481,-2.4407,-2.5467,-2.7282,-2.7207,-2.7256,-2.7881,-2.8047,-2.8164,-2.8281,-2.8291,-2.8291,-2.8291,-2.8291,-2.8291,-2.8291,-2.8291,-2.8291,-2.8291,-2.8291,-2.8291,-2.8291,-2.8291,-2.8291,-2.8262,-2.7402,-2.6502,-2.5693,-2.5693,-2.5693,-2.5693,-2.5693,-2.5478,-2.5077,-2.459,-2.416,-2.3641,-2.2279,-2.18,-2.1578,-2.0034,-1.891,-1.7909,-1.6339,-1.5784,-1.5784,-1.5784,-1.5784,-1.5784,-1.5784,-1.5784,-1.5784,-1.5784,-1.5398,-1.5531,-1.7688,-1.6684,-1.5869,-1.8069,-1.7415,-1.6404,-1.6404,-1.7545,-1.8272,-1.7424,-1.819,-1.8393,-1.6875,-1.6148,-1.6149,-1.7113,-1.6853,-1.6853,-1.7545,-1.7613,-1.7095,-1.5822,-1.5014,-1.4657,-1.4854,-1.4127,-1.4094,-1.5021,-1.5294,-1.5294,-1.5079,-1.5294,-1.541,-1.541,-1.541,-1.541,-1.541,-1.541,-1.541,0.0,0.0,-1.4208,-1.4834,-1.5157,-1.5444,-1.5684,-1.5758,-1.5764,-1.5791,-1.6072,-1.6328,-1.6342,-1.6817,-1.775,-1.9487,-1.9102,-2.0037,-2.435,-2.3984,-2.4194,-2.6711,-2.7021,-2.7021,0.0,-2.7432,-2.7851,-2.8262,-2.8291,-2.8291,-2.8291,-2.8291,-2.8291,-2.8291,-2.8291,-2.8291,-2.8291,-2.8291,-2.8291,-2.8291,-2.8291,-2.8291,-2.8262,-2.7402,-2.6502,-2.5693,-2.5693,-2.5693,-2.5693,-2.5693,-2.5478,-2.5077,-2.459,-2.416,-2.374,-2.3213,-2.3047,-2.2731,-2.0314,-1.9497,-1.9039,-1.6608,-1.5784,-1.5784,-1.5784,-1.5784,-1.5784,-1.5784,-1.5784,-1.5784,-1.5784,-1.5398,-1.5531,-1.7688,-1.6111,-1.4741,-1.6895,-1.5677,-1.4208,-1.4208,-1.5918,-1.679,-1.5,-1.6527,-1.7321,-1.5537,-1.4422,-1.4135,-1.5163,-1.6035,-1.6602,-1.6636,-1.6636,-1.6245,-1.5288,-1.527,-1.528,-1.5271,-1.5317,-1.4991,-1.4273,-1.4991,-1.5021,-1.4234,-1.4991,-1.541,-1.541,-1.541,-1.541,-1.541,-1.541,-1.541,0.0,0.0,-1.481,-1.5391,-1.5758,-1.6005,-1.6099,-1.6126,-1.6126,-1.6126,-1.6206,-1.6333,-1.6526,-1.672,-1.7211,-1.8161,-1.8238,-1.9427,-2.2973,-2.3332,-2.4046,-2.6316,-2.6602,0.0,0.0,0.0,0.0,-2.7894,-2.7881,-2.7998,-2.8281,-2.8291,-2.8291,-2.8291,-2.8291,-2.8291,-2.8291,-2.8291,-2.8291,-2.8291,-2.8291,-2.7998,-2.7432,-2.7148,-2.6502,-2.5693,-2.5693,-2.5693,-2.5693,-2.5693,-2.5478,-2.5077,-2.459,-2.416,-2.374,-2.3257,-2.3091,-2.2862,-2.1257,-2.0169,-1.9222,-1.7584,-1.648,-1.5784,-1.5784,-1.5784,-1.5784,-1.5784,-1.5784,-1.5784,-1.5784,-1.5538,-1.5599,-1.6823,-1.572,-1.4694,-1.5955,-1.5103,-1.4328,-1.5019,-1.6322,-1.7056,-1.6251,-1.7097,-1.7284,-1.5484,-1.5438,-1.5508,-1.5234,-1.6,-1.6602,-1.6602,-1.6035,-1.5261,-1.4271,-1.4393,-1.4476,-1.4378,-1.4029,-1.3944,-1.4183,-1.4451,-1.4481,-1.4213,-1.4991,-1.541,-1.541,-1.541,-1.541,-1.541,-1.541,-1.541,0.0,-1.4897,-1.5257,-1.5845,-1.6132,-1.6321,-1.6321,-1.6192,-1.6112,-1.6112,-1.6032,-1.6052,-1.6339,-1.6306,-1.646,-1.7154,-1.7609,-1.8975,-2.2132,-2.2382,-2.3297,-2.6256,-2.6054,0.0,0.0,0.0,0.0,-2.7679,-2.7855,-2.8008,-2.8281,-2.8291,-2.8291,-2.8291,-2.8291,-2.8291,-2.8291,-2.8291,-2.8291,-2.8291,-2.8135,-2.7695,-2.7012,-2.6865,-2.6406,-2.5693,-2.5693,-2.5693,-2.5693,-2.5693,-2.5566,-2.5244,-2.4648,-2.4248,-2.3945,-2.3315,-2.3091,-2.2916,-2.1702,-2.0531,-1.9314,-1.8095,-1.7131,-1.6386,-1.592,-1.6109,-1.6386,-1.592,-1.5784,-1.5784,-1.5784,-1.5611,-1.5586,-1.6411,-1.5544,-1.4731,-1.5529,-1.4852,-1.4292,-1.497,-1.5992,-1.6531,-1.5856,-1.5915,-1.5674,-1.4519,-1.5023,-1.5473,-1.5234,-1.5728,-1.5965,-1.5614,-1.5013,-1.4414,-1.3738,-1.3731,-1.383,-1.3966,-1.3465,-1.3194,-1.3334,-1.3906,-1.4055,-1.3786,-1.4844,-1.541,-1.541,-1.541,-1.541,-1.541,-1.541,-1.541,-1.4894,-1.5217,-1.5585,-1.6221,-1.6355,-1.6342,-1.6342,-1.6066,-1.5798,-1.5764,-1.5578,-1.5451,0.0,0.0,-1.5658,-1.652,-1.7181,-1.8716,-2.1851,-2.1285,-2.214,0.0,0.0,0.0,0.0,0.0,0.0,-2.7689,0.0,-2.8271,-2.8291,-2.8291,-2.8291,-2.8291,-2.8291,-2.8291,-2.8291,-2.8291,-2.8291,-2.8291,-2.7861,-2.7432,-2.7002,-2.6582,-2.6152,-2.5693,-2.5693,-2.5693,-2.5693,-2.5693,-2.5674,-2.5567,-2.4709,-2.4404,-2.4287,-2.3403,-2.3091,-2.295,-2.18,-2.0576,-1.9314,-1.8234,-1.7777,-1.7451,-1.6244,-1.6756,-1.7412,-1.6157,-1.5784,-1.5784,-1.5784,-1.5625,-1.5606,-1.633,-1.5514,-1.4752,-1.5445,-1.4817,-1.413,-1.4166,-1.5005,-1.5255,-1.3926,-1.3179,-1.2822,-1.286,-1.3297,-1.3991,-1.4985,-1.5128,-1.4772,-1.381,-1.3709,-1.3673,-1.3637,-1.334,-1.3435,-1.3999,-1.3591,-1.2877,-1.1872,-1.3304,-1.3756,-1.2948,-1.4569,-1.5381,-1.5352,-1.5381,-1.541,-1.541,-1.541,-1.541,-1.5451,-1.5825,-1.6241,-1.6831,-1.676,-1.6593,-1.6593,-1.6366,-1.6032,-1.5598,-1.5277,-1.503,0.0,0.0,0.0,-1.5945,-1.6914,0.0,-2.1851,-2.1744,0.0,0.0,0.0,-2.5605,-2.6878,-2.7314,0.0,0.0,-2.7816,-2.7959,-2.8271,-2.8291,-2.8291,-2.8291,-2.8291,-2.8291,-2.8291,-2.8291,-2.8291,-2.8291,-2.7861,-2.7432,-2.7002,-2.6582,-2.6152,-2.5693,-2.5693,-2.5693,-2.5693,-2.5693,-2.5537,-2.5185,-2.4629,-2.4228,-2.3887,-2.3296,-2.3091,-2.3047,-2.2775,-2.1266,-1.9579,-2.0169,-1.9177,-1.7645,-1.7318,-1.7458,-1.7412,-1.6157,-1.5784,-1.5784,-1.5784,-1.5724,-1.5638,-1.5431,-1.512,-1.4798,-1.4564,-1.4286,-1.4328,-1.5137,-1.5346,-1.5274,-1.4918,-1.3715,-1.3051,-1.3757,-1.3156,-1.2989,-1.3954,-1.4099,-1.3991,-1.3745,-1.3709,-1.3419,-1.2732,-1.358,-1.3899,-1.3382,-1.2811,-1.2374,-1.2099,-1.2894,-1.294,-1.2112,-1.4255,-1.5108,-1.451,-1.5108,-1.541,-1.541,-1.541,-1.541,-1.5899,-1.6333,-1.679,-1.7119,-1.6927,-1.6673,-1.6547,-1.6192,-1.5718,-1.513,-1.4783,0.0,0.0,0.0,0.0,0.0,0.0,0.0,-2.1172,-2.0816,-2.1574,0.0,-2.4942,0.0,-2.5512,-2.7026,-2.7709,0.0,-2.7603,-2.8047,-2.8281,-2.8291,-2.8291,-2.8291,-2.8291,-2.8291,-2.8291,-2.8291,-2.8291,-2.8281,-2.7666,-2.7246,-2.6992,-2.6377,-2.5967,-2.5693,0.0,-2.5693,-2.5693,-2.5693,-2.5478,-2.5077,-2.459,-2.416,-2.374,-2.3257,-2.3091,-2.3091,-2.3091,-2.1854,-2.0395,-2.1069,-2.0395,-1.9085,-1.8002,-1.8048,-1.8133,-1.6292,-1.5784,-1.5784,-1.5784,-1.5784,-1.5678,-1.5149,-1.5008,-1.4847,-1.4215,-1.4088,-1.4292,-1.4894,-1.4876,-1.4755,-1.4755,-1.3876,-1.3289,-1.3694,-1.3065,-1.2668,-1.3039,-1.3098,-1.3098,-1.3098,-1.3098,-1.3025,-1.2915,-1.3279,-1.3437,-1.3204,-1.2335,-1.1798,-1.1696,-1.2195,-1.2266,-1.1803,-1.3476,-1.4115,-1.3666,-1.4124,-1.4362,-1.4362,-1.4362,-1.4362,-1.6246,-1.6784,-1.7199,-1.7199,-1.6927,-1.662,-1.6286,-1.5758,-1.5157,-1.4492,0.0,0.0,-1.3868,0.0,-1.4382,-1.5431,0.0,-1.7585,-2.0193,-1.9428,-1.9876,-2.3349,-2.358,-2.3538,-2.3789,-2.6336,-2.7501,-2.6209,-2.7276,-2.8067,-2.8291,-2.8291,-2.8291,-2.8291,-2.8291,-2.8291,-2.8291,-2.8291,-2.8262,-2.8203,-2.7402,-2.6982,-2.6904,-2.6054,-2.5693,-2.5693,0.0,0.0,-2.5684,-2.5625,-2.542,-2.5067,-2.4521,-2.4111,-2.374,-2.3257,-2.3091,-2.3091,-2.3091,-2.2394,-2.1525,-2.1525,-2.1426,-2.089,-1.8634,-1.8688,-1.8993,-1.652,-1.5784,-1.5784,-1.5784,-1.5784,-1.5678,-1.5149,-1.5008,-1.4847,-1.4215,-1.4088,-1.4088,-1.4088,-1.4088,-1.4088,-1.4088,-1.3841,-1.3513,-1.3307,-1.2973,-1.269,-1.2392,-1.2325,-1.2305,-1.2305,-1.2409,-1.2769,-1.3455,-1.2879,-1.2694,-1.313,-1.2096,-1.1369,-1.1122,-1.1639,-1.1875,-1.175,-1.2607,-1.2983,-1.2891,-1.2972,-1.3009,-1.3009,-1.3009,-1.3009,-1.6547,-1.6938,-1.7199,-1.7199,-1.6927,-1.6567,-1.6025,-1.5458,0.0,0.0,0.0,-1.3206,-1.2705,-1.318,0.0,-1.4592,0.0,0.0,0.0,0.0,-1.9977,0.0,0.0,0.0,0.0,0.0,0.0,0.0,0.0,0.0,-2.8237,-2.8291,-2.8291,-2.8291,-2.8291,-2.8291,-2.8291,-2.8291,-2.8115,-2.7826,-2.7256,-2.6836,-2.6484,-2.5967,-2.5693,-2.5693,0.0,0.0,-2.5664,-2.5332,-2.5137,-2.5037,-2.4209,-2.3857,-2.374,-2.3257,-2.3091,-2.3091,-2.3091,-2.296,-2.2775,-2.2775,-2.212,-2.1025,-1.9625,-1.9314,-1.8993,-1.652,-1.5784,-1.5784,-1.5784,-1.5784,-1.5678,-1.5149,-1.5008,-1.4847,-1.4215,-1.4088,-1.4088,-1.4088,-1.4088,-1.4088,-1.4088,-1.3841,-1.3586,-1.3533,-1.31,-1.2764,-1.2717,-1.2452,-1.2305,-1.2305,-1.2989,-1.32,-1.2586,-1.3098,-1.3186,-1.2517,-1.2058,-1.1806,-1.1752,-1.2248,-1.221,-1.1465,-1.2706,-1.3004,-1.2328,-1.2779,-1.3009,-1.3009,-1.3009,-1.3009,-1.6667,-1.7034,-1.7387,-1.7239,-1.6927,-1.6473,-1.5585,0.0,0.0,0.0,0.0,-1.2425,-1.2167,0.0,0.0,0.0,0.0,0.0,0.0,0.0,0.0,0.0,0.0,0.0,0.0,0.0,0.0,0.0,0.0,0.0,-2.8237,-2.8291,-2.8291,-2.8291,-2.8291,-2.8291,-2.8291,-2.8291,-2.8086,-2.7708,-2.7217,-2.6797,-2.6367,-2.5888,-2.5693,-2.5693,-2.5693,0.0,-2.5654,-2.5254,-2.4979,-2.4668,-2.4043,-2.3652,-2.3428,-2.3169,-2.3091,-2.3091,-2.3091,-2.3091,-2.3091,-2.3091,-2.2262,-2.1069,-1.9852,-1.9039,-1.818,-1.6339,-1.5784,-1.5784,-1.5784,-1.5784,-1.5678,-1.5149,-1.4774,-1.4429,-1.4148,-1.4088,-1.4088,-1.4088,-1.4088,-1.4088,-1.4088,-1.3968,-1.378,-1.3626,-1.3267,-1.2965,-1.2804,-1.2522,-1.2305,-1.2305,-1.2703,-1.2806,-1.2335,-1.2696,-1.2769,-1.2342,-1.2067,-1.1906,-1.1906,-1.1999,-1.1833,-1.143,-1.1885,-1.1949,-1.1591,-1.1692,-1.1756,-1.1756,-1.1756,-1.1756,-1.6613,-1.6994,-1.7321,-1.7085,-1.674,-1.6226,-1.5124,-1.4362,0.0,0.0,0.0,-1.177,-1.177,0.0,0.0,0.0,0.0,0.0,0.0,0.0,0.0,0.0,0.0,0.0,0.0,0.0,0.0,0.0,0.0,0.0,0.0,-2.8291,-2.8291,-2.8291,-2.8291,-2.8252,-2.8164,-2.8154,-2.79,-2.7444,-2.7041,-2.666,-2.624,-2.5889,-2.5693,-2.5693,-2.5693,0.0,0.0,-2.5107,-2.4668,-2.4238,-2.3818,-2.3437,-2.3091,-2.3091,-2.3091,-2.3091,-2.3091,-2.2916,-2.2721,-2.2721,-2.2076,-2.1069,-1.9852,-1.868,-1.7412,-1.6157,-1.5784,-1.5784,-1.5784,-1.5784,-1.5678,-1.5149,-1.4559,-1.4088,-1.4088,-1.4088,-1.4088,-1.4088,-1.4088,-1.4088,-1.4088,-1.4088,-1.4008,-1.3733,-1.3487,-1.3193,-1.2924,-1.2623,-1.2371,-1.2311,-1.2305,-1.2305,-1.2305,-1.2305,-1.2305,-1.2305,-1.2091,-1.2,-1.2,-1.1737,-1.1575,-1.1575,-1.1263,-1.1089,-1.1082,-1.0767,-1.0593,-1.0593,-1.0593,-1.0593,-1.6362,-1.6547,-1.672,-1.6426,-1.6132,-1.5671,-1.477,0.0,0.0,0.0,-1.167,-1.147,-1.147,0.0,0.0,0.0,0.0,0.0,0.0,0.0,0.0,0.0,0.0,0.0,0.0,0.0,0.0,0.0,0.0,0.0,0.0,-2.8291,-2.8291,-2.8291,-2.8291,-2.8105,-2.7777,-2.7777,-2.7366,-2.6504,-2.6465,-2.6211,-2.5742,-2.5703,-2.5693,-2.5693,0.0,0.0,0.0,-2.4658,-2.4228,-2.3809,-2.3369,-2.313,-2.3091,-2.3091,-2.3091,-2.3091,-2.3091,-2.2403,-2.148,-2.148,-2.1382,-2.1069,-1.9852,-1.868,-1.7412,-1.6157,-1.5784,-1.5784,-1.5784,-1.5784,-1.5678,-1.5149,-1.4559,-1.4088,-1.4088,-1.4088,-1.4088,-1.4088,-1.4088,-1.4088,-1.4088,-1.4088,-1.4075,-1.4048,-1.3753,-1.346,-1.3206,-1.2938,-1.2643,-1.2331,-1.2305,-1.2305,-1.2305,-1.2305,-1.2305,-1.2305,-1.2278,-1.2265,-1.2265,-1.2238,-1.2225,-1.2225,-1.1635,-1.1349,-1.1349,-1.0861,-1.0593,-1.0593,-1.0593,-1.0593,-1.6179,-1.6486,-1.664,-1.6395,-1.6052,-1.5551,-1.4502,0.0,0.0,-1.1784,-1.1229,-1.1009,-1.1329,-1.1476,0.0,0.0,0.0,0.0,0.0,0.0,0.0,0.0,0.0,0.0,0.0,0.0,0.0,0.0,0.0,0.0,0.0,-2.6425,-2.5883,-2.6526,-2.657,-2.6816,-2.7275,-2.7275,-2.6973,-2.6387,-2.6387,-2.5737,-2.451,-2.451,-2.4048,-2.3267,0.0,0.0,0.0,-2.2888,-2.2869,-2.2728,-2.2992,-2.3091,-2.3091,-2.3091,-2.3091,-2.3091,-2.3091,-2.2306,-2.1436,-2.2164,-2.0899,-1.9039,-1.8549,-1.7537,-1.6433,-1.592,-1.5784,-1.5784,-1.5784,-1.5571,-1.5251,-1.5062,-1.4559,-1.4088,-1.4088,-1.4088,-1.4088,-1.4088,-1.4088,-1.4088,-1.4088,-1.4088,-1.4088,-1.4088,-1.3793,-1.35,-1.3247,-1.2978,-1.267,-1.2338,-1.2305,-1.2305,-1.2305,-1.2305,-1.2305,-1.2305,-1.2305,-1.2305,-1.2305,-1.2305,-1.2305,-1.2305,-1.1904,-1.1603,-1.1389,-1.1015,-1.076,-1.0593,-1.0593,-1.0593,-1.5879,-1.6226,-1.6393,-1.6192,-1.5858,-1.5291,0.0,0.0,-1.2402,-1.1476,-1.0935,-1.0747,-1.1209,-1.1202,-1.145,0.0,0.0,0.0,0.0,0.0,0.0,0.0,0.0,0.0,0.0,0.0,0.0,0.0,0.0,0.0,0.0,-2.3586,-2.3767,-2.5825,-2.5869,-2.6172,-2.6836,-2.64,-2.5977,-2.5616,-2.5199,-2.4322,-2.3126,-2.3003,-2.2445,-2.1511,0.0,0.0,0.0,-2.1824,-2.2144,-2.237,-2.29,-2.3091,-2.3047,-2.2677,-2.2589,-2.2589,-2.2589,-2.1756,-2.089,-2.1765,-2.0096,-1.7645,-1.7271,-1.6527,-1.5784,-1.5784,-1.5784,-1.5784,-1.5784,-1.5398,-1.5008,-1.5008,-1.4559,-1.4088,-1.4088,-1.4088,-1.4088,-1.4088,-1.4088,-1.4088,-1.4088,-1.4088,-1.4088,-1.4088,-1.3908,-1.3626,-1.338,-1.3073,-1.2804,-1.2465,-1.2351,-1.2305,-1.2305,-1.2305,-1.2305,-1.2305,-1.2305,-1.2305,-1.2305,-1.2305,-1.2305,-1.2305,-1.2053,-1.1764,-1.1557,-1.1176,-1.0889,-1.072,-1.0633,-1.0713,-1.5324,-1.5618,-1.5791,-1.5832,-1.5398,-1.4743,0.0,-1.2914,-1.2058,-1.1176,-1.0801,-1.068,-1.0942,-1.1229,-1.1617,0.0,0.0,0.0,0.0,0.0,0.0,0.0,0.0,0.0,0.0,0.0,0.0,0.0,0.0,0.0,0.0,0.0,-2.2536,-2.6868,-2.697,-2.6816,-2.6396,-2.5015,-2.413,-2.3692,-2.2366,-2.1752,-2.1685,-2.1371,-2.1205,0.0,0.0,0.0,0.0,-2.1988,-2.2432,-2.3101,-2.3101,-2.3091,-2.296,-2.1756,-2.1337,-2.1337,-2.1337,-2.0531,-1.9542,-1.9534,-1.868,-1.7458,-1.6197,-1.5832,-1.5784,-1.5784,-1.5784,-1.5784,-1.5784,-1.5398,-1.5008,-1.5008,-1.4559,-1.4088,-1.4088,-1.4088,-1.4088,-1.4088,-1.4088,-1.4088,-1.4088,-1.4088,-1.4088,-1.4088,-1.4082,-1.3975,-1.3633,-1.3347,-1.3086,-1.2811,-1.2516,-1.2305,-1.2305,-1.2305,-1.2305,-1.2305,-1.2305,-1.2305,-1.2305,-1.2305,-1.2305,-1.2305,-1.2053,-1.1906,-1.1899,-1.1276,-1.0995,-1.0982,-1.0727,-1.1021,-1.4122,-1.4512,-1.4792,-1.4392,-1.4153,-1.3881,-1.3186,-1.2536,-1.181,-1.1129,-1.0794,-1.068,-1.0942,-1.0909,-1.1256,-1.2449,0.0,0.0,0.0,0.0,0.0,0.0,0.0,0.0,0.0,0.0,0.0,0.0,0.0,0.0,0.0,0.0,-2.1905,-2.2273,-2.2273,-2.2567,-2.316,-2.2739,-2.2477,-2.2316,-2.1904,-2.1115,-1.9992,-1.9884,0.0,0.0,0.0,0.0,0.0,-1.8816,-1.9206,-1.9505,-2.0314,-2.0629,-2.0584,-2.0215,-2.0567,-2.1159,-2.035,-1.9807,-1.9497,-1.9497,-1.8079,-1.648,-1.6943,-1.648,-1.5784,-1.5784,-1.5784,-1.5784,-1.5784,-1.5545,-1.5211,-1.5055,-1.4669,-1.4329,-1.4128,-1.4088,-1.4088,-1.4088,-1.4088,-1.4088,-1.4088,-1.4088,-1.4088,-1.4088,-1.4088,-1.3981,-1.364,-1.3527,-1.3313,-1.2837,-1.2697,-1.2563,-1.2318,-1.2305,-1.2305,-1.2305,-1.2305,-1.2305,-1.2305,-1.2305,-1.2305,-1.2305,-1.2211,-1.2064,-1.1906,-1.1718,-1.149,-1.1283,-1.0989,-1.1119,0.0,-1.3786,-1.4086,-1.3833,-1.3606,-1.328,-1.2757,-1.2124,-1.1536,-1.0981,-1.072,-1.0646,-1.0827,-1.0807,-1.1055,-1.1973,0.0,0.0,0.0,0.0,0.0,0.0,0.0,0.0,0.0,0.0,0.0,0.0,0.0,0.0,0.0,0.0,-2.0614,-1.9211,-2.0144,-2.1016,-2.1702,-2.1194,-2.0896,-2.0888,-2.0303,-1.9489,-1.8441,-1.8203,0.0,0.0,0.0,0.0,0.0,-1.7446,-1.7963,-1.8457,-1.9222,-1.9497,-1.9451,-1.9001,-1.9314,-1.9852,-1.9085,-1.8818,-1.8818,-1.8818,-1.7444,-1.5967,-1.6756,-1.6433,-1.5784,-1.5784,-1.5784,-1.5758,-1.5698,-1.5451,-1.5157,-1.4863,-1.4569,-1.4309,-1.4128,-1.4088,-1.4088,-1.4088,-1.4088,-1.4088,-1.4088,-1.4088,-1.4088,-1.4088,-1.4088,-1.4021,-1.3834,-1.3673,-1.346,-1.3126,-1.2918,-1.271,-1.2522,-1.2365,-1.2305,-1.2305,-1.2305,-1.2305,-1.2305,-1.2305,-1.2305,-1.2305,-1.2305,-1.2211,-1.2067,-1.196,-1.1717,-1.1389,-1.1243,-1.1196,0.0,-1.3194,-1.3507,-1.3801,-1.3474,-1.2933,-1.2345,-1.1784,0.0,-1.0707,-1.0593,-1.06,-1.0646,-1.0841,-1.1002,-1.1129,0.0,0.0,0.0,0.0,0.0,0.0,0.0,0.0,0.0,0.0,0.0,0.0,0.0,0.0,0.0,0.0,0.0,-1.7574,-2.0,-2.1383,-2.1357,-2.0097,-1.9428,-1.9406,-1.7897,-1.7159,-1.7119,-1.6569,0.0,0.0,0.0,0.0,0.0,-1.7552,-1.8226,-1.9222,-1.9222,-1.9222,-1.9085,-1.8002,-1.7638,-1.7692,-1.7598,-1.7638,-1.7692,-1.7591,-1.6756,-1.5784,-1.5784,-1.5784,-1.5784,-1.5784,-1.5764,-1.5684,-1.5464,-1.5177,-1.4934,-1.4589,-1.4315,-1.4115,-1.4088,-1.4088,-1.4088,-1.4088,-1.4088,-1.4088,-1.4088,-1.4088,-1.4088,-1.4088,-1.4088,-1.4088,-1.4088,-1.3848,-1.3626,-1.3606,-1.3126,-1.2811,-1.279,-1.2472,-1.2305,-1.2305,-1.2305,-1.2305,-1.2305,-1.2305,-1.2305,-1.2305,-1.2305,-1.2305,-1.2305,-1.2067,-1.1757,-1.1455,-1.1429,-1.1323,-1.0576,0.0,-1.1875,-1.1757,-1.1784,-1.1715,0.0,-1.1196,-1.0995,-1.0667,0.0,0.0,-1.1142,-1.0915,0.0,0.0,0.0,0.0,0.0,0.0,0.0,0.0,0.0,0.0,0.0,0.0,0.0,0.0,0.0,0.0,0.0,0.0,0.0,-1.6921,-1.755,-1.8009,-1.8249,-1.7956,-1.764,-1.7406,-1.6985,-1.6693,-1.6522,-1.6382,0.0,0.0,0.0,0.0,-1.6244,-1.6244,-1.6426,-1.6655,-1.6655,-1.6655,-1.6655,-1.6339,-1.685,-1.7552,-1.6574,-1.6897,-1.7552,-1.6574,-1.6062,-1.5784,-1.5784,-1.5784,-1.5784,-1.5784,-1.5671,-1.5484,-1.5418,-1.5177,-1.4934,-1.4589,-1.4469,-1.4355,-1.4135,-1.4088,-1.4088,-1.4088,-1.4088,-1.4088,-1.4088,-1.4088,-1.4088,-1.4088,-1.4088,-1.4088,-1.4088,-1.4021,-1.3895,-1.3626,-1.332,-1.3006,-1.2804,-1.2472,-1.2305,-1.2305,-1.2305,-1.2305,-1.2305,-1.2305,-1.2305,-1.2305,-1.2305,-1.2305,-1.2305,-1.2231,-1.2164,-1.2091,-1.1864,-1.185,-0.9564,-1.0454,-1.1223,-1.1196,-1.1209,-1.1223,-1.1196,0.0,0.0,0.0,0.0,0.0,0.0,0.0,0.0,0.0,0.0,0.0,0.0,0.0,0.0,0.0,0.0,0.0,0.0,0.0,0.0,0.0,0.0,0.0,0.0,0.0,0.0,0.0,-1.6707,-1.678,-1.6947,-1.6947,-1.6867,-1.6707,-1.6573,-1.6426,-1.6266,-1.6132,0.0,0.0,0.0,0.0,-1.5784,-1.5784,-1.5784,-1.5784,-1.5784,-1.5784,-1.5784,-1.5784,-1.6251,-1.6716,-1.6062,-1.6244,-1.6709,-1.6015,-1.5784,-1.5758,-1.5671,-1.5631,-1.5631,-1.5631,-1.5518,-1.5337,-1.5064,-1.4877,-1.4689,-1.4389,-1.4322,-1.4282,-1.4122,-1.4088,-1.4088,-1.4088,-1.4088,-1.4088,-1.4088,-1.4088,-1.4088,-1.4088,-1.4088,-1.4088,-1.4088,-1.4088,-1.4021,-1.3868,-1.354,-1.3287,-1.3025,-1.2717,-1.2445,-1.2311,-1.2305,-1.2305,-1.2305,-1.2305,-1.2305,-1.2305,-1.2305,-1.2305,-1.2305,-1.2305,-1.2305,-1.2298,-1.2138,-1.2084,-0.9191,-1.01,-1.0975,-1.1176,-1.1109,-1.1049,-1.1249,0.0,0.0,0.0,0.0,0.0,0.0,0.0,0.0,0.0,0.0,0.0,0.0,0.0,0.0,0.0,0.0,0.0,0.0,0.0,0.0,0.0,0.0,0.0,0.0,0.0,0.0,0.0,-1.6573,-1.6573,-1.6573,-1.662,-1.662,-1.6573,-1.6319,-1.6206,-1.6192,-1.5945,0.0,0.0,0.0,0.0,-1.5784,-1.5784,-1.5784,-1.5784,-1.5784,-1.5784,-1.5784,-1.5784,-1.5784,-1.5784,-1.5784,-1.5784,-1.5784,-1.5784,-1.5751,-1.5718,-1.5471,-1.5364,-1.5317,-1.5277,-1.5264,-1.515,-1.4649,-1.4489,-1.4389,-1.4142,-1.4088,-1.4088,-1.4088,-1.4088,-1.4088,-1.4088,-1.4088,-1.4088,-1.4088,-1.4088,-1.4088,-1.4088,-1.4088,-1.4088,-1.4088,-1.4088,-1.4088,-1.4088,-1.374,-1.344,-1.3233,-1.2924,-1.261,-1.2318,-1.2305,-1.2305,-1.2305,-1.2305,-1.2305,-1.2305,-1.2305,-1.2305,-1.2305,-1.2305,-1.2305,-1.2305,-1.2305,-1.2171,-0.9466,-1.0137,-1.0606,-1.0367,-1.0655,-1.0942,-1.0774,0.0,0.0,0.0,0.0,0.0,0.0,0.0,0.0,0.0,0.0,0.0,0.0,0.0,0.0,0.0,0.0,0.0,0.0,0.0,0.0,0.0,0.0,0.0,0.0,0.0,0.0,0.0,0.0,-1.5917,-1.5917,-1.6213,-1.6213,-1.5917,-1.5919,-1.5899,-1.5899,-1.5804,-1.5784,0.0,0.0,-1.5784,-1.5784,-1.5784,-1.5784,-1.5784,-1.5784,-1.5784,-1.5784,-1.5784,-1.5784,-1.5784,-1.5784,-1.5784,-1.5784,-1.5784,-1.5665,-1.5451,-1.5411,-1.5224,-1.5022,-1.4723,-1.4656,-1.4636,-1.4543,-1.4335,-1.4142,-1.4095,-1.4088,-1.4088,-1.4088,-1.4088,-1.4088,-1.4088,-1.4088,-1.4088,-1.4088,-1.4088,-1.4088,-1.4088,-1.4088,-1.4088,-1.4088,-1.4088,-1.4088,-1.4088,-1.3601,-1.326,-1.3213,-1.2692,-1.2351,-1.2305,-1.2305,-1.2305,-1.2305,-1.2305,-1.2305,-1.2305,-1.2305,-1.2305,-1.2305,-1.2305,-1.2305,-1.2305,-1.2305,-1.2278,-0.9138,-0.9753,-1.0287,-1.0147,-1.0643,-1.1236,-1.1296,0.0,0.0,0.0,0.0,0.0,0.0,0.0,0.0,0.0,0.0,0.0,0.0,0.0,0.0,0.0,0.0,0.0,0.0,0.0,0.0,0.0,0.0,0.0,0.0,0.0,0.0,0.0,0.0,-1.5784,-1.5784,-1.5965,-1.5965,-1.5784,-1.5784,-1.5784,-1.5784,-1.5784,-1.5784,-1.5784,0.0,-1.5784,-1.5784,-1.5784,-1.5784,-1.5784,-1.5784,-1.5784,-1.5784,-1.5784,-1.5784,-1.5784,-1.5784,-1.5784,-1.5784,-1.5784,-1.5631,-1.5364,-1.5211,-1.4957,-1.4663,-1.4369,-1.4396,-1.4482,-1.4322,-1.4188,-1.4088,-1.4088,-1.4088,-1.4088,-1.4088,-1.4088,-1.4088,-1.4088,-1.4088,-1.4088,-1.4088,-1.4088,-1.4088,-1.4088,-1.4088,-1.4088,-1.4088,-1.4088,-1.4088,-1.4088,-1.3848,-1.3554,-1.324,-1.2953,-1.2652,-1.2325,-1.2305,-1.2305,-1.2305,-1.2305,-1.2305,-1.2305,-1.2305,-1.2305,-1.2305,-1.2305,-1.2305,-1.2305,-1.2305,-1.2305,-0.9078,-0.9552,-1.0047,-1.0187,-1.0728,-1.1336,-1.1806,0.0,0.0,0.0,0.0,0.0,0.0,0.0,0.0,0.0,0.0,0.0,0.0,0.0,0.0,0.0,0.0,0.0,0.0,0.0,0.0,0.0,0.0,0.0,0.0,0.0,0.0,0.0,0.0,0.0,-1.5784,-1.5784,-1.5784,-1.5784,-1.5784,-1.5784,-1.5784,-1.5784,-1.5784,-1.5784,-1.5784,-1.5784,-1.5784,-1.5784,-1.5784,-1.5784,-1.5784,-1.5784,-1.5784,-1.5784,-1.5784,-1.5784,-1.5784,-1.5738,-1.5732,-1.5732,-1.5484,-1.515,-1.493,-1.4656,-1.4369,-1.4148,-1.4249,-1.4369,-1.4142,-1.4088,-1.4088,-1.4088,-1.4088,-1.4088,-1.4088,-1.4088,-1.4088,-1.4088,-1.4088,-1.4088,-1.4088,-1.4088,-1.4088,-1.4088,-1.4088,-1.4088,-1.4088,-1.4088,-1.4088,-1.4088,-1.4021,-1.3741,-1.3153,-1.3039,-1.2799,-1.2331,-1.2305,-1.2305,-1.2305,-1.2305,-1.2305,-1.2305,-1.2305,-1.2305,-1.2305,-1.2305,-1.2305,-1.2305,-1.2305,-1.2305,-0.9844,-0.9873,-0.9876,-1.0425,-1.0606,0.0,-1.1718,-1.143,0.0,0.0,0.0,0.0,0.0,0.0,0.0,0.0,0.0,0.0,0.0,0.0,0.0,0.0,0.0,0.0,0.0,0.0,0.0,0.0,0.0,0.0,0.0,0.0,0.0,0.0,0.0,0.0,-1.5784,-1.5784,-1.5784,-1.5784,-1.5784,-1.5784,-1.5784,-1.5784,-1.5784,-1.5784,-1.5784,-1.5784,-1.5784,-1.5784,-1.5784,-1.5784,-1.5784,-1.5784,-1.5784,-1.5784,-1.5784,-1.5784,-1.5784,-1.5651,-1.5431,-1.5431,-1.5044,-1.4576,-1.4556,-1.4349,-1.4115,-1.4095,-1.4102,-1.4115,-1.4095,-1.4088,-1.4088,-1.4088,-1.4088,-1.4088,-1.4088,-1.4088,-1.4088,-1.4088,-1.4088,-1.4088,-1.4088,-1.4088,-1.4088,-1.4088,-1.4088,-1.4088,-1.4088,-1.4088,-1.4088,-1.4088,-1.3841,-1.3434,-1.2871,-1.2525,-1.2351,-1.2305,-1.2305,-1.2305,-1.2305,-1.2305,-1.2305,-1.2305,-1.2305,-1.2305,-1.2305,-1.2305,-1.2305,-1.2305,-1.2305,-1.2305,-0.9245,-0.9619,-1.0007,-1.0227,0.0,0.0,0.0,0.0,0.0,0.0,0.0,0.0,0.0,0.0,0.0,0.0,0.0,0.0,0.0,0.0,0.0,0.0,0.0,0.0,0.0,0.0,0.0,0.0,0.0,0.0,0.0,0.0,0.0,0.0,0.0,0.0,-1.5784,-1.5784,-1.5784,-1.5784,-1.5784,-1.5784,-1.5784,-1.5784,-1.5784,-1.5784,-1.5784,-1.5784,-1.5784,-1.5784,-1.5784,-1.5784,-1.5784,-1.5784,-1.5784,-1.5784,-1.5784,-1.5758,-1.5625,-1.5484,-1.5364,-1.519,-1.485,-1.4522,-1.4522,-1.4315,-1.4088,-1.4088,-1.4088,-1.4088,-1.4088,-1.4088,-1.4088,-1.4088,-1.4088,-1.4088,-1.4088,-1.4088,-1.4088,-1.4088,-1.4088,-1.4088,-1.4088,-1.4088,-1.4088,-1.4088,-1.4088,-1.4088,-1.4088,-1.4088,-1.4015,-1.3793,-1.3373,-1.3032,-1.2804,-1.2472,-1.2305,-1.2305,-1.2305,-1.2305,-1.2305,-1.2305,-1.2305,-1.2305,-1.2305,-1.2305,-1.2305,-1.2305,-1.2305,-1.2305,-1.2305,-1.2305,-0.8918,-0.9291,-0.9746,0.0,0.0,0.0,0.0,0.0,0.0,0.0,0.0,0.0,0.0,0.0,0.0,0.0,0.0,0.0,0.0,0.0,0.0,0.0,0.0,0.0,0.0,0.0,0.0,0.0,0.0,0.0,0.0,0.0,0.0,0.0,0.0,0.0,-1.5784,-1.5784,-1.5784,-1.5784,-1.5784,-1.5784,-1.5784,-1.5784,-1.5784,-1.5784,-1.5784,-1.5784,-1.5784,-1.5784,-1.5784,-1.5784,-1.5784,-1.5784,-1.5784,-1.5784,-1.5772,-1.5665,-1.5464,-1.5277,-1.509,-1.489,-1.4623,-1.4382,-1.4382,-1.4249,-1.4088,-1.4088,-1.4088,-1.4088,-1.4088,-1.4088,-1.4088,-1.4088,-1.4088,-1.4088,-1.4088,-1.4088,-1.4088,-1.4088,-1.4088,-1.4088,-1.4088,-1.4088,-1.4088,-1.4088,-1.4088,-1.4088,-1.4088,-1.4088,-1.3975,-1.3633,-1.3106,-1.2784,-1.2784,-1.2472,-1.2305,-1.2305,-1.2305,-1.2305,-1.2305,-1.2305,-1.2305,-1.2305,-1.2305,-1.2305,-1.2305,-1.2305,-1.2305,-1.2305,-1.2305,-1.2305,-0.9211,-0.9004,-0.8958,0.0,0.0,0.0,0.0,0.0,0.0,0.0,0.0,0.0,0.0,0.0,0.0,0.0,0.0,0.0,0.0,0.0,0.0,0.0,0.0,0.0,0.0,0.0,0.0,0.0,0.0,0.0,0.0,0.0,0.0,0.0,0.0,0.0,-1.5784,-1.5784,-1.5784,-1.5784,-1.5784,-1.5784,-1.5784,-1.5784,-1.5784,-1.5784,-1.5784,-1.5784,-1.5784,-1.5784,-1.5784,-1.5778,-1.5778,-1.5771,-1.5771,-1.5771,-1.5638,-1.5391,-1.5391,-1.5003,-1.4522,-1.4516,-1.4322,-1.4088,-1.4088,-1.4088,-1.4088,-1.4088,-1.4088,-1.4088,-1.4088,-1.4088,-1.4088,-1.4088,-1.4088,-1.4088,-1.4088,-1.4088,-1.4088,-1.4088,-1.4088,-1.4088,-1.4088,-1.4088,-1.4088,-1.4088,-1.4088,-1.4088,-1.4088,-1.4082,-1.3968,-1.3626,-1.31,-1.2784,-1.2784,-1.2472,-1.2305,-1.2305,-1.2305,-1.2305,-1.2305,-1.2305,-1.2305,-1.2305,-1.2305,-1.2305,-1.2305,-1.2305,-1.2305,-1.2305,-1.2305,-1.2305,-0.8911,-0.9297,0.0,0.0,0.0,0.0,0.0,0.0,0.0,0.0,0.0,0.0,0.0,0.0,0.0,0.0,0.0,0.0,0.0,0.0,0.0,0.0,0.0,0.0,0.0,0.0,0.0,0.0,0.0,0.0,0.0,0.0,0.0,0.0,0.0,0.0,-1.5784,-1.5784,-1.5784,-1.5784,-1.5784,-1.5784,-1.5784,-1.5784,-1.5784,-1.5784,-1.5784,-1.5784,-1.5784,-1.5784,-1.5712,-1.5524,-1.5524,-1.5398,-1.5217,-1.5217,-1.5209,-1.5057,-1.4856,-1.4663,-1.4489,-1.4282,-1.4155,-1.4088,-1.4088,-1.4088,-1.4088,-1.4088,-1.4088,-1.4088,-1.4088,-1.4088,-1.4088,-1.4088,-1.4088,-1.4088,-1.4088,-1.4088,-1.4088,-1.4088,-1.4088,-1.4088,-1.4088,-1.4088,-1.4088,-1.4088,-1.4088,-1.4088,-1.4088,-1.3728,-1.3434,-1.3347,-1.2799,-1.2438,-1.2438,-1.2351,-1.2305,-1.2305,-1.2305,-1.2305,-1.2305,-1.2305,-1.2305,-1.2305,-1.2305,-1.2305,-1.2305,-1.2305,-1.2305,-1.2305,-1.2305,-1.2305,-0.8891,0.0,0.0,0.0,0.0,0.0,0.0,0.0,0.0,0.0,0.0,0.0,0.0,0.0,0.0,0.0,0.0,0.0,0.0,0.0,0.0,0.0,0.0,0.0,0.0,0.0,0.0,0.0,0.0,0.0,0.0,0.0,0.0,0.0,0.0,0.0,-1.5484,-1.5484,-1.5484,-1.5484,-1.5484,-1.5484,-1.5491,-1.5678,-1.5784,-1.5771,-1.5705,-1.5591,-1.5484,-1.5484,-1.5384,-1.5224,-1.5224,-1.5117,-1.5008,-1.5008,-1.4934,-1.4763,-1.4583,-1.4442,-1.4315,-1.4142,-1.4088,-1.4088,-1.4088,-1.4088,-1.4088,-1.4088,-1.4088,-1.4088,-1.4088,-1.4088,-1.4088,-1.4088,-1.4088,-1.4088,-1.4088,-1.4088,-1.4088,-1.4088,-1.4088,-1.4088,-1.4088,-1.4088,-1.4088,-1.4088,-1.4088,-1.4041,-1.3928,-1.35,-1.3166,-1.3039,-1.2592,-1.2305,-1.2305,-1.2305,-1.2305,-1.2305,-1.2305,-1.2305,-1.2305,-1.2305,-1.2305,-1.2305,-1.2305,-1.2305,-1.2305,-1.2305,-1.2305,-1.2305,-1.2305,-1.2238,0.0,0.0,0.0,0.0,0.0,0.0,0.0,0.0,0.0,0.0,0.0,0.0,0.0,0.0,0.0,0.0,0.0,0.0,0.0,0.0,0.0,0.0,0.0,0.0,0.0,0.0,0.0,0.0,0.0,0.0,0.0,0.0,0.0,0.0,0.0,0.0,-1.5008,-1.5008,-1.5008,0.0,-1.5008,-1.5008,-1.5028,-1.5504,-1.5752,-1.5684,-1.5471,-1.5211,-1.5008,-1.5008,-1.4995,-1.4968,-1.4968,-1.4955,-1.4928,-1.4928,-1.4716,-1.4482,-1.4482,-1.4309,-1.4088,-1.4088,-1.4088,-1.4088,-1.4088,-1.4088,-1.4088,-1.4088,-1.4088,-1.4088,-1.4088,-1.4088,-1.4088,-1.4088,-1.4088,-1.4088,-1.4088,-1.4088,-1.4088,-1.4088,-1.4088,-1.4088,-1.4088,-1.4088,-1.4082,-1.4048,-1.4048,-1.3941,-1.36,-1.3347,-1.306,-1.2811,-1.2516,-1.2305,-1.2305,-1.2305,-1.2305,-1.2305,-1.2305,-1.2305,-1.2305,-1.2305,-1.2305,-1.2305,-1.2305,-1.2305,-1.2305,-1.2305,-1.2305,-1.2305,-1.2305,-1.2164,0.0,0.0,0.0,0.0,0.0,0.0,0.0,0.0,0.0,0.0,0.0,0.0,0.0,0.0,0.0,0.0,0.0,0.0,0.0,0.0,0.0,0.0,0.0,0.0,0.0,0.0,0.0,0.0,0.0,0.0,0.0,0.0,0.0,0.0,0.0,-1.5008,-1.5008,-1.5008,-1.5008,0.0,-1.5008,-1.5008,-1.5015,-1.5142,-1.515,-1.515,-1.5129,-1.5068,-1.5008,-1.5008,-1.4823,-1.4616,-1.4616,-1.4476,-1.4275,-1.4275,-1.4235,-1.4182,-1.4182,-1.4135,-1.4088,-1.4088,-1.4088,-1.4088,-1.4088,-1.4088,-1.4088,-1.4088,-1.4088,-1.4088,-1.4088,-1.4088,-1.4088,-1.4088,-1.4088,-1.4088,-1.4088,-1.4088,-1.4088,-1.4088,-1.4088,-1.4088,-1.4088,-1.4088,-1.4008,-1.3733,-1.37,-1.3593,-1.33,-1.3033,-1.2857,-1.279,-1.2516,-1.2305,-1.2305,-1.2305,-1.2305,-1.2305,-1.2305,-1.2305,-1.2305,-1.2305,-1.2305,-1.2305,-1.2305,-1.2305,-1.2305,-1.2305,-1.2305,-1.2305,-1.2305,-1.2271,0.0,0.0,0.0,0.0,0.0,0.0,0.0,0.0,0.0,0.0,0.0,0.0,0.0,0.0,0.0,0.0,0.0,0.0,0.0,0.0,0.0,0.0,0.0,0.0,0.0,0.0,0.0,0.0,0.0,0.0,0.0,0.0,0.0,0.0,-1.4586,-1.4586,-1.4586,-1.4586,-1.4586,-1.4586,-1.4586,-1.4586,-1.4599,-1.4881,-1.4928,-1.475,-1.475,-1.4676,-1.4586,-1.4586,-1.4449,-1.4315,-1.4315,-1.4222,-1.4088,-1.4088,-1.4088,-1.4088,-1.4088,-1.4088,-1.4088,-1.4088,-1.4088,-1.4088,-1.4088,-1.4088,-1.4088,-1.4088,-1.4088,-1.4088,-1.4088,-1.4088,-1.4088,-1.4088,-1.4088,-1.4088,-1.4088,-1.4088,-1.4088,-1.4088,-1.4088,-1.4088,-1.4088,-1.4088,-1.3988,-1.3646,-1.36,-1.3447,-1.3046,-1.2884,-1.273,-1.2589,-1.2392,-1.2305,-1.2305,-1.2305,-1.2305,-1.2305,-1.2305,-1.2305,-1.2305,-1.2305,-1.2305,-1.2305,-1.2305,-1.2305,-1.2305,-1.2305,-1.2305,-1.2305,-1.2305,-1.2225,0.0,0.0,0.0,0.0,0.0,0.0,0.0,0.0,0.0,0.0,0.0,0.0,0.0,0.0,0.0,0.0,0.0,0.0,0.0,0.0,0.0,0.0,0.0,0.0,0.0,0.0,0.0,0.0,0.0,0.0,0.0,0.0,-1.4062,-1.4015,-1.4008,-1.4035,-1.4088,-1.4035,-1.4035,-1.4088,-1.4088,-1.4088,-1.4108,-1.4633,-1.4676,-1.4442,-1.4442,-1.4309,-1.4088,-1.4088,-1.4088,-1.4088,-1.4088,-1.4088,-1.4088,-1.4088,-1.4088,-1.4088,-1.4088,-1.4088,-1.4088,-1.4088,-1.4088,-1.4088,-1.4088,-1.4088,-1.4088,-1.4088,-1.4088,-1.4088,-1.4088,-1.4088,-1.4088,-1.4088,-1.4088,-1.4088,-1.4088,-1.4088,-1.4088,-1.4088,-1.4088,-1.4088,-1.4088,-1.4088,-1.3968,-1.358,-1.3527,-1.3313,-1.2784,-1.2703,-1.2616,-1.2325,-1.2305,-1.2305,-1.2305,-1.2305,-1.2305,-1.2305,-1.2305,-1.2305,-1.2305,-1.2305,-1.2305,-1.2305,-1.2305,-1.2305,-1.2305,-1.2305,-1.2278,-1.2225,-1.2225,-1.2098,0.0,0.0,0.0,0.0,0.0,0.0,0.0,0.0,0.0,0.0,0.0,0.0,0.0,0.0,0.0,0.0,0.0,0.0,0.0,0.0,0.0,0.0,0.0,0.0,0.0,0.0,0.0,0.0,0.0,0.0,0.0,0.0,-1.3968,-1.3666,-1.366,-1.3828,-1.4082,-1.3793,-1.3793,-1.4088,-1.4088,-1.4088,-1.4088,-1.4168,-1.4182,-1.4142,-1.4142,-1.4122,-1.4088,-1.4088,-1.4088,-1.4088,-1.4088,-1.4088,-1.4088,-1.4088,-1.4088,-1.4088,-1.4088,-1.4088,-1.4088,-1.4088,-1.4088,-1.4088,-1.4088,-1.4088,-1.4088,-1.4088,-1.4088,-1.4088,-1.4088,-1.4088,-1.4088,-1.4088,-1.4088,-1.4088,-1.4088,-1.4088,-1.4088,-1.4088,-1.4088,-1.4088,-1.4088,-1.4088,-1.3901,-1.3353,-1.3267,-1.3046,-1.2438,-1.2365,-1.2345,-1.2305,-1.2305,-1.2305,-1.2305,-1.2305,-1.2305,-1.2305,-1.2305,-1.2305,-1.2305,-1.2305,-1.2305,-1.2305,-1.2305,-1.2305,-1.2305,-1.2305,-1.2171,-1.196,-1.196,-1.194,0.0,0.0,0.0,0.0,0.0,0.0,0.0,0.0,0.0,0.0,0.0,0.0,0.0,0.0,0.0,0.0,0.0,0.0,0.0,0.0,0.0,0.0,0.0,0.0,0.0,0.0,0.0,0.0,0.0,0.0,0.0,-1.3527,-1.3534,-1.3367,-1.336,0.0,-1.3594,-1.3467,-1.3467,-1.3601,-1.3601,-1.3601,-1.3601,-1.3601,-1.3774,-1.4088,-1.4088,-1.4088,-1.4088,-1.4088,-1.4088,-1.4088,-1.4088,-1.4088,-1.4088,-1.4088,-1.4088,-1.4088,-1.4088,-1.4088,-1.4088,-1.4088,-1.4088,-1.4088,-1.4088,-1.4088,-1.4088,-1.4088,-1.4088,-1.4088,-1.4088,-1.4088,-1.4088,-1.4088,-1.4088,-1.4088,-1.4088,-1.4088,-1.4088,-1.4088,-1.4088,-1.4088,-1.4088,-1.4088,-1.3888,-1.33,-1.3213,-1.2986,-1.2385,-1.2305,-1.2305,-1.2305,-1.2305,-1.2305,-1.2305,-1.2305,-1.2305,-1.2305,-1.2305,-1.2305,-1.2305,-1.2305,-1.2305,-1.2305,-1.2305,-1.2305,-1.2305,-1.2305,-1.2238,-1.2111,-1.2111,-1.2111,0.0,0.0,0.0,0.0,0.0,0.0,0.0,0.0,0.0,0.0,0.0,0.0,0.0,0.0,0.0,0.0,0.0,0.0,0.0,0.0,0.0,0.0,0.0,0.0,0.0,0.0,0.0,0.0,0.0,0.0,-1.3093,-1.3166,-1.3173,-1.3093,-1.3093,-1.3133,-1.3213,-1.3213,-1.3213,-1.3213,-1.3213,-1.3213,-1.3213,-1.3213,-1.3447,-1.3861,-1.3861,-1.3861,-1.3874,-1.3941,-1.3975,-1.3981,-1.4055,-1.4088,-1.4088,-1.4088,-1.4088,-1.4088,-1.4088,-1.4088,-1.4088,-1.4088,-1.4088,-1.4088,-1.4088,-1.4088,-1.4088,-1.4088,-1.4088,-1.4088,-1.4088,-1.4088,-1.4088,-1.4088,-1.4088,-1.4088,-1.4088,-1.4088,-1.4088,-1.4088,-1.4088,-1.4062,-1.3988,-1.3975,-1.3774,-1.318,-1.3093,-1.2899,-1.2371,-1.2305,-1.2305,-1.2305,-1.2305,-1.2305,-1.2305,-1.2305,-1.2305,-1.2305,-1.2305,-1.2305,-1.2305,-1.2305,-1.2305,-1.2305,-1.2305,-1.2305,-1.2305,-1.2225,-1.2191,-1.2191,-1.2037,-1.2011,0.0,0.0,0.0,0.0,0.0,0.0,0.0,0.0,0.0,0.0,0.0,0.0,0.0,0.0,0.0,0.0,0.0,0.0,0.0,0.0,0.0,0.0,0.0,0.0,0.0,0.0,0.0,0.0,0.0,0.0,-1.2824,-1.3053,-1.3073,-1.2817,-1.2811,-1.2951,-1.3206,-1.3213,-1.3213,-1.3213,-1.3213,-1.3213,-1.3213,-1.3213,-1.3227,-1.3253,-1.3253,-1.3253,-1.328,-1.3513,-1.3626,-1.3653,-1.3975,-1.4088,-1.4088,-1.4088,-1.4088,-1.4088,-1.4088,-1.4088,-1.4088,-1.4088,-1.4088,-1.4088,-1.4088,-1.4088,-1.4088,-1.4088,-1.4088,-1.4088,-1.4088,-1.4088,-1.4088,-1.4088,-1.4088,-1.4088,-1.4088,-1.4088,-1.4088,-1.4088,-1.4088,-1.4001,-1.3673,-1.3626,-1.342,-1.2898,-1.2811,-1.2697,-1.2345,-1.2305,-1.2305,-1.2305,-1.2305,-1.2305,-1.2305,-1.2305,-1.2305,-1.2305,-1.2305,-1.2305,-1.2305,-1.2305,-1.2305,-1.2305,-1.2305,-1.2305,-1.2305,-1.2024,-1.1926,-1.1913,-1.1323,-1.1209,0.0,0.0,0.0,0.0,0.0,0.0,0.0,0.0,0.0,0.0,0.0,0.0,0.0,0.0,0.0,0.0,0.0,0.0,0.0,0.0,0.0,0.0,0.0,0.0,0.0,0.0,0.0,0.0,0.0,0.0,-1.2465,-1.2565,-1.2579,-1.2465,-1.2496,-1.2518,-1.2625,-1.2625,-1.2625,-1.2625,-1.2625,-1.2625,-1.2625,-1.2625,-1.2625,-1.2625,-1.2625,-1.2852,-1.322,-1.328,-1.3327,-1.3353,-1.3646,-1.376,-1.3828,-1.4015,-1.4088,-1.4088,-1.4088,-1.4088,-1.4088,-1.4088,-1.4088,-1.4088,-1.4088,-1.4088,-1.4088,-1.4088,-1.4088,-1.4088,-1.4088,-1.4088,-1.4088,-1.4088,-1.4088,-1.4088,-1.4088,-1.3935,-1.3854,-1.4048,-1.3781,-1.3547,-1.3586,-1.3447,-1.3227,-1.2844,-1.2784,-1.2677,-1.2338,-1.2305,-1.2305,-1.2305,-1.2305,-1.2305,-1.2305,-1.2305,-1.2305,-1.2305,-1.2305,-1.2305,-1.2305,-1.2305,-1.2305,-1.2305,-1.2305,-1.2305,-1.2305,-1.2198,-1.2087,-1.1899,-1.1692,-1.151,0.0,0.0,0.0,0.0,0.0,0.0,0.0,0.0,0.0,0.0,0.0,0.0,0.0,0.0,0.0,0.0,0.0,0.0,0.0,0.0,0.0,0.0,0.0,0.0,0.0,0.0,0.0,0.0,0.0,0.0,-1.2305,-1.2305,-1.2305,-1.2305,-1.2305,-1.2305,-1.2305,-1.2305,-1.2305,-1.2305,-1.2305,-1.2305,-1.2305,-1.2305,-1.2305,-1.2305,-1.2305,-1.2532,-1.2913,-1.3013,-1.3053,-1.3086,-1.334,-1.346,-1.348,-1.3721,-1.3794,-1.3794,-1.3794,-1.3854,-1.3941,-1.3941,-1.3941,-1.3955,-1.4055,-1.4015,-1.3961,-1.4055,-1.4088,-1.4088,-1.4088,-1.4088,-1.4062,-1.3961,-1.3941,-1.3908,-1.3814,-1.3794,-1.378,-1.3921,-1.3621,-1.3313,-1.3347,-1.318,-1.2953,-1.2683,-1.2636,-1.2563,-1.2325,-1.2305,-1.2305,-1.2305,-1.2305,-1.2305,-1.2305,-1.2305,-1.2305,-1.2305,-1.2305,-1.215,-1.1805,-1.1805,-1.1805,-1.1805,-1.1805,-1.1959,-1.2305,-1.2204,-1.2058,-1.1899,-1.1705,-1.1416,0.0,0.0,0.0,0.0,0.0,0.0,0.0,0.0,0.0,0.0,0.0,0.0,0.0,0.0,0.0,0.0,0.0,0.0,0.0,0.0,0.0,0.0,0.0,0.0,0.0,0.0,0.0,0.0,0.0,-1.2278,-1.2278,-1.2278,-1.2278,-1.2278,-1.2278,-1.2278,-1.2278,-1.2285,-1.2285,-1.2285,-1.2298,-1.2305,-1.2305,-1.2305,-1.2305,-1.2305,-1.2305,-1.2305,-1.2325,-1.265,-1.2808,-1.2804,-1.3073,-1.32,-1.32,-1.3206,-1.3213,-1.3213,-1.3213,-1.3353,-1.3586,-1.3586,-1.3586,-1.3646,-1.3975,-1.3868,-1.366,-1.3988,-1.4082,-1.4082,-1.4075,-1.4068,-1.3988,-1.366,-1.3586,-1.3513,-1.3273,-1.3661,-1.3975,-1.3646,-1.3573,-1.338,-1.2884,-1.2777,-1.267,-1.2345,-1.2305,-1.2305,-1.2305,-1.2305,-1.2298,-1.2261,-1.2261,-1.2224,-1.2224,-1.2224,-1.2224,-1.2224,-1.2224,-1.1811,-1.082,-1.082,-1.082,-1.082,-1.0826,-1.1279,-1.2261,-1.2017,-1.1906,-1.1879,-1.129,-1.0861,-0.5564,0.0,0.0,0.0,0.0,0.0,0.0,0.0,0.0,0.0,0.0,0.0,0.0,0.0,0.0,0.0,0.0,0.0,0.0,0.0,0.0,0.0,0.0,0.0,0.0,0.0,0.0,0.0,0.0,-1.1663,-1.1663,-1.1663,-1.1663,-1.1663,-1.1663,-1.1663,-1.1663,-1.1884,-1.2027,-1.2027,-1.2204,-1.2305,-1.2305,-1.2305,-1.2305,-1.2305,-1.2305,-1.2305,-1.2311,-1.2392,-1.2425,-1.2452,-1.2797,-1.2911,-1.2945,-1.3126,-1.3213,-1.3213,-1.3213,-1.3267,-1.3327,-1.3327,-1.3327,-1.3347,-1.3427,-1.35,-1.362,-1.37,-1.3921,-1.4041,-1.378,-1.3607,-1.3434,-1.3347,-1.3327,-1.3307,-1.3227,-1.334,-1.3427,-1.3347,-1.2973,-1.2685,-1.2777,-1.2603,-1.2398,-1.2311,-1.2305,-1.2305,-1.2305,-1.2305,-1.2033,-1.1279,-1.1199,-1.0907,-1.0196,-1.0126,-1.0126,-1.0126,-1.0789,-1.1087,-1.082,-1.1502,-1.1885,-1.1885,-1.1162,-1.0932,-1.1205,-1.1881,-1.1964,-1.153,-1.0981,-1.0667,0.0,0.0,0.0,0.0,0.0,0.0,0.0,0.0,0.0,0.0,0.0,0.0,0.0,0.0,0.0,0.0,0.0,0.0,0.0,0.0,0.0,0.0,0.0,0.0,0.0,0.0,0.0,0.0,-1.1389,-1.1389,-1.1389,-1.1389,-1.1389,-1.1389,-1.1389,-1.1389,-1.1389,-1.1597,-1.1683,-1.169,-1.1857,-1.1937,-1.1937,-1.2064,-1.2124,-1.2131,-1.2245,-1.2305,-1.2305,-1.2305,-1.2305,-1.2318,-1.2529,-1.2596,-1.2623,-1.2766,-1.2832,-1.2832,-1.2832,-1.2913,-1.3019,-1.3019,-1.3019,-1.3039,-1.3173,-1.324,-1.3293,-1.3387,-1.3587,-1.3681,-1.3467,-1.334,-1.318,-1.3046,-1.3019,-1.2986,-1.2859,-1.2832,-1.2872,-1.2993,-1.277,-1.2543,-1.2589,-1.2418,-1.2305,-1.2305,-1.1922,-1.1657,-1.1657,-1.1323,-1.0838,-1.0228,-1.0153,-0.9933,-0.9334,-0.9296,-0.9485,-0.9895,-1.049,-1.0596,-1.019,-1.072,-1.0838,-1.0421,-0.9852,-0.9723,-1.0072,-1.0673,-1.0694,-1.0128,-0.9711,-0.9518,0.0,0.0,0.0,0.0,0.0,0.0,0.0,-0.739,0.0,0.0,0.0,0.0,0.0,0.0,0.0,0.0,0.0,0.0,0.0,0.0,0.0,0.0,0.0,0.0,0.0,0.0,0.0,-1.1295,-1.1295,-1.1295,-1.1295,-1.1295,-1.1295,-1.1295,-1.1295,-1.1295,-1.1295,-1.1329,-1.1342,-1.1342,-1.1375,-1.1389,-1.1395,-1.1697,-1.1873,-1.1919,-1.2144,-1.2271,-1.2305,-1.2305,-1.2305,-1.2305,-1.2305,-1.2305,-1.2305,-1.2305,-1.2305,-1.2305,-1.2305,-1.2516,-1.2737,-1.2737,-1.2737,-1.2784,-1.3026,-1.2978,-1.2851,-1.312,-1.3186,-1.316,-1.316,-1.3133,-1.3039,-1.2797,-1.2737,-1.2663,-1.2358,-1.2305,-1.2378,-1.2683,-1.2737,-1.265,-1.2345,-1.2305,-1.2261,-1.215,-1.1354,-1.0746,-1.0634,-0.9857,-0.9258,-0.9145,-0.9145,-0.9074,-0.896,-0.8955,-0.9367,-1.026,-1.0409,-1.0078,-0.9183,-0.9226,-0.887,-0.7977,-0.7808,-0.8071,-0.8706,-0.8923,-0.8821,-0.8381,-0.8128,-0.7994,0.0,0.0,0.0,0.0,0.0,0.0,0.0,-0.5445,0.0,0.0,0.0,0.0,0.0,0.0,0.0,0.0,0.0,0.0,0.0,0.0,0.0,0.0,0.0,0.0,0.0,0.0,-1.076,-1.076,-1.076,-1.076,-1.076,-1.076,-1.076,-1.076,-1.076,-1.076,-1.076,-1.0962,-1.1076,-1.1082,-1.1316,-1.1389,-1.1395,-1.1483,-1.1643,-1.1906,-1.1966,-1.2084,-1.2305,-1.2305,-1.2305,-1.2305,-1.2305,-1.2305,-1.2305,-1.2305,-1.2305,-1.2305,-1.2305,-1.2338,-1.2385,-1.2385,-1.2385,-1.2405,-1.2465,-1.2643,-1.2851,-1.312,-1.3026,-1.2878,-1.2878,-1.2697,-1.2465,-1.2405,-1.2385,-1.2371,-1.2311,-1.2305,-1.2318,-1.2378,-1.2385,-1.2371,-1.2311,-1.2305,-1.2033,-1.1199,-1.0938,-1.0527,-0.9707,-0.941,-0.8993,-0.8161,-0.8084,-0.7783,-0.6949,-0.6868,-0.6984,-0.7173,-0.7931,-0.8309,-0.8084,-0.8879,-0.9173,-0.8844,-0.7907,-0.7023,-0.6297,-0.7803,-0.8478,-0.8381,-0.8128,-0.7994,0.0,0.0,0.0,-0.4214,0.0,0.0,0.0,0.0,0.0,0.0,0.0,0.0,0.0,0.0,0.0,0.0,0.0,0.0,0.0,0.0,0.0,0.0,0.0,0.0,0.0,0.0,-1.0211,-1.0327,-1.0506,-1.0593,-1.0593,-1.0593,-1.0593,-1.0593,-1.0593,-1.0593,-1.0593,-1.0734,-1.0807,-1.0814,-1.0922,-1.0995,-1.1002,-1.1142,-1.1289,-1.1477,-1.1583,-1.173,-1.1877,-1.2024,-1.2084,-1.2098,-1.2245,-1.2305,-1.2305,-1.2305,-1.2305,-1.2305,-1.2305,-1.2305,-1.2305,-1.2305,-1.2305,-1.2305,-1.2305,-1.2405,-1.2596,-1.2712,-1.2645,-1.2563,-1.2563,-1.2412,-1.2305,-1.2305,-1.2305,-1.2305,-1.2305,-1.2305,-1.215,-1.1657,-1.1545,-1.1545,-1.1545,-1.1136,-1.0645,-1.0121,-0.9626,-0.9135,-0.8618,-0.8127,-0.7591,-0.7099,-0.7061,-0.6834,-0.6338,-0.63,-0.6528,-0.7022,-0.7514,-0.7783,-0.7783,-0.8176,-0.8102,-0.7468,-0.6789,-0.6178,-0.5589,-0.6481,-0.6902,-0.6898,-0.6775,-0.6695,0.0,0.0,0.0,0.0,0.0,-0.4421,0.0,0.0,0.0,-0.5945,0.0,0.0,0.0,0.0,0.0,0.0,0.0,0.0,0.0,0.0,0.0,0.0,0.0,0.0,0.0,0.0,-0.9327,-0.9579,-0.9949,-1.0199,-1.0273,-1.0443,-1.0533,-1.0593,-1.0593,-1.0593,-1.0593,-1.0593,-1.0593,-1.0593,-1.0593,-1.0593,-1.06,-1.0834,-1.0942,-1.1009,-1.1243,-1.1342,-1.1409,-1.1683,-1.1784,-1.1852,-1.2171,-1.2305,-1.2305,-1.2305,-1.2305,-1.2305,-1.2305,-1.2305,-1.2305,-1.2305,-1.2305,-1.2305,-1.2305,-1.2305,-1.2305,-1.2305,-1.2305,-1.2305,-1.2305,-1.2305,-1.2305,-1.2305,-1.2305,-1.2261,-1.204,-1.1996,-1.1694,-1.0714,-1.0335,-1.0297,-1.049,-0.9857,-0.9221,-0.9031,-0.8313,-0.7744,-0.7557,-0.6795,-0.63,-0.63,-0.6272,-0.6269,-0.6296,-0.6272,-0.6608,-0.7437,-0.7482,-0.7465,-0.7465,-0.7253,-0.6712,-0.5762,-0.562,-0.5545,-0.5545,-0.5453,-0.5395,-0.5395,-0.5395,-0.5395,0.0,0.0,0.0,0.0,-0.4566,0.0,0.0,0.0,-0.4296,-0.4292,0.0,0.0,0.0,0.0,0.0,0.0,0.0,0.0,0.0,0.0,0.0,0.0,0.0,0.0,0.0,0.0,0.0,-0.7801,-0.8317,-0.8812,-0.9168,-0.9788,-1.0287,-1.0586,-1.0593,-1.0593,-1.0593,-1.0593,-1.0593,-1.0593,-1.0593,-1.0593,-1.0593,-1.0626,-1.0787,-1.0995,-1.1029,-1.1189,-1.1395,-1.1429,-1.1442,-1.1495,-1.2084,-1.2305,-1.2305,-1.2305,-1.2305,-1.2305,-1.2305,-1.2305,-1.2305,-1.2305,-1.2305,-1.2305,-1.2305,-1.2305,-1.2305,-1.2305,-1.2305,-1.2305,-1.2305,-1.2305,-1.2305,-1.2305,-1.2305,-1.2077,-1.1162,-1.0969,-1.0677,-0.9669,-0.8765,-0.8423,-0.9334,-0.9372,-0.8993,-0.8084,-0.7859,-0.748,-0.6606,-0.6377,-0.63,-0.63,-0.6139,-0.6112,-0.6286,-0.6135,-0.6149,-0.6444,-0.6318,-0.6204,-0.6204,-0.5965,-0.5769,-0.5613,-0.5498,-0.5423,-0.5423,-0.5402,-0.5395,-0.5395,-0.5395,-0.5395,0.0,0.0,0.0,0.0,0.0,0.0,0.0,0.0,-0.4177,0.0,0.0,0.0,0.0,0.0,0.0,0.0,0.0,0.0,0.0,0.0,0.0,0.0,0.0,0.0,0.0,0.0,0.0,0.0,0.0,-0.8441,-0.8753,-0.9075,-0.9567,-1.0294,-1.0301,-1.0388,-1.0593,-1.0593,-1.0593,-1.0593,-1.0593,-1.0593,-1.0593,-1.0593,-1.066,-1.0774,-1.0774,-1.0847,-1.0935,-1.1102,-1.1176,-1.1216,-1.163,-1.1897,-1.2107,-1.2238,-1.2305,-1.2305,-1.2305,-1.2305,-1.2305,-1.2305,-1.2305,-1.2305,-1.2305,-1.2305,-1.2305,-1.2305,-1.2305,-1.2305,-1.2305,-1.2305,-1.215,-1.1583,-1.1428,-1.1168,-1.0153,-0.9933,-0.9631,-0.8613,-0.8084,-0.7744,-0.7595,-0.7553,-0.7403,-0.6984,-0.6945,-0.6795,-0.6338,-0.6183,-0.6129,-0.6129,-0.5989,-0.5922,-0.5989,-0.5935,-0.5925,-0.5989,-0.5932,-0.5861,-0.5779,-0.5654,-0.5549,-0.5494,-0.5429,-0.5395,-0.5395,-0.5395,-0.5395,-0.5395,-0.5395,-0.5395,-0.4668,0.0,0.0,0.0,0.0,0.0,0.0,0.0,0.0,0.0,0.0,0.0,0.0,0.0,0.0,0.0,0.0,0.0,0.0,0.0,0.0,0.0,0.0,0.0,0.0,0.0,0.0,0.0,0.0,0.0,-0.7888,-0.8265,-0.8775,-0.9373,-0.9643,-0.9907,-1.0146,-1.0451,-1.0593,-1.0593,-1.0593,-1.0593,-1.0593,-1.0593,-1.0593,-1.0593,-1.0593,-1.0593,-1.0613,-1.0821,-1.0875,-1.0935,-1.1196,-1.1436,-1.1712,-1.2044,-1.2231,-1.2305,-1.2305,-1.2305,-1.2285,-1.2204,-1.2238,-1.2305,-1.2305,-1.2305,-1.2305,-1.2305,-1.2305,-1.2305,-1.2305,-1.2114,-1.1694,-1.0969,-1.0596,-1.0115,-0.9107,-0.8879,-0.8561,-0.7525,-0.7371,-0.7122,-0.6357,-0.6272,-0.63,-0.63,-0.6262,-0.6235,-0.6235,-0.6061,-0.5929,-0.5929,-0.5833,-0.5759,-0.5796,-0.5766,-0.5742,-0.5742,-0.5742,-0.5677,-0.5569,-0.5562,-0.5508,-0.5395,-0.5395,-0.5395,-0.5395,-0.5395,-0.5395,-0.5395,-0.5395,-0.5395,0.0,0.0,0.0,-0.4344,0.0,0.0,0.0,0.0,-0.4484,0.0,0.0,0.0,0.0,0.0,0.0,0.0,0.0,0.0,0.0,0.0,0.0,0.0,0.0,0.0,0.0,0.0,0.0,0.0,0.0,0.0,-0.608,-0.7429,-0.8006,-0.7601,-0.8527,-0.9028,-0.904,-1.0095,-1.0593,-1.0593,-1.0593,-1.0593,-1.0593,-1.0593,-1.0593,-1.0593,-1.0593,-1.0593,-1.0593,-1.06,-1.0606,-1.0633,-1.0928,-1.1009,-1.1089,-1.1705,-1.2094,-1.2305,-1.2305,-1.2305,-1.2258,-1.2013,-1.2078,-1.2305,-1.2305,-1.2305,-1.2305,-1.2305,-1.2305,-1.2305,-1.2305,-1.1583,-1.082,-1.082,-1.0045,-0.9069,-0.8046,-0.7859,-0.7503,-0.6286,-0.6232,-0.629,-0.6064,-0.6162,-0.63,-0.63,-0.6132,-0.6,-0.6,-0.5905,-0.581,-0.581,-0.5681,-0.565,-0.5789,-0.5677,-0.5596,-0.5596,-0.5596,-0.5562,-0.5409,-0.5402,-0.5399,-0.5395,-0.5395,-0.5395,-0.5395,-0.5395,-0.5395,-0.5395,-0.5395,-0.5395,0.0,0.0,-0.5005,-0.464,0.0,0.0,0.0,0.0,0.0,0.0,0.0,0.0,0.0,0.0,0.0,0.0,0.0,0.0,0.0,0.0,0.0,0.0,0.0,0.0,0.0,0.0,0.0,0.0,0.0,0.0,0.0,-0.6606,-0.7383,-0.7943,-0.8731,-0.9005,-0.8741,-0.9181,-0.9147,-0.868,-0.9402,-0.9754,-0.9754,-1.0333,-1.0593,-1.0593,-1.0593,-1.0593,-1.0593,-1.0593,-1.0593,-1.06,-1.07,-1.0854,-1.1042,-1.143,-1.1637,-1.1688,-1.1688,-1.1688,-1.1703,-1.1603,-1.1643,-1.1757,-1.1957,-1.1571,-1.1089,-1.1261,-1.0832,-1.0314,-1.0314,-1.0045,-0.9631,-0.8988,-0.8537,-0.805,-0.7022,-0.6707,-0.6498,-0.6078,-0.5989,-0.5942,-0.5888,-0.5922,-0.5993,-0.6091,-0.6027,-0.5956,-0.5891,-0.5752,-0.5661,-0.5661,-0.5562,-0.5491,-0.5539,-0.5501,-0.5474,-0.5474,-0.5474,-0.545,-0.5395,-0.5395,-0.5395,-0.5395,-0.5395,-0.5395,-0.5395,-0.5395,-0.5395,-0.5395,-0.5395,-0.5395,-0.4995,-0.5029,0.0,-0.4765,-0.4765,0.0,-0.4375,0.0,0.0,0.0,0.0,0.0,0.0,0.0,0.0,0.0,0.0,0.0,0.0,0.0,0.0,0.0,0.0,0.0,0.0,0.0,-0.4051,-0.3992,0.0,0.0,0.0,0.0,-0.6425,-0.6872,-0.7656,-0.8062,-0.8062,-0.8602,-0.8771,-0.8555,-0.9075,-0.9306,-0.9306,-0.9881,-0.9977,-0.9678,-1.0009,-1.0142,-1.0142,-1.0142,-1.0333,-1.0593,-1.0593,-1.0707,-1.0875,-1.1169,-1.1336,-1.1375,-1.1309,-1.1302,-1.1375,-1.1309,-1.1098,-1.0974,-1.1189,-1.0598,-0.9867,-1.0025,-0.9637,-0.9127,-0.9127,-0.8869,-0.8425,-0.7762,-0.736,-0.6911,-0.6245,-0.6017,-0.5932,-0.5884,-0.5833,-0.5786,-0.5735,-0.5769,-0.5833,-0.5932,-0.5905,-0.5837,-0.5739,-0.5599,-0.5542,-0.5542,-0.5453,-0.5395,-0.5395,-0.5395,-0.5395,-0.5395,-0.5395,-0.5395,-0.5395,-0.5395,-0.5395,-0.5395,-0.5395,-0.5395,-0.5395,-0.5395,-0.5395,-0.5395,-0.5395,-0.5395]}]]